[[[{"header":{"parameterUnit":"kt","parameterCategory":2,"dx":1,"dy":1,"la1":29.285339999999998,"la2":30.599998999999997,"lo1":-89.70041500000002,"lo2":-87.6738589999976,"nx":112,"ny":82,"refTime":"2022-10-31T18:00:00:Z","depth":0,"parameterNumber":1,"parameterNumberName":"U-component_of_WINDS"},"data":[5.1064,5.1311,0.0,4.7894,4.7115,0.0,4.292,0.0,4.3427,0.0,0.0,0.0,0.0,4.434,4.2257,4.1608,3.9586,3.7605,0.0,3.777,0.0,0.0,0.0,0.0,0.0,0.0,0.0,0.0,0.0,0.0,0.0,0.0,5.0039,5.0039,5.0039,5.0039,5.0039,5.0039,5.0039,5.0039,5.0039,5.0191,5.0475,5.0475,5.0627,5.0893,5.0608,5.0475,5.0456,5.0153,5.0039,5.0039,5.0039,5.0039,5.0039,5.0039,5.0039,5.0039,5.0039,5.0039,5.0039,5.0039,5.0039,5.0039,5.0039,5.0566,5.1298,5.1298,5.3077,5.5048,5.593,5.838,6.0865,6.1769,6.3199,6.4304,6.4304,6.4304,6.4304,6.4304,6.4304,6.4304,6.4304,6.4304,6.4304,6.4304,6.4304,6.4304,6.4304,6.4304,6.4304,6.4304,6.4304,6.4304,6.4304,6.4304,6.4304,6.4304,6.4304,6.4304,6.4304,6.4304,6.4304,6.4304,6.4304,6.4304,6.4304,6.4304,6.4304,6.4304,6.4304,6.3548,0.0,0.0,4.9184,4.5825,0.0,0.0,0.0,0.0,0.0,0.0,0.0,0.0,0.0,4.1129,4.0396,3.9537,3.7833,3.6371,0.0,0.0,0.0,0.0,0.0,0.0,0.0,0.0,0.0,0.0,0.0,0.0,0.0,5.0039,5.0039,5.0039,5.0039,5.0039,5.0039,5.0039,5.0039,5.0039,5.0039,5.0039,5.0039,5.0039,5.0039,5.0039,5.0039,5.0039,5.0039,5.0039,5.0039,5.0039,5.0039,5.0039,5.0039,5.0039,5.0039,5.0039,5.0039,5.0039,5.0039,5.0039,5.0039,5.0039,5.0039,5.0039,5.0039,5.0039,5.1839,5.3792,5.4684,5.7696,6.0865,6.1769,6.3199,6.4304,6.4304,6.4304,6.4304,6.4304,6.4304,6.4304,6.4304,6.4304,6.4304,6.4304,6.4304,6.4304,6.4304,6.4304,6.4304,6.4304,6.4304,6.4304,6.4304,6.4304,6.4304,6.4304,6.3596,6.2864,6.2157,6.2132,6.2815,6.428,6.4304,6.4304,6.4304,6.4304,6.3914,6.3182,6.3182,6.223,0.0,0.0,0.0,4.3357,0.0,0.0,0.0,0.0,4.1003,0.0,0.0,0.0,0.0,3.9237,3.8402,3.7624,3.7529,0.0,0.0,0.0,0.0,0.0,0.0,0.0,0.0,0.0,0.0,0.0,0.0,0.0,4.9773,5.0039,5.0039,5.0039,5.0039,5.0039,5.0039,5.0039,5.0039,5.0039,5.0039,5.0039,5.0039,5.0039,5.0039,5.0039,5.0039,5.0039,5.0039,5.0039,5.0039,5.0039,5.0039,5.0039,5.0039,5.0039,5.0039,5.0039,5.0039,5.0039,5.0039,5.0039,5.0039,5.0039,5.0039,5.0039,5.0039,5.0039,5.1839,5.4158,5.6448,5.893,6.1232,6.3753,6.428,6.4304,6.4304,6.4304,6.4304,6.4304,6.4304,6.4304,6.4304,6.4304,6.4304,6.4304,6.4304,6.4304,6.4304,6.4304,6.4255,6.4109,6.4084,6.4084,6.4084,6.4084,6.4084,6.4084,6.2108,6.0009,5.7984,5.791,5.9863,6.4011,6.4084,6.4109,6.4158,6.4158,6.3084,6.101,6.0936,6.0399,4.4401,4.4325,0.0,0.0,0.0,0.0,0.0,0.0,0.0,0.0,0.0,0.0,0.0,0.0,3.7757,3.7529,0.0,3.8782,0.0,0.0,0.0,0.0,0.0,0.0,0.0,0.0,0.0,0.0,0.0,0.0,4.9868,5.0039,5.0039,5.0039,5.0039,5.0039,5.0039,5.0039,5.0039,5.0039,5.0039,5.0039,5.0039,5.0039,5.0039,5.0039,5.0039,5.0039,5.0039,5.0039,5.0039,5.0039,5.0039,5.0039,5.0039,5.0039,5.0039,5.0039,5.0039,5.0039,5.0039,5.0039,5.0039,5.0039,5.0039,5.0039,5.0039,5.0039,5.1839,5.3812,5.4523,5.7696,6.0865,6.1575,6.303,6.4304,6.4304,6.4304,6.4304,6.4304,6.4304,6.4304,6.4304,6.4304,6.4304,6.4304,6.4304,6.4304,6.4304,6.4304,6.3108,5.9985,5.9667,5.9667,5.9667,5.9667,5.9667,5.9667,5.9082,5.8496,5.7935,5.791,5.8472,5.9643,5.9667,6.018,6.1205,6.1205,6.1132,6.0985,5.9472,5.8618,4.3072,4.3148,4.349,4.2313,0.0,0.0,4.1079,0.0,4.0414,0.0,0.0,0.0,0.0,0.0,0.0,0.0,0.0,0.0,0.0,0.0,0.0,0.0,0.0,0.0,0.0,0.0,0.0,0.0,0.0,4.7362,4.9887,5.0039,5.0039,5.0039,5.0039,5.0039,5.0039,5.0039,5.0039,5.0039,5.0039,5.0039,5.0039,5.0039,5.0039,5.0039,5.0039,5.0039,5.0039,5.0039,5.0039,5.0039,5.0039,5.0039,5.0039,5.0039,5.0039,5.0039,5.0039,5.0039,5.0039,5.0039,5.0039,5.0039,5.0039,5.0039,5.0039,5.0039,5.1839,5.3629,5.3629,5.6469,5.9105,5.9105,6.0715,6.2304,6.2304,6.3392,6.4304,6.4304,6.4304,6.4304,6.4304,6.4304,6.4304,6.4304,6.2767,6.162,6.162,6.162,6.0668,5.8179,5.791,5.791,5.791,5.791,5.791,5.791,5.791,5.791,5.791,5.791,5.791,5.791,5.791,5.8325,5.9155,5.9155,5.935,5.9667,5.8472,5.791,4.2787,4.2711,4.2996,4.161,4.2237,4.2692,0.0,0.0,4.1136,4.0661,0.0,0.0,0.0,0.0,0.0,0.0,0.0,0.0,0.0,0.0,0.0,0.0,0.0,0.0,0.0,0.0,4.7609,4.9868,4.7951,4.7666,4.9906,5.0039,5.0039,5.0039,5.0039,5.0039,5.0039,5.0039,5.0039,5.0039,5.0039,5.0039,5.0039,5.0039,5.0039,5.0039,5.0039,5.0039,5.0039,5.0039,5.0039,5.0039,5.0039,5.0039,5.0039,5.0039,5.0039,5.0039,5.0039,5.0039,5.0039,5.0039,5.0039,5.0039,5.0039,5.0039,5.0039,5.0039,5.1465,5.3261,5.3506,5.5061,5.6789,5.7211,5.7938,5.8857,5.9552,6.2186,6.4304,6.4304,6.3914,6.3572,6.3572,6.3572,6.3572,6.3572,6.0351,5.791,5.791,5.791,5.791,5.791,5.791,5.791,5.791,5.791,5.791,5.791,5.791,5.791,5.791,5.791,5.791,5.791,5.791,5.791,5.791,5.791,5.791,5.791,5.791,5.791,4.0149,4.0054,4.0794,4.1174,4.0471,4.0282,0.0,0.0,0.0,0.0,0.0,0.0,0.0,0.0,0.0,0.0,0.0,0.0,0.0,0.0,0.0,0.0,0.0,0.0,0.0,4.9393,4.9507,5.0001,4.9564,4.9507,5.0001,5.0039,5.0039,5.0039,5.0039,5.0039,5.0039,5.0039,5.0039,5.0039,5.0039,5.0039,5.0039,5.0039,5.0039,5.0039,5.0039,5.0039,5.0039,5.0039,5.0039,5.0039,5.0039,5.0039,5.0039,5.0039,5.0039,5.0039,5.0039,5.0039,5.0039,5.0039,5.0039,5.0039,5.0039,5.0039,5.0039,5.0039,5.0397,5.0955,5.2188,5.2886,5.4081,5.7112,5.5933,5.5616,6.0646,6.3119,6.4304,6.4304,6.1522,5.9155,5.9155,5.9155,5.9155,5.9155,5.8447,5.791,5.791,5.791,5.791,5.791,5.791,5.791,5.791,5.791,5.791,5.791,5.791,5.791,5.791,5.791,5.791,5.791,5.791,5.791,5.791,5.791,5.791,5.791,5.791,5.791,3.8668,3.8706,3.9351,3.937,3.9351,0.0,0.0,4.0908,4.1231,4.3338,0.0,0.0,0.0,0.0,0.0,0.0,0.0,0.0,0.0,0.0,0.0,0.0,0.0,0.0,0.0,5.0039,5.0039,5.0039,5.0039,5.0039,5.0039,5.0039,5.0039,5.0039,5.0039,5.0039,5.0039,5.0039,5.0039,5.0039,5.0039,5.0039,5.0039,5.0039,5.0039,5.0039,5.0039,5.0039,5.0039,5.0039,5.0039,5.0039,5.0039,4.9754,4.9374,4.9374,4.9109,4.8748,4.8748,4.8748,4.8748,4.8748,4.8748,4.8748,4.8748,4.8748,4.8748,4.8748,4.8748,4.8818,4.9608,4.9849,5.0247,5.2172,5.246,5.3185,5.6186,5.907,6.1107,6.1107,5.9375,5.791,5.791,5.791,5.791,5.791,5.791,5.791,5.791,5.791,5.791,5.791,5.791,5.791,5.791,5.791,5.791,5.791,5.791,5.791,5.791,5.791,5.791,5.791,5.791,5.791,5.791,5.791,5.791,5.791,5.791,5.791,3.7662,3.7852,3.8345,3.7852,3.8497,0.0,3.9617,4.0111,4.1098,0.0,0.0,0.0,0.0,0.0,0.0,0.0,0.0,0.0,0.0,0.0,0.0,0.0,0.0,0.0,4.9773,4.9621,4.9526,4.9526,4.9526,4.9526,4.9526,4.9526,4.9526,4.9526,4.9526,4.9526,4.9526,4.9526,4.9526,4.9526,4.9526,4.9621,4.9773,4.9773,4.9773,4.9773,4.9773,4.9773,4.9773,4.9773,4.9678,4.9526,4.9526,4.9109,4.8482,4.8482,4.8045,4.7457,4.7457,4.7457,4.7457,4.7457,4.7457,4.7457,4.7457,4.7457,4.7457,4.7457,4.7457,4.7419,4.7267,4.7229,4.735,4.7514,4.9432,5.0997,5.0329,5.4193,5.791,5.791,5.791,5.791,5.791,5.791,5.791,5.791,5.791,5.791,5.791,5.791,5.791,5.791,5.791,5.791,5.791,5.791,5.791,5.791,5.791,5.791,5.791,5.791,5.791,5.791,5.791,5.791,5.791,5.791,5.791,5.791,5.791,5.791,3.6618,3.6979,3.7776,3.8421,3.7605,0.0,4.2199,4.2711,4.3357,0.0,0.0,0.0,0.0,0.0,0.0,0.0,0.0,0.0,0.0,0.0,0.0,0.0,0.0,0.0,4.8862,4.8197,4.7742,4.7742,4.7742,4.7742,4.7742,4.7742,4.7742,4.7742,4.7742,4.7742,4.7742,4.7742,4.7742,4.7742,4.7742,4.814,4.8862,4.8862,4.8862,4.8862,4.8862,4.8862,4.8862,4.8862,4.8425,4.7742,4.7742,4.7685,4.7609,4.7609,4.7533,4.7457,4.7457,4.7457,4.7457,4.7457,4.7457,4.7457,4.7457,4.7457,4.7457,4.7457,4.7457,4.7305,4.6565,4.6375,4.6689,4.7856,4.8862,4.8923,4.6284,5.2096,5.791,5.791,5.791,5.791,5.791,5.791,5.791,5.791,5.791,5.791,5.791,5.791,5.791,5.791,5.791,5.791,5.791,5.791,5.791,5.791,5.791,5.791,5.791,5.791,5.791,5.791,5.791,5.791,5.791,5.791,5.791,5.791,5.791,5.791,3.5612,3.5764,3.6124,3.6466,0.0,0.0,4.0225,4.1326,0.0,0.0,0.0,0.0,0.0,0.0,0.0,0.0,0.0,0.0,0.0,0.0,0.0,0.0,0.0,0.0,0.0,4.7666,4.7457,4.7457,4.7457,4.7457,4.7457,4.7457,4.7457,4.7457,4.7457,4.7457,4.7457,4.7457,4.7457,4.7457,4.7457,4.7647,4.7989,4.7989,4.7989,4.7989,4.7989,4.7989,4.7951,4.7476,4.7362,4.7457,4.7457,4.7172,4.6755,4.6755,4.6451,4.6014,4.6014,4.6014,4.6014,4.6014,4.6014,4.6014,4.6014,4.6014,4.6014,4.6014,4.6014,4.5938,4.5597,4.5502,4.5578,4.6193,4.6619,4.6954,4.7435,4.9046,5.1755,5.693,5.791,5.791,5.791,5.791,5.791,5.791,5.791,5.791,5.791,5.791,5.791,5.791,5.791,5.791,5.791,5.791,5.791,5.791,5.791,5.791,5.791,5.791,5.791,5.791,5.791,5.791,5.791,5.791,5.791,5.791,5.791,5.791,3.5004,0.0,0.0,0.0,0.0,0.0,0.0,0.0,4.2787,4.5654,0.0,0.0,0.0,0.0,0.0,0.0,0.0,0.0,0.0,0.0,0.0,0.0,0.0,0.0,0.0,0.0,0.0,0.0,4.6774,4.6774,4.6774,4.6774,4.6774,4.6774,4.6774,4.6774,4.6774,4.6774,4.6774,4.6774,4.6774,4.6907,4.7134,4.7134,4.7134,4.7134,4.7134,4.6982,4.6736,4.6147,4.6242,4.6774,4.6774,4.6413,4.59,4.59,4.5502,4.497,4.497,4.497,4.497,4.497,4.497,4.497,4.497,4.497,4.497,4.497,4.497,4.497,4.497,4.497,4.497,4.497,4.5291,4.6432,4.8923,4.6954,4.7081,5.4193,5.4838,5.4349,5.4349,5.6296,5.791,5.791,5.791,5.791,5.791,5.791,5.791,5.791,5.791,5.791,5.791,5.791,5.791,5.791,5.791,5.791,5.791,5.791,5.791,5.791,5.791,5.791,5.791,5.791,5.791,5.791,5.791,5.791,0.0,0.0,0.0,3.5366,3.6977,3.8905,3.9939,4.1909,4.4173,4.59,0.0,0.0,0.0,0.0,0.0,0.0,0.0,0.0,0.0,0.0,0.0,0.0,0.0,0.0,0.0,0.0,0.0,0.0,4.5046,4.5046,4.5046,4.5046,4.5046,4.5046,4.5046,4.5046,4.5046,4.5046,4.5046,4.5046,4.5046,4.5483,4.628,4.628,4.628,4.628,4.628,4.5825,4.5046,4.5027,4.5027,4.5046,4.5046,4.5027,4.5008,4.5008,4.5008,4.497,4.497,4.497,4.497,4.497,4.497,4.497,4.497,4.497,4.497,4.497,4.497,4.497,4.497,4.497,4.497,4.497,4.658,4.8368,4.9231,4.6954,4.5798,4.9087,4.7268,4.5291,4.5291,5.2234,5.791,5.791,5.791,5.791,5.791,5.791,5.791,5.791,5.791,5.791,5.791,5.791,5.791,5.791,5.791,5.791,5.791,5.791,5.791,5.791,5.791,5.791,5.791,5.791,5.791,5.791,5.791,5.791,3.218,3.2619,3.2866,3.3572,3.5125,3.6606,3.6947,3.8417,4.0103,4.1268,0.0,0.0,0.0,0.0,0.0,0.0,0.0,0.0,0.0,0.0,0.0,0.0,0.0,0.0,0.0,0.0,0.0,0.0,0.0,0.0,4.497,4.497,4.497,4.497,4.497,4.497,4.497,4.497,4.497,4.497,4.497,4.5122,4.5407,4.5407,4.5407,4.5407,4.5407,4.5236,4.497,4.497,4.497,4.497,4.497,4.497,4.497,4.497,4.497,4.497,4.497,4.497,4.497,4.497,4.497,4.497,4.497,4.497,4.497,4.497,4.497,4.497,4.497,4.497,4.497,4.497,4.546,4.6432,4.8223,4.7872,4.7892,5.035,5.0814,4.9495,4.5629,5.2074,5.791,5.791,5.791,5.791,5.791,5.791,5.791,5.791,5.791,5.791,5.791,5.791,5.791,5.791,5.791,5.791,5.791,5.791,5.791,5.791,5.791,5.791,5.791,5.791,5.791,5.791,5.791,5.791,3.0867,3.1275,3.1724,3.2401,3.4139,3.5736,3.5146,3.6558,3.8011,3.846,0.0,0.0,0.0,0.0,0.0,0.0,0.0,0.0,0.0,0.0,0.0,0.0,0.0,0.0,0.0,0.0,0.0,0.0,0.0,4.497,4.497,4.497,4.497,4.497,4.497,4.497,4.497,4.497,4.497,4.497,4.497,4.497,4.497,4.497,4.497,4.497,4.497,4.497,4.497,4.497,4.497,4.497,4.497,4.497,4.497,4.497,4.497,4.497,4.497,4.497,4.497,4.497,4.497,4.497,4.497,4.497,4.497,4.497,4.497,4.497,4.497,4.497,4.497,4.497,4.497,4.5291,4.6747,4.7061,4.7394,4.8882,5.0814,5.0975,4.7101,5.289,5.791,5.791,5.791,5.791,5.791,5.791,5.791,5.791,5.791,5.791,5.791,5.791,5.791,5.791,5.791,5.791,5.791,5.791,5.791,5.791,5.791,5.791,5.791,5.791,5.791,5.791,5.791,5.791,3.0732,3.163,3.2184,3.1882,3.4005,3.5861,3.459,3.5968,3.7543,3.7543,3.7543,0.0,0.0,0.0,0.0,0.0,0.0,0.0,0.0,0.0,0.0,0.0,0.0,0.0,0.0,0.0,0.0,0.0,4.497,4.497,4.497,4.497,4.497,4.497,4.497,4.497,4.497,4.497,4.497,4.497,4.497,4.497,4.497,4.497,4.497,4.497,4.497,4.497,4.497,4.497,4.497,4.497,4.497,4.497,4.497,4.497,4.497,4.497,4.497,4.497,4.497,4.497,4.497,4.497,4.497,4.497,4.497,4.497,4.497,4.497,4.497,4.497,4.497,4.497,4.497,4.497,4.497,4.497,4.497,4.497,4.7601,4.9558,4.9558,5.4215,5.791,5.791,5.791,5.791,5.791,5.791,5.791,5.791,5.791,5.791,5.791,5.791,5.791,5.791,5.791,5.791,5.791,5.791,5.791,5.791,5.791,5.791,5.791,5.791,5.791,5.791,5.791,5.791,2.842,2.9446,3.0239,3.0893,3.1683,3.2014,3.1825,3.2021,3.2557,0.0,3.2557,0.0,0.0,0.0,0.0,0.0,0.0,0.0,0.0,0.0,0.0,0.0,0.0,0.0,0.0,0.0,0.0,0.0,4.497,4.497,4.497,4.497,4.497,4.497,4.497,4.497,4.497,4.497,4.497,4.497,4.497,4.497,4.497,4.497,4.497,4.497,4.497,4.497,4.497,4.497,4.497,4.497,4.497,4.497,4.497,4.497,4.497,4.497,4.497,4.497,4.497,4.497,4.497,4.497,4.497,4.497,4.497,4.497,4.497,4.497,4.497,4.497,4.497,4.497,4.497,4.497,4.497,4.497,4.546,4.7061,5.061,5.3183,5.2573,5.5481,5.791,5.791,5.791,5.791,5.791,5.791,5.791,5.791,5.791,5.791,5.791,5.791,5.791,5.791,5.791,5.791,5.791,5.791,5.791,5.791,5.791,5.791,5.791,5.791,5.791,5.791,5.791,5.791,2.5425,2.7387,2.9359,3.0489,3.0774,3.0774,3.0774,3.0774,3.0774,3.0774,3.0774,0.0,0.0,0.0,0.0,0.0,0.0,0.0,0.0,0.0,0.0,0.0,0.0,0.0,0.0,0.0,0.0,0.0,4.427,4.497,4.497,4.497,4.497,4.497,4.497,4.497,4.497,4.497,4.497,4.497,4.497,4.497,4.497,4.497,4.497,4.497,4.497,4.497,4.497,4.497,4.497,4.497,4.497,4.497,4.497,4.497,4.497,4.497,4.497,4.497,4.497,4.497,4.497,4.497,4.497,4.497,4.497,4.497,4.497,4.497,4.497,4.497,4.497,4.497,4.497,4.497,4.497,4.497,4.531,4.658,4.9474,5.2052,5.2573,5.4504,5.6449,5.776,5.791,5.791,5.791,5.791,5.791,5.791,5.791,5.791,5.791,5.791,5.791,5.791,5.791,5.791,5.791,5.791,5.791,5.791,5.6959,5.647,5.647,5.647,5.647,5.647,5.647,5.647,2.291,2.5823,2.8994,3.0306,3.0774,3.0774,3.0774,3.0774,3.0774,3.0774,3.0774,3.0774,0.0,0.0,0.0,0.0,0.0,0.0,0.0,0.0,0.0,0.0,0.0,0.0,0.0,0.0,0.0,0.0,4.3187,4.4441,4.4441,4.48,4.497,4.497,4.497,4.497,4.497,4.497,4.497,4.497,4.497,4.497,4.497,4.497,4.497,4.497,4.497,4.497,4.497,4.497,4.497,4.497,4.497,4.497,4.497,4.497,4.497,4.497,4.497,4.497,4.497,4.497,4.497,4.497,4.497,4.497,4.497,4.497,4.497,4.497,4.497,4.497,4.497,4.497,4.497,4.497,4.497,4.497,4.497,4.5291,4.6895,4.884,5.1136,5.262,5.4429,5.6666,5.737,5.7373,5.7081,5.7569,5.7691,5.7105,5.7569,5.791,5.791,5.791,5.791,5.791,5.791,5.791,5.791,5.791,5.7788,5.7495,5.5714,5.4738,5.464,5.464,5.464,5.464,5.464,5.464,2.3665,2.5427,2.7012,2.9927,3.0774,3.0774,3.0774,3.0774,3.0774,3.0774,3.0774,3.0774,3.0774,0.0,0.0,0.0,0.0,0.0,0.0,0.0,0.0,0.0,0.0,0.0,0.0,0.0,0.0,0.0,0.0,4.1927,4.1927,4.3891,4.497,4.497,4.497,4.497,4.497,4.497,4.497,4.497,4.497,4.497,4.497,4.497,4.497,4.497,4.497,4.497,4.497,4.497,4.497,4.497,4.497,4.497,4.497,4.497,4.497,4.497,4.497,4.497,4.497,4.497,4.497,4.497,4.497,4.497,4.497,4.497,4.497,4.497,4.497,4.497,4.497,4.497,4.497,4.497,4.497,4.497,4.546,4.7228,4.8017,4.884,5.1136,5.2352,5.3122,5.2717,5.4062,5.4543,5.2785,5.569,5.6544,5.2932,5.5763,5.791,5.791,5.791,5.791,5.791,5.791,5.791,5.791,5.791,5.7056,5.5226,5.5446,5.5275,5.464,5.464,5.464,5.464,5.464,5.464,1.9842,2.1725,2.4187,2.7233,2.9364,3.0774,3.0774,3.0774,3.0684,3.0385,3.0567,3.0774,3.0774,3.0774,0.0,0.0,0.0,0.0,0.0,0.0,0.0,0.0,0.0,0.0,0.0,0.0,0.0,0.0,0.0,4.0171,4.139,4.2463,4.372,4.48,4.497,4.497,4.497,4.497,4.497,4.497,4.497,4.497,4.497,4.497,4.497,4.497,4.497,4.497,4.497,4.497,4.497,4.497,4.497,4.497,4.497,4.497,4.497,4.497,4.497,4.497,4.497,4.497,4.497,4.497,4.497,4.497,4.497,4.497,4.497,4.497,4.497,4.497,4.497,4.497,4.497,4.497,4.497,4.4648,4.4659,4.5619,4.5576,4.5585,4.6716,4.8184,4.9062,4.8604,5.0531,5.0454,4.6047,5.0862,5.3737,5.1797,5.3298,5.4543,5.4543,5.4543,5.4543,5.4543,5.4543,5.4543,5.4543,5.4543,5.403,5.2981,5.3322,5.3322,5.2981,5.2981,5.2981,5.2981,5.2981,5.2981,1.6158,1.84,2.1259,2.4214,2.7318,2.9698,3.019,2.9655,2.897,2.8918,2.925,2.9698,3.0203,3.0307,3.0255,0.0,0.0,0.0,0.0,0.0,0.0,0.0,0.0,0.0,0.0,0.0,0.0,0.0,0.0,0.0,3.9821,4.0345,4.1754,4.4081,4.4081,4.4441,4.497,4.497,4.497,4.497,4.497,4.497,4.497,4.461,4.4458,4.4477,4.4629,4.4818,4.497,4.497,4.497,4.497,4.497,4.497,4.497,4.497,4.497,4.497,4.497,4.497,4.497,4.497,4.497,4.497,4.497,4.497,4.497,4.497,4.497,4.497,4.497,4.497,4.4894,4.4534,4.4458,4.4458,4.4458,4.3945,4.349,4.349,4.2996,4.254,4.254,4.3881,4.5151,4.5394,4.7614,4.7712,4.3107,4.7842,5.1577,5.1577,5.1577,5.0858,4.9132,4.8995,4.8995,4.8995,4.8995,4.8995,4.8995,4.9839,5.0405,5.0699,5.1285,5.1577,5.1577,5.1577,5.1577,5.1577,5.1577,5.1577,1.641,1.7568,1.8789,2.1823,2.429,2.6306,2.8763,2.6161,2.363,2.5584,2.5754,2.6121,2.8776,2.8814,2.8632,2.9151,0.0,0.0,0.0,0.0,0.0,0.0,0.0,0.0,0.0,0.0,0.0,0.0,0.0,0.0,0.0,3.7025,3.9294,4.1581,4.1754,4.2825,4.48,4.497,4.497,4.497,4.497,4.497,4.4932,4.3433,4.2768,4.2806,4.3547,4.4287,4.497,4.497,4.497,4.497,4.497,4.497,4.497,4.497,4.497,4.497,4.497,4.497,4.497,4.497,4.497,4.497,4.497,4.497,4.497,4.497,4.497,4.497,4.497,4.497,4.461,4.311,4.2768,4.2768,4.2768,4.2711,4.2654,4.2654,4.2597,4.254,4.254,4.2701,4.3152,4.4216,4.6304,4.842,5.0294,5.1127,5.1577,5.1577,5.1577,4.8696,4.1697,4.1141,4.1141,4.1141,4.1141,4.1141,4.1141,4.4418,4.6722,4.8004,5.027,5.1577,5.1577,5.1577,5.1577,5.1577,5.1577,5.1577,1.2929,1.386,1.5107,1.7744,1.9573,2.134,2.4243,2.2852,2.1909,2.4555,2.529,2.6043,2.8224,2.8658,0.0,2.858,2.8853,0.0,0.0,0.0,0.0,0.0,0.0,0.0,0.0,0.0,0.0,0.0,0.0,0.0,0.0,3.4215,3.5756,3.8149,3.8149,3.8657,3.9536,3.9704,4.0208,4.156,4.156,4.156,4.1542,4.232,4.254,4.2559,4.2882,4.3205,4.3509,4.3509,4.3509,4.3509,4.3509,4.3509,4.3509,4.3509,4.3509,4.3509,4.3509,4.3509,4.3509,4.3509,4.3509,4.3509,4.3509,4.3509,4.3509,4.3509,4.3509,4.3509,4.3509,4.3509,4.3357,4.2692,4.254,4.254,4.254,4.2142,4.1781,4.1781,4.1364,4.1003,4.1003,4.1003,4.1159,4.1537,4.3357,4.5829,4.8857,5.0564,5.1577,5.1577,4.943,4.6722,4.3714,4.3423,4.2417,4.011,3.9978,4.0099,4.0333,4.2444,4.3986,4.4964,4.6888,4.799,4.799,4.8974,4.9515,4.9515,4.9515,4.9515,1.0105,1.1052,1.2498,1.4344,1.6024,1.757,1.9747,1.9149,1.8734,2.1021,2.2146,2.3513,2.621,2.7042,2.7311,2.7583,2.8203,2.858,0.0,0.0,0.0,0.0,0.0,0.0,0.0,0.0,0.0,0.0,0.0,0.0,0.0,3.1587,3.277,3.5109,3.5109,3.5445,3.6131,3.6131,3.6948,3.8272,3.8947,3.8702,3.762,3.996,4.0971,4.0971,4.1729,4.2161,4.218,4.2446,4.254,4.254,4.254,4.254,4.254,4.254,4.254,4.254,4.254,4.254,4.254,4.254,4.254,4.254,4.254,4.254,4.254,4.254,4.254,4.254,4.254,4.2161,4.1781,4.1781,4.1781,4.1781,4.1781,4.1307,4.0889,4.0889,4.0395,3.9978,3.9978,3.9978,3.9883,3.9636,4.1594,4.3889,4.5877,4.8781,5.0418,5.0329,4.7783,4.6181,4.6406,4.5438,4.3271,3.9763,3.9332,3.9561,4.0267,4.1679,4.2521,4.3011,4.475,4.5965,4.6502,4.7592,4.8246,4.8246,4.8246,4.8246,0.8724,1.0192,1.1794,1.2247,1.395,1.576,1.6339,1.4512,1.2988,1.3706,1.5065,1.7424,2.2328,2.3014,2.3648,2.612,2.7022,2.7398,2.7398,0.0,0.0,0.0,0.0,0.0,0.0,0.0,0.0,0.0,0.0,0.0,0.0,2.9261,3.0263,3.2584,3.2755,3.3759,3.6131,3.6131,3.6131,3.6131,3.8272,3.7338,3.3727,3.5937,3.7021,3.7074,3.9958,4.1288,4.1364,4.2199,4.254,4.254,4.254,4.254,4.254,4.254,4.254,4.254,4.254,4.254,4.254,4.254,4.254,4.254,4.254,4.254,4.254,4.254,4.254,4.254,4.254,4.1288,3.9997,3.9997,3.9997,3.9997,3.9997,3.9997,3.9997,3.9997,3.9978,3.9978,3.9978,3.9978,3.9693,3.8858,4.1796,4.3807,4.2852,4.5965,4.8002,4.7295,4.7173,4.7318,4.8072,4.4773,4.1416,3.8471,3.7833,3.8318,4.0048,4.1781,4.2722,4.27,4.4727,4.6502,4.8121,4.8246,4.8246,4.8246,4.8246,4.8246,0.6405,0.7133,0.7783,0.7697,0.9441,1.1253,1.1418,1.0927,1.0972,1.2865,1.4901,1.7151,1.9971,2.0781,2.176,2.3863,2.4647,2.5499,2.7208,2.7541,0.0,0.0,0.0,0.0,0.0,0.0,0.0,0.0,0.0,0.0,0.0,2.7918,2.8239,2.9045,2.9045,2.9364,3.0177,3.0177,3.0821,3.2249,3.3046,3.2669,3.1632,3.3694,3.4654,3.4654,3.5688,3.5947,3.5964,3.6359,3.727,3.8876,4.0312,4.0794,4.0794,4.0794,4.0794,4.0794,4.0794,4.0794,4.0794,4.0794,4.0794,4.0794,4.0794,4.0794,4.0794,4.0794,4.0794,4.0794,4.0794,4.0376,3.9978,3.9978,3.9978,3.9978,3.9978,3.9522,3.9105,3.9105,3.8668,3.8269,3.8269,3.9238,3.9974,3.9696,4.2636,4.4804,4.4488,4.663,4.8149,4.7929,4.7905,4.7429,4.6327,4.5118,4.3476,4.1416,3.7835,3.6053,3.6571,3.72,3.7446,3.7446,3.9135,4.0406,4.0917,4.3226,4.4381,4.4381,4.5497,4.6001,0.4219,0.4942,0.5715,0.548,0.6138,0.6831,0.771,0.8632,0.9916,1.23,1.3867,1.5305,1.6415,1.7633,1.9178,2.1235,2.1953,2.2929,2.4259,2.4587,0.0,0.0,0.0,0.0,0.0,0.0,0.0,0.0,0.0,0.0,2.7385,2.7385,2.7385,2.7385,2.7385,2.7385,2.7385,2.7385,2.7788,2.8725,2.8725,2.8725,2.8739,3.1165,3.2215,3.223,3.3268,3.371,3.371,3.371,3.4481,3.5747,3.7158,3.7619,3.7773,3.8574,3.8879,3.9031,3.9808,3.9978,3.9978,3.9978,3.9978,3.9978,3.9978,3.9978,3.9978,3.9978,3.9978,3.9826,3.92,3.9048,3.9048,3.9048,3.9048,3.9048,3.9048,3.863,3.825,3.825,3.7833,3.7491,3.7491,3.8439,3.9,3.8662,4.1517,4.3614,4.3382,4.5425,4.7002,4.7002,4.7002,4.6217,4.4398,4.3742,4.2566,4.0741,3.8906,3.7514,3.6889,3.626,3.5887,3.5887,3.7018,3.8154,3.9399,4.153,4.2888,4.351,4.4483,4.4859,0.215,0.339,0.4651,0.4909,0.3535,0.3012,0.5248,0.715,0.8994,1.1386,1.2004,1.21,1.2,1.3858,1.6244,1.8281,1.9218,1.9623,1.978,0.0,2.0162,2.0192,0.0,0.0,0.0,0.0,0.0,0.0,2.7092,2.7092,2.7256,2.7269,2.7269,2.7269,2.7269,2.7269,2.7269,2.7269,2.6723,2.5684,2.5684,2.5684,2.5697,2.8348,2.9508,2.9552,3.2011,3.3078,3.3078,3.3078,3.3078,3.3236,3.3299,3.3473,3.3788,3.6041,3.6814,3.7069,3.926,3.9732,3.9562,3.9883,3.9883,3.9732,3.9883,3.9883,3.9864,3.9807,3.9788,3.9446,3.789,3.7491,3.7491,3.7491,3.7491,3.7491,3.7491,3.7453,3.7396,3.7396,3.7358,3.732,3.732,3.7461,3.7175,3.6394,3.9114,4.1005,4.0258,4.2985,4.4859,4.4859,4.4859,4.4365,4.2888,4.1262,3.9585,3.7692,4.0447,4.1426,3.9807,3.82,3.733,3.733,3.7202,3.8725,4.1927,4.2048,4.2891,4.4479,4.4596,4.4621,-0.1706,-0.1085,-0.042,0.0847,0.0862,0.1169,0.3248,0.4189,0.4958,0.7024,0.7504,0.7953,0.9336,1.0407,1.2361,1.6263,1.6829,1.7471,1.9153,1.9237,1.9216,1.9407,2.0013,2.0376,2.0729,2.1258,2.2222,2.3657,2.3826,2.4468,2.5918,2.6074,2.6074,2.6074,2.6074,2.6074,2.6074,2.6074,2.5944,2.5684,2.5684,2.5684,2.5684,2.6265,2.6626,2.6626,2.7225,2.7589,2.7589,2.7589,2.8487,3.0018,3.0543,3.1641,3.3386,3.5989,3.6481,3.6274,3.8233,3.7006,3.4997,3.8066,3.8085,3.7191,3.8548,3.901,3.8877,3.825,3.808,3.7985,3.7586,3.7491,3.7491,3.7491,3.7491,3.7491,3.7491,3.6979,3.6523,3.6523,3.601,3.5593,3.5593,3.6605,3.743,3.721,4.0099,4.217,4.2064,4.3749,4.4859,4.4859,4.4859,4.4718,4.4365,4.3986,4.2307,3.9084,3.839,3.7921,3.7568,3.6037,3.5332,3.5332,3.4167,3.4395,3.5907,3.7096,3.8406,3.9833,4.1184,4.2537,-0.2735,-0.19,-0.1122,-0.0271,0.0,0.0559,0.2368,0.2892,0.3405,0.5307,0.5774,0.6121,0.7175,0.8361,0.9948,1.2447,1.3467,1.4414,1.5591,1.5851,1.5953,0.0,0.0,1.7919,1.7965,1.9083,2.0302,2.1253,2.1409,2.1878,2.2992,2.2992,2.2992,2.2992,2.378,2.4257,2.4257,2.3741,2.3945,2.4866,2.4866,2.4866,2.4879,2.5139,2.5269,2.5282,0.0,2.5684,2.5684,2.5684,2.6259,2.7329,2.7661,2.8544,2.9787,3.1224,3.2034,3.2738,3.4819,3.4211,3.2855,3.5901,3.6212,3.5772,3.7559,3.8136,3.8061,3.7605,3.6941,3.6352,3.6352,3.6352,3.6352,3.6352,3.6352,3.6352,3.6352,3.5991,3.5669,3.5669,3.5308,3.5004,3.5004,3.5756,3.651,3.673,3.8384,3.9927,4.0928,4.1953,4.2781,4.3399,4.3488,4.3488,4.3488,4.3488,4.2277,3.9386,3.9092,3.8753,3.7912,3.6431,3.5276,3.4602,3.3901,3.3794,3.4408,3.5209,3.6743,3.8968,3.9802,4.0741,-0.259,-0.1073,0.0274,0.0383,0.0128,0.0393,0.1837,0.2093,0.2607,0.4169,0.4645,0.4891,0.514,0.6707,0.8038,0.8217,0.9727,1.0777,1.0777,1.1467,1.1851,1.1667,0.0,1.5523,1.5451,1.7398,1.8849,1.9161,1.9161,1.9317,1.9473,1.9629,1.9629,1.9629,2.1192,2.1811,2.1502,2.0961,2.1407,2.3031,2.3031,2.3031,2.3056,2.3519,2.4041,2.4363,0.0,2.5094,2.5412,2.5412,2.5412,2.5425,2.5503,2.5542,2.5542,2.5834,2.7218,2.9044,3.0695,3.1074,3.1237,3.3476,3.3945,3.4089,3.6273,3.6859,3.6821,3.6709,3.595,3.5004,3.5004,3.4909,3.4852,3.4985,3.4814,3.4663,3.4795,3.472,3.4625,3.4625,3.4625,3.4625,3.4625,3.4736,3.5116,3.5734,3.6189,3.7209,3.9071,3.9699,4.0501,4.1646,4.1779,4.1779,4.1779,4.1779,4.1041,3.9211,4.0463,4.068,3.9188,3.7805,3.6213,3.4531,3.4295,3.4258,3.44,3.44,3.5911,3.8661,3.8886,3.9021,-0.2894,-0.038,0.1782,0.1759,0.0897,0.0132,0.027,0.04,0.0524,0.0785,0.0788,0.1318,0.277,0.3495,0.4375,0.5896,0.6575,0.6814,0.6527,0.7858,0.8959,0.9254,1.1107,0.0,1.2813,1.3172,1.4101,1.5735,1.5894,1.6635,1.8267,1.8267,1.8267,1.8267,1.8564,1.7969,1.6335,1.7844,1.8658,1.8952,1.8952,1.8952,1.8952,1.9024,2.0073,2.1523,0.0,0.0,2.4178,2.4178,2.4178,2.423,2.4723,2.5068,2.5217,2.6674,2.7874,2.8685,2.8439,2.7235,2.6499,3.0231,3.0263,2.9701,3.3007,3.401,3.3868,3.3313,3.3936,3.5004,3.5004,3.4492,3.415,3.4852,3.3941,3.3106,3.3827,3.341,3.2916,3.2916,3.2916,3.2916,3.2916,3.3828,3.4725,3.4825,3.7113,3.8912,3.9227,4.0588,4.1537,4.1779,4.1779,4.1779,4.1779,4.1779,4.0867,3.8789,3.8896,3.8896,3.8668,3.8338,3.6945,3.4277,3.3091,3.2265,3.189,3.189,3.2674,3.4389,3.5616,3.6288,-0.0598,0.107,0.2266,0.2145,0.1099,0.0,0.0,0.0,0.0,0.0,0.0,0.0263,0.1067,0.1997,0.307,0.379,0.4873,0.5572,0.5654,0.6371,0.7089,0.702,0.8001,0.8653,0.0,0.8744,0.9254,1.0142,1.1205,1.2261,1.3144,1.4367,1.4979,1.4979,1.6011,1.5949,1.4671,1.5518,1.6625,1.7861,1.7861,1.799,1.807,1.807,1.8511,1.937,1.937,1.9965,2.0704,2.0704,2.0704,2.0872,2.2273,2.2809,2.2955,2.4863,2.5765,2.6103,2.5683,2.5022,2.4877,2.7553,2.7995,2.7711,3.0532,3.0944,3.0679,3.1395,3.2503,3.3676,3.3676,3.3391,3.3201,3.3581,3.3087,3.2631,3.3011,3.2802,3.2395,3.2395,3.3091,3.3679,3.3679,3.4821,3.5911,3.6204,3.6818,3.7643,3.8736,3.8877,3.9112,3.9894,3.9998,3.9998,3.9998,3.8973,3.7899,3.6874,3.6801,3.6801,3.6801,3.6801,3.62,3.4906,3.3252,3.1618,2.9879,3.0335,3.1328,3.2669,3.3431,3.3764,0.2557,0.0,0.2429,0.2214,0.1071,0.0,0.0,0.0,0.0,0.0,0.0,0.0,0.0,0.1061,0.197,0.1878,0.3039,0.4077,0.433,0.4502,0.4768,0.4941,0.5612,0.593,0.5678,0.591,0.5973,0.5973,0.7506,0.8412,0.8365,0.9915,1.0976,1.1361,1.2516,1.2707,1.2206,1.2337,1.3437,1.5546,1.5546,1.5857,1.6461,1.6461,1.6751,1.7187,1.7291,1.7475,1.7923,1.8031,1.807,1.8218,1.9662,2.0245,2.0536,2.2443,2.3175,2.3319,2.3762,2.3918,2.4192,2.5603,2.6013,2.6296,2.8228,2.8188,2.7779,2.9078,3.0653,3.1883,3.1883,3.2102,3.2271,3.248,3.2214,3.1986,3.2176,3.2062,3.1808,3.1808,3.3069,3.3954,3.3954,3.5424,3.6865,3.735,3.6783,3.6763,3.7966,3.7196,3.6798,3.7679,3.7753,3.7753,3.7753,3.6313,3.5386,3.5386,3.5386,3.5386,3.5386,3.5386,3.5386,3.5386,3.3649,3.1799,2.9762,2.9809,3.0458,3.1734,3.1734,3.1746,0.0,0.4405,0.2161,0.2099,0.1123,0.0,0.0,0.0,0.0,0.0,0.0,0.0,0.0,0.0131,0.0131,0.0131,0.0262,0.0397,0.0408,0.0411,0.1107,0.3109,0.4964,0.5958,0.5947,0.5954,0.5961,0.5961,0.6093,0.6259,0.6252,0.639,0.7266,0.8931,0.7512,0.6657,0.663,0.663,0.7477,0.945,0.945,1.0168,1.1753,1.1753,1.2717,0.0,1.4739,1.5892,1.7785,1.7903,1.807,1.807,1.8218,1.8218,1.8501,2.0536,2.1262,2.1407,2.3319,2.3918,2.3918,2.4062,2.4049,2.4478,2.6296,2.6133,2.5295,2.5411,2.7805,3.03,3.03,3.0885,3.1511,3.2328,3.1303,3.0354,3.1151,3.0695,3.0145,3.0145,3.1237,3.2242,3.2242,3.4579,3.6355,3.6494,3.7444,3.8017,3.7119,3.6997,3.6512,3.5727,3.5605,3.5605,3.5605,3.5459,3.5386,3.5386,3.5386,3.5386,3.5386,3.5386,3.5386,3.5386,3.394,3.3061,3.287,3.0526,2.9819,3.0606,3.0884,3.0686,0.5254,0.3877,0.2335,0.2196,0.1113,0.0,0.0,0.0,0.0,0.0,0.0,-0.0262,-0.1437,-0.1566,-0.1958,-0.3129,-0.326,-0.3272,-0.3307,-0.3227,-0.2998,-0.2199,-0.1395,-0.0986,0.0,-0.0986,-0.0564,0.0564,0.1849,0.2992,0.4098,0.5417,0.5192,0.3349,0.3623,0.4432,0.5504,0.5504,0.5957,0.6878,0.6878,0.7216,0.8038,0.8038,0.9014,1.0823,1.0931,1.1969,0.0,1.3814,1.3877,1.4011,1.5139,1.5705,1.5837,1.7796,1.9202,2.0198,2.104,2.188,2.2854,2.2854,2.2854,2.2991,2.366,2.3619,2.3447,2.4065,2.6254,2.8607,2.8607,2.9473,3.0524,3.0847,3.0429,3.005,3.0373,3.0326,3.0252,3.0252,3.1662,3.2793,3.2793,3.4431,3.5767,3.5767,3.6175,3.6411,3.6044,3.5996,3.5825,3.5434,3.5386,3.4824,3.3458,3.3336,3.3336,3.3336,3.3336,3.3336,3.3336,3.3336,3.3336,3.3336,3.2101,3.1689,3.2287,3.0457,2.9684,2.9801,2.9904,2.9339,0.3797,0.2747,0.1643,0.1487,0.0752,0.0,0.0,-0.0385,-0.0783,-0.0776,-0.1299,-0.1959,-0.3127,-0.3386,-0.3773,-0.5075,-0.5205,-0.5205,-0.5205,-0.5291,-0.522,-0.522,-0.5307,-0.5231,0.0,0.0,-0.4682,-0.3442,-0.2217,-0.0832,0.0413,0.2218,0.1772,-0.156,0.0,0.1561,0.273,0.3256,0.3946,0.4686,0.4686,0.5005,0.5784,0.5784,0.6466,0.7699,0.7764,0.835,0.9473,0.9551,1.0004,1.0563,1.1935,1.2767,1.3466,1.5523,1.689,1.8124,1.9229,2.0453,2.1391,2.1938,2.2204,2.2204,2.2204,2.1958,2.184,2.2541,2.4782,2.703,2.7495,2.8779,2.9898,2.9632,2.9575,2.9499,2.9234,2.935,2.9682,3.0102,3.1482,3.2779,3.3161,3.4455,3.5386,3.5386,3.5386,3.5264,3.4922,3.4873,3.4751,3.4385,3.4361,3.3751,3.2237,3.2115,3.2115,3.2115,3.2115,3.2115,3.2115,3.2115,3.2115,3.2115,3.1286,3.1214,3.1789,3.0915,2.997,2.915,2.9321,2.8709,0.2457,0.1306,0.0,0.0,0.0,0.0,0.0,-0.1408,-0.2585,-0.2517,-0.3959,-0.5198,-0.5198,-0.5328,-0.5328,-0.5331,-0.5331,-0.5331,-0.5335,-0.5335,-0.5335,-0.5335,-0.5335,-0.5335,-0.5331,-0.5331,-0.5335,-0.5335,-0.5341,0.0,-0.5212,-0.3607,-0.3349,-0.5208,-0.3516,-0.2605,-0.2605,-0.0915,0.0785,0.2475,0.2475,0.3386,0.5205,0.5205,0.5205,0.5212,0.5494,0.5559,0.0,0.5864,0.7043,0.8724,0.8724,0.9708,1.1539,1.3458,1.414,1.469,1.8249,1.9623,1.9892,2.1512,2.2058,2.2058,2.2058,2.1412,2.0529,2.0652,2.2791,2.5641,2.7164,2.8779,2.9746,2.8911,2.8721,2.8493,2.7553,2.7468,2.7779,2.9112,3.0557,3.1911,3.302,3.4432,3.5361,3.5361,3.5361,3.4971,3.3897,3.3775,3.3336,3.2213,3.2115,3.2115,3.2115,3.2115,3.2115,3.2115,3.2115,3.2115,3.2115,3.2115,3.2115,3.2115,3.2115,3.2115,3.2115,3.2008,3.0885,2.8592,2.9344,2.8851,0.0779,0.0393,-0.0262,-0.1436,-0.1827,-0.2072,-0.3148,-0.3774,-0.414,-0.3777,-0.4144,-0.4901,-0.6252,-0.7329,-0.8472,-1.0027,-1.1164,-1.1984,-1.248,-1.2512,-1.2512,-1.2512,-1.2512,-1.2003,-1.0862,-1.0741,-0.9716,-0.7153,-0.7077,-0.6559,-0.5335,-0.5902,-0.6429,-0.7028,-0.5335,-0.4426,-0.4426,-0.3908,-0.2735,-0.1042,-0.1042,-0.013,0.1568,0.1568,0.2219,0.3386,0.3416,0.4219,0.0,0.545,0.5733,0.6264,0.6264,0.733,0.8925,0.9448,1.1284,1.3515,1.4547,1.5721,1.7019,1.8704,1.9225,1.9225,1.9225,1.9011,1.9022,2.027,2.1239,2.2307,2.3948,2.5945,2.7536,2.7719,2.7848,2.7791,2.7421,2.8269,2.9156,2.9562,3.0892,3.1977,3.2327,3.2784,3.3067,3.3067,3.3067,3.297,3.2652,3.2604,3.2482,3.214,3.2115,3.2115,3.2115,3.2115,3.2115,3.2115,3.2115,3.2115,3.2115,3.2115,3.2115,3.2115,3.2115,3.2115,3.2115,3.1202,3.0495,2.9803,2.8381,2.748,0.0,-0.0523,-0.1306,-0.2216,-0.2973,-0.3689,-0.4697,-0.5278,-0.5599,-0.5424,-0.6381,-0.7501,-0.8694,-0.9977,-1.1485,-1.307,-1.3981,-1.4853,-1.5417,-1.5602,-1.5602,-1.5602,-1.5602,-1.5098,-1.4077,0.0,-1.318,-1.1004,-1.0242,-0.9716,-0.9313,-0.949,-0.9573,-0.9573,-0.721,-0.5915,-0.5915,-0.5284,-0.4279,-0.3274,-0.3274,-0.2791,-0.1928,-0.1928,-0.1033,0.0521,0.0521,0.1563,0.0,0.3129,0.3518,0.4166,0.4166,0.5205,0.6765,0.6765,0.8569,1.1011,1.1643,1.3053,1.4836,1.6492,1.6618,1.6231,1.6869,1.713,1.738,1.9146,1.9834,2.0475,2.2135,2.4308,2.6164,2.6771,2.6994,2.6899,2.6576,2.7603,2.8661,2.9144,3.0388,3.1564,3.2032,3.2115,3.2115,3.2115,3.2115,3.2115,3.2115,3.2115,3.2115,3.2115,3.2811,3.333,3.333,3.333,3.333,3.333,3.2949,3.2729,3.2729,3.2258,3.2115,3.2115,3.2115,3.2115,3.2115,3.1371,3.0581,2.9606,2.8213,2.7058,-0.0524,-0.1567,-0.2863,-0.2986,-0.4073,-0.508,-0.5273,-0.6417,-0.7418,-0.7302,-0.9742,-1.1825,-1.1792,-1.2958,-1.4142,-1.4641,-1.4979,-1.5391,-1.5858,-1.6075,-1.6221,-1.598,-1.598,-1.598,-1.5854,-1.5728,-1.5728,-1.5602,-1.4077,-1.3932,-1.5668,-1.3666,-1.2602,-1.2602,-0.9293,-0.7511,-0.7398,-0.5727,-0.4775,-0.4537,-0.4537,-0.4606,-0.4853,-0.4853,-0.4044,-0.2725,-0.2725,-0.1824,0.0,-0.0262,0.0784,0.2346,0.2346,0.3386,0.4945,0.4945,0.6113,0.78,0.933,1.0997,1.2799,1.4574,1.3941,1.2799,1.4583,1.5195,1.5668,1.7438,1.8624,1.9568,2.1232,2.3349,2.5156,2.5704,2.5979,2.595,2.519,2.5993,2.7129,2.8303,2.9519,3.0667,3.184,3.2115,3.2115,3.2174,3.2174,3.2258,3.2341,3.2341,3.2341,3.2341,3.4104,3.5245,3.5195,3.5195,3.5195,3.5195,3.4261,3.3812,3.3812,3.2811,3.2174,3.2174,3.2174,3.2174,3.2115,3.2091,3.0946,2.8748,2.8481,2.7262,-0.4169,-0.4426,-0.4917,-0.6072,-0.6631,-0.7129,-0.8045,-0.9297,-1.0214,-0.9989,-1.1733,-1.3147,-1.2715,-1.4118,-1.5507,-1.5618,-1.7949,-1.9571,-1.8907,-2.0287,-2.0928,-1.9628,-1.9517,-1.901,-1.7641,-1.7505,0.0,-1.5602,-1.5224,-1.5568,-1.6675,-1.4671,-1.3508,-1.3508,-1.2717,-1.1858,-1.0703,-1.0226,-0.8806,-0.6448,-0.6448,-0.575,-0.4343,-0.4343,-0.4415,-0.4414,-0.4414,-0.3449,-0.1956,-0.1956,-0.1045,0.0523,0.0523,0.1566,0.3125,0.3125,0.4296,0.5854,0.6238,0.7403,0.9214,1.0869,1.0229,0.9214,1.0862,1.2219,1.3752,1.6532,1.7269,1.7679,1.9085,2.0405,2.1464,2.2642,2.4133,2.5247,2.5076,2.5993,2.7129,2.8303,2.9519,3.0667,3.184,3.2115,3.2341,3.3193,3.3249,3.3572,3.4419,3.4497,3.4497,3.4497,3.5544,3.5994,3.5245,3.5195,3.5195,3.5195,3.4964,3.4886,3.4886,3.3891,3.3249,3.3249,3.3249,3.2868,3.2115,3.1935,3.1215,2.9867,2.8012,2.6946,-0.5122,-0.5611,-0.6454,-0.7007,-0.8199,-0.9447,-1.0069,-1.109,-1.1993,-1.1778,-1.3079,-1.4449,-1.469,-1.6231,-1.7779,-1.8681,-2.0374,-2.1495,-2.1161,-2.2093,-2.2649,-2.23,-2.2225,-2.1743,-2.0548,-2.0451,-1.9714,-1.8117,-1.7992,-1.8259,-1.8859,-1.7744,-1.6473,-1.491,-1.3911,-1.3026,-1.2257,-1.2257,-1.1348,-0.9772,-0.9772,-0.9384,-0.858,-0.7901,-0.7337,-0.6825,-0.6231,-0.493,-0.3375,-0.3375,-0.2379,-0.1006,-0.102,-0.0128,0.1282,0.1299,0.2478,0.3906,0.3906,0.5072,0.6602,0.6541,0.6614,0.6747,0.7602,0.8879,1.058,1.2928,1.3833,1.4664,1.6835,1.8027,1.8922,2.0274,2.2316,2.3995,2.3995,2.5468,2.7129,2.8303,2.9519,3.0667,3.184,3.2482,3.3031,3.3572,3.4024,3.4575,3.5118,3.673,3.7843,3.7843,3.8328,3.8397,3.7913,3.7843,3.7472,3.6466,3.5887,3.5136,3.411,3.3062,3.2491,3.2491,3.2491,3.2264,3.1678,3.1241,3.0511,2.9367,2.772,2.6577,-0.6105,-0.7049,-0.8095,-0.8098,-0.9942,-1.1641,-1.1581,-1.2611,-1.3521,-1.3521,-1.5011,-1.6673,-1.7653,-1.8873,-2.032,-2.2141,-2.2673,-2.2867,-2.3015,-2.3426,-2.3634,-2.3794,-2.3842,-2.3593,-2.2964,-2.289,0.0,0.0,-2.093,-2.1033,-2.0988,-2.1024,-1.9756,-1.6921,-1.5184,-1.4032,-1.3521,-1.3322,-1.3122,-1.2807,-1.2807,-1.2982,-1.3313,-1.2116,-1.0964,-0.9757,-0.8382,0.0,-0.5125,-0.4894,-0.3822,-0.2518,-0.2459,-0.1616,-0.0374,-0.0384,0.0644,0.2055,0.2055,0.321,0.4457,0.2676,0.3349,0.4781,0.4781,0.5833,0.7337,0.9291,1.0234,1.1556,1.486,1.613,1.6997,1.8659,2.0921,2.2676,2.2869,2.4773,2.6967,2.8303,2.9519,3.0667,3.184,3.2949,3.3732,3.3891,3.4937,3.5749,3.5899,3.9005,4.1171,4.114,4.098,4.0914,4.0734,4.0454,3.9559,3.7721,3.6765,3.5436,3.3581,3.2508,3.1967,3.1967,3.1967,3.1831,3.1693,3.1094,3.0117,2.8823,2.7738,2.6536,-1.0777,-1.0887,-1.1382,-1.226,-1.2795,-1.3004,-1.2652,-1.4585,-1.6372,-1.6372,-1.9351,-2.2002,-2.1632,-2.2116,-2.2981,-2.4288,-2.5402,-2.5768,-2.4421,-2.5872,-2.5935,-2.33,-2.2938,-2.2876,-2.2735,-2.275,-2.264,-2.2419,-2.2419,-2.2299,-2.1853,-2.1821,-2.1388,-2.0383,-2.0061,-1.8789,-1.636,-1.5289,-1.4064,-1.2807,-1.2807,-1.2836,-1.2884,-1.2682,-1.2677,-1.2721,-1.1277,-0.9842,-0.8429,-0.7151,-0.5612,-0.3944,-0.396,-0.3127,-0.1807,-0.1815,-0.0969,0.0364,0.0364,0.1454,0.2659,0.0841,0.1437,0.2871,0.2871,0.3987,0.5729,0.8434,0.9113,0.9847,1.4024,1.5163,1.592,1.8472,2.0145,2.1607,2.2676,2.4186,2.5919,2.8145,2.9519,3.0667,3.184,3.2949,3.3945,3.4809,3.6539,3.7971,3.8758,4.1106,4.2579,4.2351,4.1847,4.1139,4.0386,3.9072,3.7996,3.7227,3.7062,3.6698,3.6101,3.5062,3.4516,3.4516,3.4516,3.4086,3.3111,3.3382,3.2531,3.0725,2.9021,2.7232,-1.2646,-1.2697,-1.2719,-1.297,-1.3723,-1.4406,-1.5001,-1.6691,-1.8329,-1.9004,-2.1088,-2.3059,-2.4425,-2.4739,-2.5489,-2.7516,-2.781,-2.7614,-2.688,-2.7025,-2.6752,-2.5824,-2.5145,-2.4528,-2.409,-2.4016,-2.3677,0.0,-2.3562,-2.3576,-2.26,-2.2484,-2.2036,-2.1035,-2.1019,-2.0411,-1.9204,-1.7925,-1.6934,-1.6307,-1.5611,-1.522,-1.522,-1.4377,-1.4171,-1.4257,-1.2757,-1.132,-1.0007,-0.9353,-0.7677,-0.5441,-0.554,-0.4652,-0.3382,-0.3324,-0.2989,-0.2273,-0.1437,-0.1285,-0.1245,-0.1248,-0.1247,-0.1019,0.0568,0.1571,0.2542,0.4638,0.6225,0.7976,1.0626,1.1918,1.3301,1.6114,1.7722,1.9104,2.0427,2.2403,2.4433,2.6151,2.8572,3.0667,3.184,3.3411,3.486,3.577,3.7591,3.9569,4.153,4.3359,4.4513,4.4625,4.3562,4.2626,4.2228,4.074,3.9257,3.7775,3.7628,3.6936,3.5494,3.4598,3.4126,3.4126,3.3794,3.3601,3.3418,3.2909,3.2108,3.1051,2.899,2.7094,-1.39,-1.3809,-1.3943,-1.4338,-1.5197,-1.632,-1.7695,-1.9018,-2.0344,-2.1313,-2.2768,-2.4389,-2.6456,-2.6945,-2.7764,-3.0235,-2.9827,0.0,-2.9219,-2.8462,-2.7988,-2.8101,-2.7402,-2.6612,-2.6082,-2.5748,0.0,0.0,-2.5317,-2.5319,-2.4017,-2.3922,-2.3349,-2.2128,-2.2031,-2.1917,-2.1509,-2.0542,-1.9862,-1.9563,-1.8587,-1.8108,-1.8095,-1.6653,-1.6036,-1.592,-1.4158,-1.2797,-1.1725,-1.0976,-0.9383,-0.7481,-0.7233,-0.6181,-0.4851,-0.4853,-0.4546,-0.4197,-0.3499,-0.3956,-0.4554,-0.3147,-0.3364,-0.3905,-0.174,-0.0868,-0.0217,0.1193,0.3359,0.5734,0.7531,0.9036,1.0756,1.3291,1.5448,1.7188,1.8242,2.0806,2.3331,2.4642,2.7568,3.0237,3.1395,3.3626,3.5598,3.6775,3.8737,4.1009,4.3724,4.527,4.6273,4.6697,4.4922,4.369,4.369,4.1653,3.9689,3.8094,3.7736,3.6835,3.5273,3.4694,3.4373,3.4369,3.4015,3.3963,3.4317,3.3168,3.2338,3.1656,2.95,2.7426,-1.485,-1.4839,-1.5543,-1.8067,-1.8775,-1.9162,-2.0526,-2.1802,-2.2772,-2.2869,-2.5416,-2.778,-2.7876,-2.8834,-3.017,-3.1875,-3.1482,-3.0978,-3.0978,-3.0901,-3.033,-2.8763,-2.8479,-2.8411,-2.8432,-2.7365,0.0,-2.8252,0.0,-2.7854,-2.6672,-2.6672,-2.6066,-2.4925,-2.483,-2.4222,-2.2869,-2.2772,-2.2094,-2.0936,-2.0822,-2.0822,-2.0723,-1.9463,-1.8875,-1.8674,-1.6023,-1.4805,-1.4585,-1.183,-1.0561,-1.0348,-0.9105,-0.7714,-0.63,-0.631,-0.5448,-0.4467,-0.5769,-0.6192,-0.6066,-0.4659,-0.4227,-0.4227,-0.4122,-0.3147,-0.1736,-0.0325,0.1193,0.3036,0.581,0.7632,0.9022,1.0585,1.4028,1.6971,1.6971,2.0167,2.3331,2.4642,2.6885,2.9014,3.0214,3.3067,3.5824,3.7761,4.0116,4.2581,4.5219,4.6604,4.7521,4.8052,4.5359,4.3585,4.3585,3.9832,3.7597,3.772,3.7019,3.6748,3.6985,3.6961,3.6922,3.694,3.6906,3.6866,3.674,3.6058,3.4982,3.3465,3.1225,2.8806,-1.8818,-1.8818,-1.9033,-2.0046,-2.0244,-2.064,-2.19,-2.2579,-2.3445,-2.5055,-2.6776,-2.8697,-3.103,-3.18,-3.2686,-3.4815,-3.4311,-3.3531,-3.2809,-3.2024,-3.1151,-2.9871,-2.9014,-2.857,0.0,0.0,0.0,-2.9693,-2.9014,-2.8392,-2.7944,-2.7944,-2.7785,-2.7353,-2.7353,-2.7038,-2.6611,-2.6519,-2.5483,-2.3487,-2.1786,-2.1019,-2.1019,-2.0526,-2.0244,-2.0244,-1.8357,-1.7023,-1.6077,-1.424,-1.2892,-1.1954,-1.0569,-0.9604,-0.9063,-0.8227,-0.7583,-0.7261,-0.7691,-0.7911,-0.7697,-0.6174,-0.6286,-0.6825,-0.4875,-0.4554,-0.4551,-0.314,-0.1082,0.0973,0.205,0.3992,0.6365,0.8803,1.0488,1.2272,1.5059,1.7492,1.9939,2.2956,2.4979,2.7046,2.9845,3.1837,3.4391,3.827,4.1491,4.4342,4.65,4.7606,4.8373,4.8899,4.6742,4.5132,4.4724,4.0918,3.8376,3.7995,3.6369,3.5445,3.5487,3.5421,3.536,3.5387,3.5968,3.6307,3.6436,3.638,3.6038,3.5448,3.3502,3.1478,-2.1552,-2.1488,-2.1523,-2.1575,-2.1705,-2.1997,-2.3385,-2.394,-2.4773,-2.6488,-2.8116,-3.0036,-3.2491,-3.3481,-3.4429,-3.5924,-3.56,-3.4809,-3.3812,-3.2955,-3.2052,-3.1008,-3.0237,0.0,0.0,0.0,0.0,-3.1468,-3.0705,-2.9931,-2.919,-2.9168,-2.9014,-2.8592,-2.857,-2.857,-2.857,-2.857,-2.7743,-2.6131,-2.3962,-2.293,-2.293,-2.2078,-2.1705,-2.1607,-2.0244,-1.9133,-1.8186,-1.6397,-1.5071,-1.4032,-1.2146,-1.1408,-1.1196,-0.9938,-0.9732,-1.0052,-0.9519,-0.9412,-0.9198,-0.7691,-0.7911,-0.8347,-0.6394,-0.607,-0.6291,-0.5315,-0.325,-0.1408,-0.1407,0.0649,0.3351,0.5274,0.6773,0.8697,1.2109,1.4589,1.7096,2.0188,2.2651,2.5239,2.855,3.0224,3.2814,3.76,4.1074,4.3919,4.6351,4.7819,4.8795,4.9126,4.7159,4.5508,4.4822,4.0954,3.8109,3.689,3.4495,3.3141,3.3041,3.2572,3.2632,3.3338,3.398,3.4329,3.447,3.4636,3.47,3.4668,3.3186,3.2068,-2.2654,-2.2474,-2.2616,-2.3061,-2.3157,-2.3499,-2.4906,-2.6105,-2.6896,-2.6946,-2.9625,-3.1945,-3.2003,-3.3788,-3.5271,-3.5271,-3.5271,-3.4886,-3.3891,-3.3732,-3.333,-3.2258,-3.2174,-3.2174,0.0,-3.4024,-3.4731,-3.3732,-3.3652,-3.2711,-3.0534,-3.0449,-2.9954,-2.8837,-2.8748,-2.8748,-2.8748,-2.8748,-2.8748,-2.857,-2.7492,-2.6946,-2.6763,-2.4283,-2.3061,-2.2965,-2.1607,-2.1019,-2.0822,-1.8186,-1.6971,-1.6666,-1.4032,-1.2912,-1.2701,-1.1408,-1.1725,-1.2692,-1.1302,-1.0765,-1.0561,-0.9305,-0.8884,-0.8891,-0.8783,-0.7816,-0.6743,-0.6521,-0.5439,-0.4348,-0.4338,-0.2273,-0.0108,0.0,0.323,0.6666,0.8171,1.1695,1.5,1.6539,1.9908,2.3415,2.6051,2.8419,3.1365,3.5829,3.861,4.1405,4.4662,4.7256,4.8769,4.876,4.6436,4.4593,4.3782,3.9788,3.6417,3.4365,3.146,2.9856,2.9741,2.8606,2.8915,3.0938,3.1012,3.0952,3.0871,3.0871,3.0836,3.0836,3.0098,3.0326,-2.5474,-2.6013,-2.6574,-2.6927,-2.7563,-2.8081,-2.766,-2.8476,-2.9468,-3.0283,-3.1251,-3.2579,-3.4961,-3.5927,-3.6577,-3.7335,-3.7407,-3.7089,-3.6029,-3.5879,-3.5271,-3.3411,-3.3891,-3.434,-3.434,-3.4886,-3.5041,-3.4809,-3.4731,-3.4471,-3.3867,-3.3893,-3.3709,-3.3364,-3.3364,-3.2986,-3.2218,-3.2986,-3.2144,-2.9867,-3.0254,-2.9648,-2.8034,-2.736,-2.6539,-2.5615,-2.3331,-2.2386,-2.2289,-2.0593,-1.9318,-1.8242,-1.6487,-1.5162,-1.4481,-1.5036,-1.5437,-1.5448,-1.3092,-1.227,-1.2165,-1.1848,-1.1752,-1.1531,-1.0439,-1.0553,-1.0683,-0.8669,-0.7786,-0.712,-0.6061,-0.4439,-0.2597,-0.0541,0.0864,0.2693,0.6233,0.8676,1.0981,1.3356,1.6348,1.968,2.3194,2.6536,3.0152,3.4506,3.7766,4.1115,4.4785,4.7056,4.8322,4.8231,4.6383,4.4758,4.3693,3.959,3.6293,3.4484,3.055,2.7285,2.521,2.4379,2.4019,2.4141,2.4376,2.4813,2.5319,2.5342,2.5303,2.521,2.5609,2.6303,-2.8394,-2.8634,-2.8718,-2.863,-2.8984,-2.9358,-2.8701,-2.9791,-3.1058,-3.1732,-3.2961,-3.447,-3.6402,-3.7089,-3.7579,0.0,-3.8274,-3.7963,-3.6871,-3.6724,-3.6104,-3.4497,-3.5577,-3.6327,-3.5879,-3.6253,-3.6327,-3.5879,-3.5804,-3.5652,-3.5195,-3.5195,-3.5195,-3.5195,-3.5195,-3.4886,-3.4261,-3.4886,-3.4209,-3.2333,-3.2473,-3.1871,-3.0526,-2.9625,-2.8837,-2.8016,-2.5669,-2.4585,-2.4396,-2.2562,-2.1313,-2.0526,-1.9204,-1.82,-1.7621,-1.8301,-1.8588,-1.8186,-1.5448,-1.4541,-1.4333,-1.3217,-1.2787,-1.2653,-1.1881,-1.2128,-1.2481,-1.0871,-0.9999,-0.9248,-0.8416,-0.6702,-0.4875,-0.3135,-0.1839,0.0,0.3015,0.5806,0.8259,1.0553,1.321,1.6411,2.0341,2.367,2.7787,3.3528,3.7427,4.0816,4.4203,4.6724,4.7905,4.7119,4.6479,4.504,4.2361,3.8854,3.5418,3.2266,2.8236,2.4871,2.2257,2.0284,1.9268,1.9345,1.9378,1.9346,1.9065,1.8807,1.8866,1.9161,1.8852,1.7645,-3.0697,-3.0361,-2.9708,-2.9302,-2.9257,-2.9301,0.0,-3.0923,-3.2399,-3.244,-3.4703,-3.6798,-3.6871,-3.765,-3.8274,-3.8274,-3.8274,-3.7963,-3.7017,-3.6944,-3.6623,-3.5776,-3.735,-3.8216,-3.7278,-3.8046,-3.8216,-3.7278,-3.7206,-3.6815,-3.5899,-3.5674,-3.5701,-3.5701,-3.5549,-3.5501,-3.5348,-3.5501,-3.5424,-3.5168,-3.4235,-3.3711,-3.3552,-3.1633,-3.0565,-3.0224,-2.8216,-2.722,-2.6855,-2.4378,-2.3253,-2.3061,-2.1705,-2.1313,-2.1411,-2.1313,-2.1215,-2.0806,-1.8287,-1.7378,-1.6971,-1.4541,-1.3688,-1.3542,-1.3314,-1.3261,-1.3207,-1.2938,-1.1986,-1.1057,-1.0765,-0.8957,-0.7142,-0.6717,-0.4659,-0.2384,-0.065,0.3015,0.6345,0.7745,1.0642,1.3989,1.7778,2.0907,2.5322,3.2883,3.7346,4.0864,4.3611,4.6281,4.747,4.6064,4.6392,4.4961,4.0634,3.7652,3.3913,2.9019,2.5513,2.2581,2.023,1.6552,1.5008,1.6141,1.505,1.3823,1.2357,1.1485,1.1465,1.2332,1.0632,0.6468,0.0,0.0,0.0,0.0,0.0,0.0,0.0,-3.4915,-3.5817,-3.5788,-3.6327,-3.7017,-3.7793,-3.8175,-3.8274,-3.8274,-3.8274,-3.8175,-3.8034,-3.7963,-3.8116,-3.8583,-3.9589,-4.0234,-4.0075,-4.0234,-4.0234,-4.0075,-4.001,-3.9915,-3.9755,-3.9028,-3.8622,-3.8622,-3.8017,-3.7262,-3.6402,-3.7262,-3.6871,-3.5195,-3.5776,-3.5674,-3.4833,-3.4418,-3.3203,-3.1479,-3.1059,-2.9908,-2.8124,-2.6651,-2.541,-2.4359,-2.3044,-2.3307,-2.4127,-2.2983,-2.2579,-2.2386,-2.0708,-2.0214,-2.0114,-1.9603,-1.8717,-1.7668,-1.6462,-1.6183,-1.5841,-1.3459,-1.3479,-1.3615,-1.1302,-1.1196,-1.0773,-0.7244,-0.6911,-0.6248,-0.2493,0.0756,0.3341,0.4864,0.9263,1.3803,1.6741,2.1181,2.6241,3.2053,3.77,4.2149,4.4798,4.6043,4.6806,4.7193,4.4969,4.2618,4.0391,3.5682,3.1511,2.8481,2.4924,2.1214,1.7493,1.443,1.3241,1.3867,0.8644,0.5849,0.5738,0.3247,0.2062,0.2087,0.2712,-0.206,0.0,0.0,0.0,0.0,0.0,0.0,0.0,0.0,0.0,0.0,0.0,-3.765,-3.8175,0.0,-3.8454,-3.8808,-3.8563,-3.8454,-3.8808,-3.8876,-3.9185,-4.001,-4.0552,-4.0803,-4.0803,-4.0803,-4.0803,-4.0803,-4.0803,-4.0803,-4.0803,-4.0425,-4.0139,-4.0139,-3.9781,-3.9318,-3.8758,-3.9318,-3.899,-3.8012,-3.807,-3.779,-3.7264,-3.6374,-3.537,-3.4235,-3.3788,-3.2226,-3.0168,-2.9625,-2.7927,-2.5894,-2.5781,-2.6191,-2.6712,-2.5986,-2.541,-2.466,-2.3409,-2.2545,-2.19,-2.1215,-2.0526,-1.9732,-1.8389,-1.8072,-1.7674,-1.5587,-1.4978,-1.4585,-1.3207,-1.2787,-1.206,-0.9277,-0.797,-0.6671,-0.3791,0.0216,0.3675,0.5071,0.9446,1.3864,1.7205,2.3412,2.9672,3.482,3.9395,4.2981,4.4951,4.651,4.6573,4.4373,4.2772,4.0838,3.8208,3.3917,3.0742,2.9132,2.4471,2.026,1.6853,1.4074,1.2509,1.2371,0.6766,0.3279,0.1943,-0.2399,-0.4589,-0.4792,-0.4747,-0.7914,0.0,0.0,0.0,0.0,0.0,0.0,0.0,0.0,0.0,0.0,0.0,0.0,0.0,0.0,0.0,-3.9288,-3.8944,-3.8838,-3.9619,-3.9881,-4.0203,-4.0989,-4.1205,-4.1327,-4.1327,-4.1327,-4.1327,-4.1327,-4.1327,-4.1327,-4.1327,-4.1143,-4.1082,-4.1082,-4.0865,-4.0803,-4.0803,-4.0803,-4.0803,-4.0834,0.0,0.0,-3.9685,-3.8169,-3.735,-3.6988,-3.6151,-3.4496,-3.2497,-3.2497,-3.0612,-2.7901,-2.8815,-2.9256,-2.9168,-2.8748,-2.7944,-2.6946,-2.5689,-2.4566,-2.3445,-2.2209,-2.1624,-2.1215,-2.0145,-1.9663,0.0,-1.7803,-1.6665,-1.5623,-1.5117,-1.4273,-1.3112,-1.1196,-0.8916,-0.6666,-0.4655,0.0216,0.4749,0.6437,1.0641,1.5193,1.9092,2.6574,3.3336,3.7363,4.1139,4.377,4.4463,4.67,4.6539,4.2238,4.141,3.9777,3.6418,3.2796,3.0263,2.9331,2.3781,1.925,1.646,1.3549,1.1745,1.126,0.6473,0.267,-0.0,-0.5315,-0.8354,-0.9362,-1.1086,-1.2339,0.0,0.0,0.0,0.0,0.0,0.0,0.0,0.0,0.0,0.0,0.0,0.0,0.0,0.0,0.0,0.0,-3.9355,-3.9619,-4.0552,-4.1295,-4.1716,-4.1834,-4.2568,-4.3059,-4.3059,-4.3059,-4.3059,-4.3059,-4.3059,-4.3059,-4.3059,0.0,0.0,0.0,0.0,-4.0803,-4.0803,-4.0803,-4.0803,-4.0803,-4.074,-4.0678,-4.0678,-4.0458,-3.9493,-3.793,-3.786,-3.6686,-3.4782,-3.4782,-3.3469,-3.1336,-3.142,-3.1527,-3.1275,-2.9344,-2.8503,-2.8213,-2.7038,0.0,0.0,-2.4981,-2.3804,-2.2676,-2.2579,-2.1705,-2.0542,-1.9177,-1.8674,-1.8067,-1.5623,-1.575,-1.5635,-1.161,-1.0407,-0.9107,-0.5083,0.0215,0.5017,0.7661,1.3426,1.9175,2.2966,3.0023,3.5333,3.6002,4.1575,4.5139,4.3564,4.5327,4.6514,4.604,4.2923,0.0,3.768,3.2844,2.9036,2.7131,2.2252,1.7941,1.462,1.1053,0.9545,1.0371,0.5608,0.2032,-0.0,-0.3233,-0.7008,-1.1222,-1.4728,-1.5459,0.0,0.0,0.0,0.0,0.0,0.0,0.0,0.0,0.0,0.0,0.0,0.0,0.0,0.0,0.0,0.0,-3.9816,-4.0139,-4.2016,-4.26,-4.277,-4.277,-4.3115,-4.3465,-4.3789,-4.3808,-4.3963,-4.4366,-4.4366,-4.4366,-4.4366,-4.4015,-4.3623,-4.3234,-4.293,-4.2733,-4.2733,-4.2733,-4.2952,-4.3261,-4.2478,-4.2088,-4.1998,-4.1203,-4.0139,-3.8923,-3.8923,-3.786,-3.6104,-3.6104,-3.5141,-3.3947,0.0,0.0,0.0,0.0,-3.1646,-3.0425,-2.9972,-2.8947,-2.7764,-2.7262,-2.6672,-2.5947,-2.4548,-2.3695,-2.2834,-2.0723,-2.0145,-1.9747,-1.7851,-1.7138,-1.6102,-1.2777,-0.9984,-0.7295,-0.3774,0.1501,0.6625,1.0183,1.5782,0.0,2.8459,3.411,3.8249,3.9816,4.3642,4.6328,4.6425,4.7419,4.7199,4.4775,4.243,3.9806,3.6808,3.2814,0.0,0.0,0.0,1.9304,1.4829,1.1876,0.0,0.0,0.0,0.3733,0.1769,-0.1565,0.0,0.0,-0.5677,-0.4494,0.0,0.0,0.0,0.0,0.0,0.0,0.0,0.0,0.0,0.0,0.0,0.0,0.0,0.0,0.0,0.0,0.0,-4.0678,-4.3236,-4.3539,-4.3645,-4.3804,-4.3856,-4.3996,-4.4363,-4.4412,-4.4606,-4.5029,-4.5075,-4.5075,-4.5075,-4.5075,-4.489,-4.4412,-4.4412,-4.4412,-4.4412,-4.4412,-4.4654,-4.5075,-4.4048,-4.3452,-4.3221,-4.2171,-4.114,-4.0203,-4.0203,-3.9295,-3.7889,-3.7889,-3.7149,-3.6198,-3.7802,-3.7449,-3.5974,-3.5674,-3.4418,-3.2661,-3.2086,-3.0852,-2.9431,-2.8748,-2.8392,-2.7743,-2.5967,-2.5242,-2.4491,-2.2175,-2.1509,-2.1117,-1.9463,-1.8026,-1.6155,-1.2967,-0.9001,-0.4933,-0.1719,0.3849,0.9367,1.3458,1.892,2.5107,3.2473,3.7119,4.0291,4.2047,4.4987,4.7166,4.7579,4.8486,4.7835,4.4532,4.2862,4.0694,3.7554,3.366,3.0132,2.7299,2.4024,1.9958,1.5162,1.2469,1.0,0.7614,0.7074,0.5883,0.0,0.0,0.0,0.0,0.0,0.0,0.0,0.0,0.0,0.0,0.0,0.0,0.0,0.0,0.0,0.0,0.0,0.0,0.0,0.0,0.0,0.0,0.0,0.0,-4.3811,-4.4115,-4.4363,-4.4937,-4.5029,-4.5064,-4.5075,-4.5075,-4.5075,-4.5075,-4.5075,-4.5075,-4.5075,-4.5075,-4.5075,-4.5075,-4.5075,-4.5075,-4.5075,-4.5075,-4.5075,-4.5075,-4.5029,-4.4701,-4.4115,-4.4065,-4.3254,-4.1893,-4.1893,-4.1477,-4.0678,-4.0678,-3.9655,-3.8111,-3.8909,-3.8707,-3.7901,-3.692,-3.5919,-3.4782,-3.2661,-3.1861,-3.142,-2.9256,-2.7764,-2.6855,-2.6763,-2.5993,-2.4716,-2.3271,-2.2869,-2.2289,-1.9762,-1.8026,-1.5823,-1.1731,-0.7468,-0.3201,0.1068,0.7527,1.3571,1.7544,2.3505,2.9366,3.3815,3.8133,4.0797,4.023,4.4825,0.0,4.4975,4.6866,4.8138,4.7347,4.5233,4.3166,4.1395,3.5822,3.1492,2.9426,2.3863,1.8893,1.4951,1.1939,0.8438,0.4515,0.7183,0.8109,0.6841,0.0,0.0,0.0,0.0,0.0,0.0,0.0,0.0,0.0,0.0,0.0,0.0,0.0,0.0,0.0,0.0,0.0,0.0,0.0,0.0,0.0,0.0,0.0,0.0,0.0,-4.4215,-4.4461,-4.4843,-4.5291,-4.5723,-4.5723,-4.5894,-4.6371,-4.6376,-4.6376,-4.6376,-4.6376,-4.6213,-4.5766,-4.5723,-4.5723,-4.5723,-4.5723,-4.5936,-4.6411,-4.5971,-4.5601,-4.5426,-4.4983,-4.3998,-4.2654,-4.2654,-4.1946,-4.0803,-4.0803,-4.0662,-4.048,-4.1338,-4.0237,-3.8132,-3.8373,-3.7959,-3.7017,-3.5598,-3.5114,-3.4729,-3.2579,-3.0682,-2.8992,-2.8213,-2.715,-2.5973,-2.4679,-2.369,-2.2579,-2.0822,-1.7971,-1.467,-1.1417,-0.663,-0.1716,0.267,0.8373,1.4104,1.9077,2.5702,3.0678,3.1393,3.7073,4.0923,3.9276,4.4077,4.7822,4.7618,4.8303,4.8599,4.8003,4.6629,4.504,4.3267,3.9731,3.6165,3.2814,2.8217,2.3444,1.8617,1.6044,1.2247,0.7208,0.6189,0.5939,0.6372,0.0,0.0,0.0,0.0,0.0,0.0,0.0,0.0,0.0,0.0,0.0,0.0,0.0,0.0,0.0,0.0,0.0,0.0,0.0,0.0,0.0,0.0,0.0,0.0,0.0,0.0,-4.3963,-4.507,0.0,-4.4819,-4.574,-4.6145,-4.5451,-4.5879,-4.62,-4.62,-4.62,-4.634,-4.6618,-4.6654,-4.6694,-4.6845,-4.6845,-4.699,-4.7241,-4.6841,-4.646,-4.6054,-4.5636,-4.4809,-4.3711,-4.3711,-4.3188,-4.2268,-4.1372,-4.1125,-4.1395,-4.196,-4.0587,-3.8442,-3.9191,-3.8829,-3.7879,-3.7478,-3.7017,-3.6402,-3.4731,-3.1335,-2.7753,-2.6496,-2.4927,-2.3342,-2.2897,-2.2362,-2.1707,-2.0375,-1.7065,-1.3046,-0.9323,-0.404,0.1602,0.689,1.1605,1.6537,2.2278,2.8459,3.2496,3.1866,3.6366,3.9979,3.974,4.2982,4.6326,4.8852,4.9047,4.8804,4.8252,4.7275,4.6048,4.447,4.2402,3.9527,3.5591,3.2227,2.7927,2.2516,2.0502,1.6838,1.1334,0.7613,0.6156,0.0,0.0,0.0,0.0,0.0,0.0,0.0,0.0,0.0,0.0,0.0,0.0,0.0,0.0,0.0,0.0,0.0,0.0,0.0,0.0,0.0,0.0,0.0,0.0,0.0,0.0,0.0,-4.358,-4.5687,0.0,0.0,0.0,0.0,-4.2738,-4.3916,-4.4737,-4.463,-4.463,-4.5518,-4.7357,-4.7393,-4.762,-4.8068,-4.7995,-4.7868,-4.7647,-4.7538,-4.7061,-4.6137,-4.6067,-4.5704,-4.5121,-4.5029,-4.4949,-4.4822,-4.2453,-4.1223,-4.0854,-4.0847,-3.9963,-3.8811,-3.9183,-3.8414,-3.7269,-3.7908,-3.7449,-3.6382,-3.5127,-2.9709,-2.3358,-2.1763,-1.922,0.0,0.0,-1.898,-1.96,-1.8409,-1.5203,-1.0949,-0.5432,0.0316,0.6373,1.3284,1.703,2.0843,2.6948,3.1585,3.4391,3.434,0.0,3.7714,4.0842,4.136,4.3224,4.8288,4.8972,4.8778,4.8282,4.7274,4.6232,4.5193,4.3762,4.1493,3.7994,3.5672,3.2005,2.6742,2.5065,2.1826,1.6496,1.132,0.0,0.0,0.0,0.0,0.0,0.0,0.0,0.0,0.0,0.0,0.0,0.0,0.0,0.0,0.0,0.0,0.0,0.0,0.0,0.0,0.0,0.0,0.0,0.0,0.0,0.0,-4.2137,-4.4142,-4.3634,-4.5654,-4.6846,0.0,0.0,0.0,0.0,0.0,0.0,-4.3597,-4.3553,-4.3763,-4.4277,-4.4313,-4.4944,-4.6326,-4.5063,-4.5658,-4.8072,-4.6771,-4.654,-4.7203,-4.6017,-4.5591,-4.5669,-4.3572,-4.2946,-4.3339,-4.2979,-4.2052,-4.0851,-4.1036,-3.9466,-3.7135,-3.7349,-3.6442,-3.5149,-3.5372,-3.4871,-3.3554,-2.9958,-2.6043,-2.1627,-1.6082,0.0,0.0,0.0,0.0,-1.5374,-1.5578,-1.1674,-0.6851,-0.3244,0.2579,0.8654,1.3705,1.8446,2.2987,2.7195,3.0213,3.0626,2.6325,2.9719,0.0,3.1972,3.7288,4.2409,4.5217,4.7555,4.8789,4.8263,4.7273,4.6222,4.5159,4.3761,4.2398,4.0927,3.8225,3.5589,3.323,2.9076,2.563,2.296,0.0,0.0,0.0,0.0,0.0,0.0,0.0,0.0,0.0,0.0,0.0,0.0,0.0,0.0,0.0,0.0,0.0,0.0,0.0,0.0,0.0,0.0,0.0,0.0,0.0,0.0,0.0,-3.9978,-4.3234,-4.3229,-4.4864,-4.5559,0.0,0.0,0.0,0.0,0.0,0.0,0.0,0.0,0.0,-4.3397,-4.3397,-4.3971,-4.5094,-4.4147,-4.4521,-4.6232,-4.5286,-4.5117,-4.5655,-4.4746,-4.4511,-4.47,-4.3105,-4.2255,-4.1985,-4.1823,-4.0998,-3.977,0.0,0.0,0.0,0.0,-3.0593,-2.9037,-2.8926,-2.8342,-2.6959,-2.3138,0.0,0.0,0.0,0.0,0.0,0.0,0.0,-0.9515,-0.955,-0.6151,-0.1603,0.2364,0.7682,1.3231,1.812,2.1545,2.4286,2.6492,2.8627,2.8693,2.3977,2.6162,0.0,0.0,0.0,3.9798,4.3812,4.719,4.8974,4.8286,4.7426,4.6445,4.5222,4.4098,4.3201,4.2463,4.0854,3.8393,3.5148,3.1134,2.7032,0.0,0.0,0.0,0.0,0.0,0.0,0.0,0.0,0.0,0.0,0.0,0.0,0.0,0.0,0.0,0.0,0.0,0.0,0.0,0.0,0.0,0.0,0.0,0.0,0.0,0.0,0.0,0.0,0.0,-4.026,-4.2099,0.0,0.0,0.0,0.0,0.0,0.0,0.0,0.0,0.0,0.0,0.0,0.0,0.0,-4.3395,-4.3969,-4.3558,-4.3379,-4.3499,-4.3256,-4.3215,-4.3222,-4.2782,-4.2793,-4.3107,-4.2576,0.0,-4.0738,-3.9992,0.0,0.0,0.0,0.0,0.0,0.0,0.0,0.0,0.0,0.0,0.0,0.0,0.0,0.0,0.0,0.0,0.0,0.0,0.0,0.0,0.0,0.0,0.4037,0.8868,1.356,1.8448,2.3832,2.5232,2.5387,2.5265,2.7001,2.7464,0.0,0.0,0.0,0.0,0.0,0.0,4.286,4.7099,4.9203,4.8283,4.7619,4.6703,4.5314,4.4533,4.388,4.3241,4.2607,3.9956,3.4981,3.1934,0.0,0.0,0.0,0.0,0.0,0.0,0.0,0.0,0.0,0.0,0.0,0.0,0.0,0.0,0.0,0.0,0.0,0.0,0.0,0.0,0.0,0.0,0.0,0.0,0.0,0.0,0.0,0.0,0.0,0.0,0.0,0.0,0.0,0.0,0.0,0.0,0.0,0.0,0.0,0.0,0.0,0.0,0.0,0.0,0.0,0.0,0.0,0.0,0.0,0.0,-4.0839,-4.1389,-4.3533,-4.0819,-4.0927,-4.2976,-3.9619,-3.875,-3.9731,-3.9805,0.0,0.0,0.0,0.0,0.0,0.0,0.0,0.0,0.0,0.0,0.0,0.0,0.0,0.0,0.0,0.0,0.0,0.0,0.0,0.0,0.0,0.0,0.9211,1.1304,1.5517,2.0325,2.4688,0.0,0.0,0.0,0.0,0.0,0.0,0.0,0.0,0.0,0.0,0.0,3.9633,4.5579,4.9098,4.8284,4.7639,4.6875,4.5998,4.483,4.4314,4.4715,4.0705,3.8126,0.0,0.0,0.0,0.0,0.0,0.0,0.0,0.0,0.0,0.0,0.0,0.0,0.0,0.0,0.0,0.0,0.0,0.0,0.0,0.0,0.0,0.0,0.0,0.0,0.0,0.0,0.0,0.0,0.0,0.0,0.0,0.0,0.0,0.0,0.0,0.0,0.0,0.0,0.0,0.0,0.0,0.0,0.0,0.0,0.0,0.0,0.0,0.0,0.0,0.0,0.0,0.0,0.0,0.0,0.0,0.0,0.0,0.0,0.0,-3.6687,0.0,0.0,0.0,0.0,0.0,0.0,0.0,0.0,0.0,0.0,0.0,0.0,0.0,0.0,0.0,0.0,0.0,0.0,0.0,0.0,0.0,0.0,0.0,0.0,0.0,0.0,0.0,0.0,0.0,0.0,0.0,0.0,0.0,0.0,0.0,0.0,0.0,0.0,0.0,0.0,3.8837,4.5179,4.9084,4.8278,4.7634,4.6917,4.6137,4.5201,4.3851,4.2065,3.97,0.0,0.0,0.0,0.0,0.0,0.0,0.0,0.0,0.0,0.0,0.0,0.0,0.0,0.0,0.0,0.0,0.0,0.0,0.0,0.0,0.0,0.0,0.0,0.0,0.0,0.0,0.0,0.0,0.0,0.0,0.0,0.0,0.0,0.0,0.0,0.0,0.0,0.0,0.0,0.0,0.0,0.0,0.0,0.0,0.0,0.0,0.0,0.0,0.0,0.0,0.0,0.0,0.0,0.0,0.0,0.0,0.0,0.0,0.0,-3.5236,0.0,0.0,0.0,0.0,0.0,0.0,0.0,0.0,0.0,0.0,0.0,0.0,0.0,0.0,0.0,0.0,0.0,0.0,0.0,0.0,0.0,0.0,0.0,0.0,0.0,0.0,0.0,0.0,0.0,0.0,0.0,0.0,0.0,0.0,0.0,0.0,0.0,0.0,0.0,0.0,0.0,3.886,4.5167,4.9053,4.8321,4.7772,4.7055,4.6143,4.5601,4.3528,3.9351,3.8265,0.0,0.0,0.0,0.0,0.0,0.0,0.0,0.0,0.0,0.0,0.0,0.0,0.0,0.0,0.0,0.0,0.0,0.0,0.0,0.0,0.0,0.0,0.0,0.0,0.0,0.0,0.0,0.0,0.0,0.0,0.0,0.0,0.0,0.0,0.0,0.0,0.0,0.0,0.0,0.0,0.0,0.0,0.0,0.0,0.0,0.0,0.0,0.0,0.0,0.0,0.0,0.0,0.0,0.0,0.0,0.0,0.0,0.0,0.0,0.0,0.0,0.0,0.0,0.0,0.0,0.0,0.0,0.0,0.0,0.0,0.0,0.0,0.0,0.0,0.0,0.0,0.0,0.0,0.0,0.0,0.0,0.0,0.0,0.0,0.0,0.0,0.0,0.0,0.0,0.0,0.0,0.0,0.0,0.0,0.0,0.0,0.0,0.0,0.0,0.0,0.0,3.8975,4.5155,4.8977,4.8431,4.8224,4.7566,4.6184,4.6013,4.401,3.9387,0.0,0.0,0.0,0.0,0.0,0.0,0.0,0.0,0.0,0.0,0.0,0.0,0.0,0.0,0.0,0.0,0.0,0.0,0.0,0.0,0.0,0.0,0.0,0.0,0.0,0.0,0.0,0.0,0.0,0.0,0.0,0.0,0.0,0.0,0.0,0.0,0.0,0.0,0.0,0.0,0.0,0.0,0.0,0.0,0.0,0.0,0.0,0.0,0.0,0.0,0.0,0.0,0.0,0.0,0.0,0.0,0.0,0.0,0.0,0.0,0.0,0.0,0.0,0.0,0.0,0.0,0.0,0.0,0.0,0.0,0.0,0.0,0.0,0.0,0.0,0.0,0.0,0.0,0.0,0.0,0.0,0.0,0.0,0.0,0.0,0.0,0.0,0.0,0.0,0.0,0.0,0.0,0.0,0.0,0.0,0.0,0.0,0.0,0.0,0.0,0.0,0.0,3.8783,4.5062,4.8977,4.8457,4.8288,4.7796,4.676,4.6644,4.3844,3.7153,0.0,0.0,0.0,0.0,0.0,0.0,0.0,0.0,0.0,0.0,0.0,0.0,0.0,0.0,0.0,0.0,0.0,0.0,0.0,0.0,0.0,0.0,0.0,0.0,0.0,0.0,0.0,0.0,0.0,0.0,0.0,0.0,0.0,0.0,0.0,0.0,0.0,0.0,0.0,0.0,0.0,0.0,0.0,0.0,0.0,0.0,0.0,0.0,0.0,0.0,0.0,0.0,0.0,0.0,0.0,0.0,0.0,0.0,0.0,0.0,0.0,0.0,0.0,0.0,0.0,0.0,0.0,0.0,0.0,0.0,0.0,0.0,0.0,0.0,0.0,0.0,0.0,0.0,0.0,0.0,0.0,0.0,0.0,0.0,0.0,0.0,0.0,0.0,0.0,0.0,0.0,0.0,0.0,0.0,0.0,0.0,0.0,0.0,0.0,0.0,0.0,0.0,3.8779,4.5045,4.9015,4.8605,4.8435,4.7941,4.6989,4.7097,4.3699,3.5474,0.0,0.0,0.0,0.0,0.0,0.0,0.0,0.0,0.0,0.0,0.0,0.0,0.0,0.0,0.0,0.0,0.0,0.0,0.0,0.0,0.0,0.0,0.0,0.0,0.0,0.0,0.0,0.0,0.0,0.0,0.0,0.0,0.0,0.0,0.0,0.0,0.0,0.0,0.0,0.0,0.0,0.0,0.0,0.0,0.0,0.0,0.0,0.0,0.0,0.0,0.0,0.0,0.0,0.0,0.0,0.0,0.0,0.0,0.0,0.0,0.0,0.0,0.0,0.0,0.0,0.0,0.0,0.0,0.0,0.0,0.0,0.0,0.0,0.0,0.0,0.0,0.0,0.0,0.0,0.0,0.0,0.0,0.0,0.0,0.0,0.0,0.0,0.0,0.0,0.0,0.0,0.0,0.0,0.0,0.0,0.0,0.0,0.0,0.0,0.0,0.0,0.0,3.9205,4.5158,4.9129,4.8999,4.8755,4.8077,4.6775,4.7271,4.386,0.0,0.0,0.0,0.0,0.0,0.0,0.0,0.0,0.0,0.0,0.0,0.0,0.0,0.0,0.0,0.0,0.0,0.0,0.0,0.0,0.0,0.0,0.0,0.0,0.0,0.0,0.0,0.0,0.0,0.0,0.0,0.0,0.0,0.0,0.0,0.0,0.0,0.0,0.0,0.0,0.0,0.0,0.0,0.0,0.0,0.0,0.0,0.0,0.0,0.0,0.0,0.0,0.0,0.0,0.0,0.0,0.0,0.0,0.0,0.0,0.0,0.0,0.0,0.0,0.0,0.0,0.0,0.0,0.0,0.0,0.0,0.0,0.0,0.0,0.0,0.0,0.0,0.0,0.0,0.0,0.0,0.0,0.0,0.0,0.0,0.0,0.0,0.0,0.0,0.0,0.0,0.0,0.0,0.0,0.0,0.0,0.0,0.0,0.0,0.0,0.0,0.0,0.0,3.8553,4.3094,4.6736,4.8647,4.8774,4.8362,4.7406,4.7512,4.452,3.7226,0.0,0.0,0.0,0.0,0.0,0.0,0.0,0.0,0.0,0.0,0.0,0.0,0.0,0.0,0.0,0.0,0.0,0.0,0.0,0.0,0.0,0.0,0.0,0.0,0.0,0.0,0.0,0.0,0.0,0.0,0.0,0.0,0.0,0.0,0.0,0.0,0.0,0.0,0.0,0.0,0.0,0.0,0.0,0.0,0.0,0.0,0.0,0.0,0.0,0.0,0.0,0.0,0.0,0.0,0.0,0.0,0.0,0.0,0.0,0.0,0.0,0.0,0.0,0.0,0.0,0.0,0.0,0.0,0.0,0.0,0.0,0.0,0.0,0.0,0.0,0.0,0.0,0.0,0.0,0.0,0.0,0.0,0.0,0.0,0.0,0.0,0.0,0.0,0.0,0.0,0.0,0.0,0.0,0.0,0.0,0.0,0.0,0.0,0.0,0.0,0.0,0.0,0.0,4.3326,4.7035,4.8795,4.8989,4.8719,4.8028,4.7999,4.5172,3.8547,0.0,0.0,0.0,0.0,0.0,0.0,0.0,0.0,0.0,0.0,0.0,0.0,0.0,0.0,0.0,0.0,0.0,0.0,0.0,0.0,0.0,0.0,0.0,0.0,0.0,0.0,0.0,0.0,0.0,0.0,0.0,0.0,0.0,0.0,0.0,0.0,0.0,0.0,0.0,0.0,0.0,0.0,0.0,0.0,0.0,0.0,0.0,0.0,0.0,0.0,0.0,0.0,0.0,0.0,0.0,0.0,0.0,0.0,0.0,0.0,0.0,0.0,0.0,0.0,0.0,0.0,0.0,0.0,0.0,0.0,0.0,0.0,0.0,0.0,0.0,0.0,0.0,0.0,0.0,0.0,0.0,0.0,0.0,0.0,0.0,0.0,0.0,0.0,0.0,0.0,0.0,0.0,0.0,0.0,0.0,0.0,0.0,0.0,0.0,0.0,0.0,0.0,0.0,4.5104,4.9104,4.9355,4.9376,4.9161,4.8654,4.8617,4.5723,3.894,3.8746,0.0,0.0,0.0,0.0,0.0,0.0,0.0,0.0,0.0,0.0,0.0,0.0,0.0,0.0,0.0,0.0,0.0,0.0,0.0,0.0,0.0,0.0,0.0,0.0,0.0,0.0,0.0,0.0,0.0,0.0,0.0,0.0,0.0,0.0,0.0,0.0,0.0,0.0,0.0,0.0,0.0,0.0,0.0,0.0,0.0,0.0,0.0,0.0,0.0,0.0,0.0,0.0,0.0,0.0,0.0,0.0,0.0,0.0,0.0,0.0,0.0,0.0,0.0,0.0,0.0,0.0,0.0,0.0,0.0,0.0,0.0,0.0,0.0,0.0,0.0,0.0,0.0,0.0,0.0,0.0,0.0,0.0,0.0,0.0,0.0,0.0,0.0,0.0,0.0,0.0,0.0,0.0,0.0,0.0,0.0,0.0,0.0,0.0,0.0,0.0,0.0,0.0,4.4588,4.6725,4.9125,4.9463,4.9326,4.8781,4.8644,4.582,3.9216,3.8941,0.0,0.0,0.0,0.0,0.0,0.0,0.0,0.0,0.0,0.0,0.0,0.0,0.0,0.0,0.0,0.0,0.0,0.0,0.0,0.0,0.0,0.0,0.0,0.0,0.0,0.0,0.0,0.0,0.0,0.0,0.0,0.0,0.0,0.0,0.0,0.0,0.0,0.0,0.0,0.0,0.0,0.0,0.0,0.0,0.0,0.0,0.0,0.0,0.0,0.0,0.0,0.0,0.0,0.0,0.0,0.0,0.0,0.0,0.0,0.0,0.0,0.0,0.0,0.0,0.0,0.0,0.0,0.0,0.0,0.0,0.0,0.0,0.0,0.0,0.0,0.0,0.0,0.0,0.0,0.0,0.0,0.0,0.0,0.0,0.0,0.0,0.0,0.0,0.0,0.0,0.0,0.0,0.0,0.0,0.0,0.0,0.0,0.0,0.0,0.0,0.0,0.0,4.3156,4.493,4.8935,4.9497,4.9456,4.9071,4.896,4.6416,4.0673,4.0475,0.0,0.0,0.0,0.0,0.0,0.0,0.0,0.0,0.0,0.0,0.0,0.0,0.0,0.0,0.0,0.0,0.0,0.0,0.0,0.0,0.0,0.0,0.0,0.0,0.0,0.0,0.0,0.0,0.0,0.0,0.0,0.0,0.0,0.0,0.0,0.0,0.0,0.0,0.0,0.0,0.0,0.0,0.0,0.0,0.0,0.0,0.0,0.0,0.0,0.0,0.0,0.0,0.0,0.0,0.0,0.0,0.0,0.0,0.0,0.0,0.0,0.0,0.0,0.0,0.0,0.0,0.0,0.0,0.0,0.0,0.0,0.0,0.0,0.0,0.0,0.0,0.0,0.0,0.0,0.0,0.0,0.0,0.0,0.0,0.0,0.0,0.0,0.0,0.0,0.0,0.0,0.0,0.0,0.0,0.0,0.0,0.0,0.0,0.0,0.0,0.0,0.0,0.0,4.4215,4.857,4.9369,4.9566,4.9466,4.9316,4.7166,4.2349,0.0,0.0,0.0,0.0,0.0,0.0,0.0,0.0,0.0,0.0,0.0,0.0,0.0,0.0,0.0,0.0,0.0,0.0,0.0,0.0,0.0,0.0,0.0,0.0,0.0,0.0,0.0,0.0,0.0,0.0,0.0,0.0,0.0,0.0,0.0,0.0,0.0,0.0,0.0,0.0,0.0,0.0,0.0,0.0,0.0,0.0,0.0,0.0,0.0,0.0,0.0,0.0,0.0,0.0,0.0,0.0,0.0,0.0,0.0,0.0,0.0,0.0,0.0,0.0,0.0,0.0,0.0,0.0,0.0,0.0,0.0,0.0,0.0,0.0,0.0,0.0,0.0,0.0,0.0,0.0,0.0,0.0,0.0,0.0,0.0,0.0,0.0,0.0,0.0,0.0,0.0,0.0,0.0,0.0,0.0,0.0,0.0,0.0,0.0,0.0,0.0,0.0,0.0,0.0,4.6449,4.7446,4.8848,4.9745,4.969,4.9578,4.7465,4.2617,0.0,0.0,0.0,0.0,0.0,0.0,0.0,0.0,0.0,0.0,0.0,0.0,0.0,0.0]}],[{"header":{"parameterUnit":"kt","parameterCategory":2,"dx":1,"dy":1,"la1":29.285339999999998,"la2":30.599998999999997,"lo1":-89.70041500000002,"lo2":-87.6738589999976,"nx":112,"ny":82,"refTime":"2022-10-31T18:00:00:Z","depth":0,"parameterNumber":2,"parameterNumberName":"V-component_of_WINDS"},"data":[8.8445,8.8872,0.0,8.2954,8.1606,0.0,7.434,0.0,7.2633,0.0,0.0,0.0,0.0,6.699,6.4453,6.4377,6.274,6.1067,0.0,5.872,0.0,0.0,0.0,0.0,0.0,0.0,0.0,0.0,0.0,0.0,0.0,0.0,8.667,8.667,8.667,8.667,8.667,8.667,8.667,8.667,8.667,8.6933,8.7426,8.7426,8.7689,8.8149,8.7656,8.7426,8.7393,8.6867,8.667,8.667,8.667,8.667,8.667,8.667,8.667,8.667,8.667,8.667,8.667,8.667,8.667,8.667,8.667,8.6275,8.5798,8.5798,8.4529,8.3168,8.2531,8.0723,7.8963,7.8354,7.7352,7.6635,7.6635,7.6635,7.6635,7.6635,7.6635,7.6635,7.6635,7.6635,7.6635,7.6635,7.6635,7.6635,7.6635,7.6635,7.6635,7.6635,7.6635,7.6635,7.6635,7.6635,7.6635,7.6635,7.6635,7.6635,7.6635,7.6635,7.6635,7.6635,7.6635,7.6635,7.6635,7.6635,7.6635,7.6635,7.6635,7.5733,0.0,0.0,8.519,7.937,0.0,0.0,0.0,0.0,0.0,0.0,0.0,0.0,0.0,6.6789,6.5279,6.389,6.3592,6.2997,0.0,0.0,0.0,0.0,0.0,0.0,0.0,0.0,0.0,0.0,0.0,0.0,0.0,8.667,8.667,8.667,8.667,8.667,8.667,8.667,8.667,8.667,8.667,8.667,8.667,8.667,8.667,8.667,8.667,8.667,8.667,8.667,8.667,8.667,8.667,8.667,8.667,8.667,8.667,8.667,8.667,8.667,8.667,8.667,8.667,8.667,8.667,8.667,8.667,8.667,8.5428,8.4031,8.3408,8.1261,7.8963,7.8354,7.7352,7.6635,7.6635,7.6635,7.6635,7.6635,7.6635,7.6635,7.6635,7.6635,7.6635,7.6635,7.6635,7.6635,7.6635,7.6635,7.6635,7.6635,7.6635,7.6635,7.6635,7.6635,7.6635,7.6635,7.5791,7.4919,7.4075,7.4046,7.4861,7.6606,7.6635,7.6635,7.6635,7.6635,7.6169,7.5297,7.5297,7.4163,0.0,0.0,0.0,7.5096,0.0,0.0,0.0,0.0,7.1019,0.0,0.0,0.0,0.0,6.7961,6.6515,6.5167,6.5002,0.0,0.0,0.0,0.0,0.0,0.0,0.0,0.0,0.0,0.0,0.0,0.0,0.0,8.6209,8.667,8.667,8.667,8.667,8.667,8.667,8.667,8.667,8.667,8.667,8.667,8.667,8.667,8.667,8.667,8.667,8.667,8.667,8.667,8.667,8.667,8.667,8.667,8.667,8.667,8.667,8.667,8.667,8.667,8.667,8.667,8.667,8.667,8.667,8.667,8.667,8.667,8.5428,8.3796,8.2132,8.037,7.8727,7.6995,7.6606,7.6635,7.6635,7.6635,7.6635,7.6635,7.6635,7.6635,7.6635,7.6635,7.6635,7.6635,7.6635,7.6635,7.6635,7.6635,7.6576,7.6402,7.6373,7.6373,7.6373,7.6373,7.6373,7.6373,7.4017,7.1516,6.9102,6.9015,7.1341,7.6286,7.6373,7.6402,7.646,7.646,7.518,7.2708,7.2621,7.1981,7.6904,7.6773,0.0,0.0,0.0,0.0,0.0,0.0,0.0,0.0,0.0,0.0,0.0,0.0,6.5397,6.5002,0.0,6.7172,0.0,0.0,0.0,0.0,0.0,0.0,0.0,0.0,0.0,0.0,0.0,0.0,8.6374,8.667,8.667,8.667,8.667,8.667,8.667,8.667,8.667,8.667,8.667,8.667,8.667,8.667,8.667,8.667,8.667,8.667,8.667,8.667,8.667,8.667,8.667,8.667,8.667,8.667,8.667,8.667,8.667,8.667,8.667,8.667,8.667,8.667,8.667,8.667,8.667,8.667,8.5428,8.4063,8.3558,8.1261,7.8963,7.8459,7.749,7.6635,7.6635,7.6635,7.6635,7.6635,7.6635,7.6635,7.6635,7.6635,7.6635,7.6635,7.6635,7.6635,7.6635,7.6635,7.521,7.1487,7.1109,7.1109,7.1109,7.1109,7.1109,7.1109,7.0411,6.9713,6.9044,6.9015,6.9684,7.108,7.1109,7.172,7.2941,7.2941,7.2854,7.2679,7.0876,6.9858,7.4603,7.4734,7.5326,7.3288,0.0,0.0,7.1151,0.0,7.0,0.0,0.0,0.0,0.0,0.0,0.0,0.0,0.0,0.0,0.0,0.0,0.0,0.0,0.0,0.0,0.0,0.0,0.0,0.0,0.0,8.2034,8.6407,8.667,8.667,8.667,8.667,8.667,8.667,8.667,8.667,8.667,8.667,8.667,8.667,8.667,8.667,8.667,8.667,8.667,8.667,8.667,8.667,8.667,8.667,8.667,8.667,8.667,8.667,8.667,8.667,8.667,8.667,8.667,8.667,8.667,8.667,8.667,8.667,8.667,8.5428,8.418,8.418,8.2164,8.0241,8.0241,7.9126,7.7978,7.7978,7.7243,7.6635,7.6635,7.6635,7.6635,7.6635,7.6635,7.6635,7.6635,7.4802,7.3435,7.3435,7.3435,7.2301,6.9335,6.9015,6.9015,6.9015,6.9015,6.9015,6.9015,6.9015,6.9015,6.9015,6.9015,6.9015,6.9015,6.9015,6.9509,7.0498,7.0498,7.0731,7.1109,6.9684,6.9015,7.411,7.3978,7.4471,7.2071,7.3156,7.3945,0.0,0.0,7.1249,7.0427,0.0,0.0,0.0,0.0,0.0,0.0,0.0,0.0,0.0,0.0,0.0,0.0,0.0,0.0,0.0,0.0,8.2461,8.6374,8.3053,8.256,8.6439,8.667,8.667,8.667,8.667,8.667,8.667,8.667,8.667,8.667,8.667,8.667,8.667,8.667,8.667,8.667,8.667,8.667,8.667,8.667,8.667,8.667,8.667,8.667,8.667,8.667,8.667,8.667,8.667,8.667,8.667,8.667,8.667,8.667,8.667,8.667,8.667,8.667,8.5653,8.4413,8.3988,8.2795,8.1481,8.0952,8.0481,7.9905,7.9388,7.7829,7.6635,7.6635,7.6169,7.5762,7.5762,7.5762,7.5762,7.5762,7.1923,6.9015,6.9015,6.9015,6.9015,6.9015,6.9015,6.9015,6.9015,6.9015,6.9015,6.9015,6.9015,6.9015,6.9015,6.9015,6.9015,6.9015,6.9015,6.9015,6.9015,6.9015,6.9015,6.9015,6.9015,6.9015,6.9539,6.9375,7.0657,7.1315,7.0098,6.977,0.0,0.0,0.0,0.0,0.0,0.0,0.0,0.0,0.0,0.0,0.0,0.0,0.0,0.0,0.0,0.0,0.0,0.0,0.0,8.5552,8.5749,8.6604,8.5848,8.5749,8.6604,8.667,8.667,8.667,8.667,8.667,8.667,8.667,8.667,8.667,8.667,8.667,8.667,8.667,8.667,8.667,8.667,8.667,8.667,8.667,8.667,8.667,8.667,8.667,8.667,8.667,8.667,8.667,8.667,8.667,8.667,8.667,8.667,8.667,8.667,8.667,8.667,8.667,8.6418,8.5648,8.3115,8.2221,8.0938,7.7182,7.8415,7.9428,7.5901,7.5893,7.6635,7.6635,7.3319,7.0498,7.0498,7.0498,7.0498,7.0498,6.9655,6.9015,6.9015,6.9015,6.9015,6.9015,6.9015,6.9015,6.9015,6.9015,6.9015,6.9015,6.9015,6.9015,6.9015,6.9015,6.9015,6.9015,6.9015,6.9015,6.9015,6.9015,6.9015,6.9015,6.9015,6.9015,6.6975,6.7041,6.8159,6.8191,6.8159,0.0,0.0,7.0855,7.1414,7.5063,0.0,0.0,0.0,0.0,0.0,0.0,0.0,0.0,0.0,0.0,0.0,0.0,0.0,0.0,0.0,8.667,8.667,8.667,8.667,8.667,8.667,8.667,8.667,8.667,8.667,8.667,8.667,8.667,8.667,8.667,8.667,8.667,8.667,8.667,8.667,8.667,8.667,8.667,8.667,8.667,8.667,8.667,8.667,8.6176,8.5519,8.5519,8.5058,8.4434,8.4434,8.4434,8.4434,8.4434,8.4434,8.4434,8.4434,8.4434,8.4434,8.4434,8.4434,8.413,8.2561,8.2149,8.1595,7.9198,7.7775,7.631,7.4224,7.3272,7.2825,7.2825,7.076,6.9015,6.9015,6.9015,6.9015,6.9015,6.9015,6.9015,6.9015,6.9015,6.9015,6.9015,6.9015,6.9015,6.9015,6.9015,6.9015,6.9015,6.9015,6.9015,6.9015,6.9015,6.9015,6.9015,6.9015,6.9015,6.9015,6.9015,6.9015,6.9015,6.9015,6.9015,6.5232,6.5561,6.6416,6.5561,6.6679,0.0,6.8619,6.9474,7.1183,0.0,0.0,0.0,0.0,0.0,0.0,0.0,0.0,0.0,0.0,0.0,0.0,0.0,0.0,0.0,8.6209,8.5946,8.5782,8.5782,8.5782,8.5782,8.5782,8.5782,8.5782,8.5782,8.5782,8.5782,8.5782,8.5782,8.5782,8.5782,8.5782,8.5946,8.6209,8.6209,8.6209,8.6209,8.6209,8.6209,8.6209,8.6209,8.6045,8.5782,8.5782,8.5058,8.3973,8.3973,8.3217,8.2198,8.2198,8.2198,8.2198,8.2198,8.2198,8.2198,8.2198,8.2198,8.2198,8.2198,8.2198,8.2132,8.1869,8.1803,8.1602,8.1067,7.722,7.3855,7.4266,7.159,6.9015,6.9015,6.9015,6.9015,6.9015,6.9015,6.9015,6.9015,6.9015,6.9015,6.9015,6.9015,6.9015,6.9015,6.9015,6.9015,6.9015,6.9015,6.9015,6.9015,6.9015,6.9015,6.9015,6.9015,6.9015,6.9015,6.9015,6.9015,6.9015,6.9015,6.9015,6.9015,6.9015,6.9015,6.3424,6.4049,6.543,6.6547,6.5134,0.0,7.309,7.3978,7.5096,0.0,0.0,0.0,0.0,0.0,0.0,0.0,0.0,0.0,0.0,0.0,0.0,0.0,0.0,0.0,8.4631,8.348,8.2691,8.2691,8.2691,8.2691,8.2691,8.2691,8.2691,8.2691,8.2691,8.2691,8.2691,8.2691,8.2691,8.2691,8.2691,8.3382,8.4631,8.4631,8.4631,8.4631,8.4631,8.4631,8.4631,8.4631,8.3875,8.2691,8.2691,8.2593,8.2461,8.2461,8.233,8.2198,8.2198,8.2198,8.2198,8.2198,8.2198,8.2198,8.2198,8.2198,8.2198,8.2198,8.2198,8.1935,8.0653,8.0324,7.9658,7.6958,7.5601,7.5335,7.7029,7.3037,6.9015,6.9015,6.9015,6.9015,6.9015,6.9015,6.9015,6.9015,6.9015,6.9015,6.9015,6.9015,6.9015,6.9015,6.9015,6.9015,6.9015,6.9015,6.9015,6.9015,6.9015,6.9015,6.9015,6.9015,6.9015,6.9015,6.9015,6.9015,6.9015,6.9015,6.9015,6.9015,6.9015,6.9015,6.1681,6.1944,6.2569,6.3161,0.0,0.0,6.9671,7.1578,0.0,0.0,0.0,0.0,0.0,0.0,0.0,0.0,0.0,0.0,0.0,0.0,0.0,0.0,0.0,0.0,0.0,8.256,8.2198,8.2198,8.2198,8.2198,8.2198,8.2198,8.2198,8.2198,8.2198,8.2198,8.2198,8.2198,8.2198,8.2198,8.2198,8.2527,8.3119,8.3119,8.3119,8.3119,8.3119,8.3119,8.3053,8.2231,8.2034,8.2198,8.2198,8.1705,8.0981,8.0981,8.0455,7.9699,7.9699,7.9699,7.9699,7.9699,7.9699,7.9699,7.9699,7.9699,7.9699,7.9699,7.9699,7.9568,7.8976,7.8811,7.8548,7.726,7.6826,7.6622,7.6281,7.5164,7.3232,6.9679,6.9015,6.9015,6.9015,6.9015,6.9015,6.9015,6.9015,6.9015,6.9015,6.9015,6.9015,6.9015,6.9015,6.9015,6.9015,6.9015,6.9015,6.9015,6.9015,6.9015,6.9015,6.9015,6.9015,6.9015,6.9015,6.9015,6.9015,6.9015,6.9015,6.9015,6.9015,6.9015,6.0629,0.0,0.0,0.0,0.0,0.0,0.0,0.0,7.411,7.9074,0.0,0.0,0.0,0.0,0.0,0.0,0.0,0.0,0.0,0.0,0.0,0.0,0.0,0.0,0.0,0.0,0.0,0.0,8.1014,8.1014,8.1014,8.1014,8.1014,8.1014,8.1014,8.1014,8.1014,8.1014,8.1014,8.1014,8.1014,8.1244,8.1639,8.1639,8.1639,8.1639,8.1639,8.1376,8.0949,7.9929,8.0094,8.1014,8.1014,8.039,7.9502,7.9502,7.8811,7.7891,7.7891,7.7891,7.7891,7.7891,7.7891,7.7891,7.7891,7.7891,7.7891,7.7891,7.7891,7.7891,7.7891,7.7891,7.7891,7.7891,7.7661,7.6895,7.5335,7.6622,7.6455,7.159,7.1145,7.1472,7.1472,7.0143,6.9015,6.9015,6.9015,6.9015,6.9015,6.9015,6.9015,6.9015,6.9015,6.9015,6.9015,6.9015,6.9015,6.9015,6.9015,6.9015,6.9015,6.9015,6.9015,6.9015,6.9015,6.9015,6.9015,6.9015,6.9015,6.9015,6.9015,6.9015,0.0,0.0,0.0,6.7578,6.775,6.8764,7.5511,7.639,7.651,7.9502,0.0,0.0,0.0,0.0,0.0,0.0,0.0,0.0,0.0,0.0,0.0,0.0,0.0,0.0,0.0,0.0,0.0,0.0,7.8022,7.8022,7.8022,7.8022,7.8022,7.8022,7.8022,7.8022,7.8022,7.8022,7.8022,7.8022,7.8022,7.8779,8.0159,8.0159,8.0159,8.0159,8.0159,7.937,7.8022,7.7989,7.7989,7.8022,7.8022,7.7989,7.7957,7.7957,7.7957,7.7891,7.7891,7.7891,7.7891,7.7891,7.7891,7.7891,7.7891,7.7891,7.7891,7.7891,7.7891,7.7891,7.7891,7.7891,7.7891,7.7891,7.6761,7.5558,7.5089,7.6622,7.7363,7.5228,7.6384,7.7661,7.7661,7.2892,6.9015,6.9015,6.9015,6.9015,6.9015,6.9015,6.9015,6.9015,6.9015,6.9015,6.9015,6.9015,6.9015,6.9015,6.9015,6.9015,6.9015,6.9015,6.9015,6.9015,6.9015,6.9015,6.9015,6.9015,6.9015,6.9015,6.9015,6.9015,6.4898,6.5782,6.7015,7.0385,7.2418,7.423,7.6598,7.8332,7.9996,8.1875,0.0,0.0,0.0,0.0,0.0,0.0,0.0,0.0,0.0,0.0,0.0,0.0,0.0,0.0,0.0,0.0,0.0,0.0,0.0,0.0,7.7891,7.7891,7.7891,7.7891,7.7891,7.7891,7.7891,7.7891,7.7891,7.7891,7.7891,7.8154,7.8647,7.8647,7.8647,7.8647,7.8647,7.8351,7.7891,7.7891,7.7891,7.7891,7.7891,7.7891,7.7891,7.7891,7.7891,7.7891,7.7891,7.7891,7.7891,7.7891,7.7891,7.7891,7.7891,7.7891,7.7891,7.7891,7.7891,7.7891,7.7891,7.7891,7.7891,7.7891,7.7562,7.6895,7.5695,7.5873,7.5905,7.4297,7.3935,7.4779,7.7463,7.3006,6.9015,6.9015,6.9015,6.9015,6.9015,6.9015,6.9015,6.9015,6.9015,6.9015,6.9015,6.9015,6.9015,6.9015,6.9015,6.9015,6.9015,6.9015,6.9015,6.9015,6.9015,6.9015,6.9015,6.9015,6.9015,6.9015,6.9015,6.9015,6.6957,6.8232,6.9613,7.3636,7.6229,7.7964,7.8939,8.0219,8.1514,8.2477,0.0,0.0,0.0,0.0,0.0,0.0,0.0,0.0,0.0,0.0,0.0,0.0,0.0,0.0,0.0,0.0,0.0,0.0,0.0,7.7891,7.7891,7.7891,7.7891,7.7891,7.7891,7.7891,7.7891,7.7891,7.7891,7.7891,7.7891,7.7891,7.7891,7.7891,7.7891,7.7891,7.7891,7.7891,7.7891,7.7891,7.7891,7.7891,7.7891,7.7891,7.7891,7.7891,7.7891,7.7891,7.7891,7.7891,7.7891,7.7891,7.7891,7.7891,7.7891,7.7891,7.7891,7.7891,7.7891,7.7891,7.7891,7.7891,7.7891,7.7891,7.7891,7.7661,7.666,7.6423,7.6217,7.5271,7.3935,7.3824,7.6487,7.2464,6.9015,6.9015,6.9015,6.9015,6.9015,6.9015,6.9015,6.9015,6.9015,6.9015,6.9015,6.9015,6.9015,6.9015,6.9015,6.9015,6.9015,6.9015,6.9015,6.9015,6.9015,6.9015,6.9015,6.9015,6.9015,6.9015,6.9015,6.9015,6.7436,6.9405,7.1863,7.7447,7.9148,8.0075,8.2488,8.2229,8.1438,8.1438,8.1438,0.0,0.0,0.0,0.0,0.0,0.0,0.0,0.0,0.0,0.0,0.0,0.0,0.0,0.0,0.0,0.0,0.0,7.7891,7.7891,7.7891,7.7891,7.7891,7.7891,7.7891,7.7891,7.7891,7.7891,7.7891,7.7891,7.7891,7.7891,7.7891,7.7891,7.7891,7.7891,7.7891,7.7891,7.7891,7.7891,7.7891,7.7891,7.7891,7.7891,7.7891,7.7891,7.7891,7.7891,7.7891,7.7891,7.7891,7.7891,7.7891,7.7891,7.7891,7.7891,7.7891,7.7891,7.7891,7.7891,7.7891,7.7891,7.7891,7.7891,7.7891,7.7891,7.7891,7.7891,7.7891,7.7891,7.6177,7.4874,7.4874,7.1621,6.9015,6.9015,6.9015,6.9015,6.9015,6.9015,6.9015,6.9015,6.9015,6.9015,6.9015,6.9015,6.9015,6.9015,6.9015,6.9015,6.9015,6.9015,6.9015,6.9015,6.9015,6.9015,6.9015,6.9015,6.9015,6.9015,6.9015,6.9015,7.3555,7.6211,7.8265,8.208,8.3079,8.34,8.4,8.3966,8.3719,0.0,8.3719,0.0,0.0,0.0,0.0,0.0,0.0,0.0,0.0,0.0,0.0,0.0,0.0,0.0,0.0,0.0,0.0,0.0,7.7891,7.7891,7.7891,7.7891,7.7891,7.7891,7.7891,7.7891,7.7891,7.7891,7.7891,7.7891,7.7891,7.7891,7.7891,7.7891,7.7891,7.7891,7.7891,7.7891,7.7891,7.7891,7.7891,7.7891,7.7891,7.7891,7.7891,7.7891,7.7891,7.7891,7.7891,7.7891,7.7891,7.7891,7.7891,7.7891,7.7891,7.7891,7.7891,7.7891,7.7891,7.7891,7.7891,7.7891,7.7891,7.7891,7.7891,7.7891,7.7891,7.7891,7.7562,7.6423,7.3983,7.2202,7.2694,7.0693,6.9015,6.9015,6.9015,6.9015,6.9015,6.9015,6.9015,6.9015,6.9015,6.9015,6.9015,6.9015,6.9015,6.9015,6.9015,6.9015,6.9015,6.9015,6.9015,6.9015,6.9015,6.9015,6.9015,6.9015,6.9015,6.9015,6.9015,6.9015,7.3841,7.7338,8.0663,8.3767,8.4552,8.4552,8.4552,8.4552,8.4552,8.4552,8.4552,0.0,0.0,0.0,0.0,0.0,0.0,0.0,0.0,0.0,0.0,0.0,0.0,0.0,0.0,0.0,0.0,0.0,7.8247,7.7891,7.7891,7.7891,7.7891,7.7891,7.7891,7.7891,7.7891,7.7891,7.7891,7.7891,7.7891,7.7891,7.7891,7.7891,7.7891,7.7891,7.7891,7.7891,7.7891,7.7891,7.7891,7.7891,7.7891,7.7891,7.7891,7.7891,7.7891,7.7891,7.7891,7.7891,7.7891,7.7891,7.7891,7.7891,7.7891,7.7891,7.7891,7.7891,7.7891,7.7891,7.7891,7.7891,7.7891,7.7891,7.7891,7.7891,7.7891,7.7891,7.7694,7.6761,7.4747,7.2975,7.2694,7.1353,7.002,6.9141,6.9015,6.9015,6.9015,6.9015,6.9015,6.9015,6.9015,6.9015,6.9015,6.9015,6.9015,6.9015,6.9015,6.9015,6.9015,6.9015,6.9015,6.9015,6.7881,6.7299,6.7299,6.7299,6.7299,6.7299,6.7299,6.7299,7.2114,7.6072,8.0755,8.3834,8.4552,8.4552,8.4552,8.4552,8.4552,8.4552,8.4552,8.4552,0.0,0.0,0.0,0.0,0.0,0.0,0.0,0.0,0.0,0.0,0.0,0.0,0.0,0.0,0.0,0.0,7.872,7.815,7.815,7.7989,7.7891,7.7891,7.7891,7.7891,7.7891,7.7891,7.7891,7.7891,7.7891,7.7891,7.7891,7.7891,7.7891,7.7891,7.7891,7.7891,7.7891,7.7891,7.7891,7.7891,7.7891,7.7891,7.7891,7.7891,7.7891,7.7891,7.7891,7.7891,7.7891,7.7891,7.7891,7.7891,7.7891,7.7891,7.7891,7.7891,7.7891,7.7891,7.7891,7.7891,7.7891,7.7891,7.7891,7.7891,7.7891,7.7891,7.7891,7.7661,7.6525,7.5208,7.3712,7.2426,7.0933,6.9355,6.8675,6.8375,6.8026,6.8608,6.8753,6.8055,6.8608,6.9015,6.9015,6.9015,6.9015,6.9015,6.9015,6.9015,6.9015,6.9015,6.8869,6.852,6.6397,6.5234,6.5118,6.5118,6.5118,6.5118,6.5118,6.5118,7.6214,7.8842,8.1319,8.3929,8.4552,8.4552,8.4552,8.4552,8.4552,8.4552,8.4552,8.4552,8.4552,0.0,0.0,0.0,0.0,0.0,0.0,0.0,0.0,0.0,0.0,0.0,0.0,0.0,0.0,0.0,0.0,7.927,7.927,7.8373,7.7891,7.7891,7.7891,7.7891,7.7891,7.7891,7.7891,7.7891,7.7891,7.7891,7.7891,7.7891,7.7891,7.7891,7.7891,7.7891,7.7891,7.7891,7.7891,7.7891,7.7891,7.7891,7.7891,7.7891,7.7891,7.7891,7.7891,7.7891,7.7891,7.7891,7.7891,7.7891,7.7891,7.7891,7.7891,7.7891,7.7891,7.7891,7.7891,7.7891,7.7891,7.7891,7.7891,7.7891,7.7891,7.7891,7.7562,7.632,7.5736,7.5208,7.3712,7.1399,6.9543,6.9326,6.736,6.5001,6.2907,6.6368,6.7386,6.3082,6.6455,6.9015,6.9015,6.9015,6.9015,6.9015,6.9015,6.9015,6.9015,6.9015,6.7997,6.5816,6.6077,6.5874,6.5118,6.5118,6.5118,6.5118,6.5118,6.5118,7.2781,7.5763,7.9112,8.0805,8.2921,8.4552,8.4552,8.4552,8.4302,8.3482,8.3981,8.4552,8.4552,8.4552,0.0,0.0,0.0,0.0,0.0,0.0,0.0,0.0,0.0,0.0,0.0,0.0,0.0,0.0,0.0,8.0132,7.9509,7.9027,7.8469,7.7989,7.7891,7.7891,7.7891,7.7891,7.7891,7.7891,7.7891,7.7891,7.7891,7.7891,7.7891,7.7891,7.7891,7.7891,7.7891,7.7891,7.7891,7.7891,7.7891,7.7891,7.7891,7.7891,7.7891,7.7891,7.7891,7.7891,7.7891,7.7891,7.7891,7.7891,7.7891,7.7891,7.7891,7.7891,7.7891,7.7891,7.7891,7.7891,7.7891,7.7891,7.7891,7.7891,7.7891,7.7332,7.6579,7.5923,7.5106,7.4389,7.3684,7.1774,7.0067,6.9414,6.7362,6.5752,6.5458,6.51,6.4042,6.1457,6.3518,6.5001,6.5001,6.5001,6.5001,6.5001,6.5001,6.5001,6.5001,6.5001,6.4391,6.314,6.3547,6.3547,6.314,6.314,6.314,6.314,6.314,6.314,6.999,7.312,7.7314,7.8588,8.1057,8.3286,8.3512,8.3744,8.3542,8.2232,8.2599,8.3286,8.3548,8.3268,8.3125,0.0,0.0,0.0,0.0,0.0,0.0,0.0,0.0,0.0,0.0,0.0,0.0,0.0,0.0,0.0,8.0306,8.0044,7.9361,7.8311,7.8311,7.815,7.7891,7.7891,7.7891,7.7891,7.7891,7.7891,7.7891,7.7266,7.7003,7.7036,7.7299,7.7628,7.7891,7.7891,7.7891,7.7891,7.7891,7.7891,7.7891,7.7891,7.7891,7.7891,7.7891,7.7891,7.7891,7.7891,7.7891,7.7891,7.7891,7.7891,7.7891,7.7891,7.7891,7.7891,7.7891,7.7891,7.7759,7.7135,7.7003,7.7003,7.7003,7.6115,7.5326,7.5326,7.4471,7.3682,7.3682,7.267,7.1215,6.9568,6.7372,6.6276,6.734,6.3778,6.1195,6.1195,6.1195,6.1696,6.2886,6.2993,6.2993,6.2993,6.2993,6.2993,6.2993,6.2376,6.1968,6.1777,6.1391,6.1195,6.1195,6.1195,6.1195,6.1195,6.1195,6.1195,7.402,7.6094,7.8263,8.0741,8.0073,7.9194,8.0112,8.1119,8.1734,8.1143,7.9854,7.9215,8.0148,7.9165,7.8666,8.0093,0.0,0.0,0.0,0.0,0.0,0.0,0.0,0.0,0.0,0.0,0.0,0.0,0.0,0.0,0.0,8.1716,8.0565,7.9452,7.9361,7.8874,7.7989,7.7891,7.7891,7.7891,7.7891,7.7891,7.7825,7.5228,7.4077,7.4143,7.5425,7.6707,7.7891,7.7891,7.7891,7.7891,7.7891,7.7891,7.7891,7.7891,7.7891,7.7891,7.7891,7.7891,7.7891,7.7891,7.7891,7.7891,7.7891,7.7891,7.7891,7.7891,7.7891,7.7891,7.7891,7.7891,7.7266,7.4669,7.4077,7.4077,7.4077,7.3978,7.388,7.388,7.3781,7.3682,7.3682,7.3589,7.2532,6.974,6.6437,6.3675,6.2108,6.1473,6.1195,6.1195,6.1195,6.3176,6.8044,6.847,6.847,6.847,6.847,6.847,6.847,6.6163,6.4603,6.3704,6.2078,6.1195,6.1195,6.1195,6.1195,6.1195,6.1195,6.1195,6.575,6.8894,7.263,7.3204,7.5681,7.8276,7.9294,7.8402,7.7684,7.9079,7.9604,7.956,7.8611,7.8737,0.0,7.8523,7.9272,0.0,0.0,0.0,0.0,0.0,0.0,0.0,0.0,0.0,0.0,0.0,0.0,0.0,0.0,7.9637,7.8915,7.7786,7.7786,7.7535,7.7176,7.709,7.6828,7.6148,7.6148,7.6148,7.6115,7.4421,7.3682,7.3715,7.4274,7.4833,7.5359,7.5359,7.5359,7.5359,7.5359,7.5359,7.5359,7.5359,7.5359,7.5359,7.5359,7.5359,7.5359,7.5359,7.5359,7.5359,7.5359,7.5359,7.5359,7.5359,7.5359,7.5359,7.5359,7.5359,7.5096,7.3945,7.3682,7.3682,7.3682,7.2992,7.2367,7.2367,7.1644,7.1019,7.1019,7.1019,7.0577,6.9472,6.7405,6.5147,6.31,6.1888,6.1195,6.1195,6.2701,6.4603,6.6675,6.6865,6.7553,6.9123,6.9244,6.8074,6.5496,6.4739,6.3701,6.2173,6.0831,6.0063,6.0063,5.9411,5.901,5.901,5.901,5.901,6.1207,6.432,6.8266,6.8213,7.1539,7.5353,7.7048,7.5398,7.4446,7.7772,7.8525,7.8126,7.6662,7.6896,7.7123,7.63,7.7488,7.8523,0.0,0.0,0.0,0.0,0.0,0.0,0.0,0.0,0.0,0.0,0.0,0.0,0.0,7.8673,7.8147,7.704,7.704,7.6886,7.6609,7.6609,7.6176,7.5519,7.5216,7.4744,7.4232,7.3216,7.2785,7.2785,7.301,7.3025,7.3058,7.3518,7.3682,7.3682,7.3682,7.3682,7.3682,7.3682,7.3682,7.3682,7.3682,7.3682,7.3682,7.3682,7.3682,7.3682,7.3682,7.3682,7.3682,7.3682,7.3682,7.3682,7.3682,7.3025,7.2367,7.2367,7.2367,7.2367,7.2367,7.1545,7.0822,7.0822,6.9967,6.9244,6.9244,6.9244,6.9079,6.8652,6.7216,6.5375,6.3434,6.1326,6.0086,5.9715,6.1435,6.2695,6.3001,6.3702,6.5376,6.8183,6.8126,6.6496,6.3207,6.297,6.245,6.1141,5.9928,5.9097,5.8724,5.7991,5.7498,5.7498,5.7498,5.7498,6.4103,6.5269,6.6889,6.8582,6.8566,6.8952,7.2207,7.2132,7.2731,7.7731,7.5738,7.3281,7.3606,7.2439,7.1715,7.2751,7.4242,7.5276,7.5276,0.0,0.0,0.0,0.0,0.0,0.0,0.0,0.0,0.0,0.0,0.0,0.0,7.9851,7.9354,7.8183,7.8112,7.7641,7.6609,7.6609,7.6609,7.6609,7.5519,7.4077,7.2327,7.1297,7.074,7.0841,7.1351,7.1512,7.1644,7.309,7.3682,7.3682,7.3682,7.3682,7.3682,7.3682,7.3682,7.3682,7.3682,7.3682,7.3682,7.3682,7.3682,7.3682,7.3682,7.3682,7.3682,7.3682,7.3682,7.3682,7.3682,7.1512,6.9276,6.9276,6.9276,6.9276,6.9276,6.9276,6.9276,6.9276,6.9244,6.9244,6.9244,6.9244,6.875,6.7304,6.4979,6.2855,6.1484,5.9097,5.7207,5.6364,5.6218,5.6641,5.7545,5.9958,6.287,6.6299,6.5528,6.4407,6.3167,6.1943,6.1297,6.1266,5.9897,5.8724,5.7603,5.7498,5.7498,5.7498,5.7498,5.7498,6.0941,6.3841,6.7014,6.7559,6.8258,6.9098,7.011,7.0995,7.2332,7.4872,7.4068,7.2838,7.2628,7.3072,7.346,7.3443,7.4744,7.566,7.5265,7.5669,0.0,0.0,0.0,0.0,0.0,0.0,0.0,0.0,0.0,0.0,0.0,7.6703,7.6545,7.6162,7.6162,7.5999,7.5639,7.5639,7.5337,7.4613,7.4222,7.3808,7.3184,7.2258,7.1845,7.1845,7.1973,7.2099,7.2133,7.2529,7.2364,7.1601,7.089,7.0657,7.0657,7.0657,7.0657,7.0657,7.0657,7.0657,7.0657,7.0657,7.0657,7.0657,7.0657,7.0657,7.0657,7.0657,7.0657,7.0657,7.0657,6.9934,6.9244,6.9244,6.9244,6.9244,6.9244,6.8454,6.7731,6.7731,6.6975,6.6284,6.6284,6.5627,6.4914,6.4461,6.2326,6.055,6.0122,5.8622,5.7381,5.712,5.7091,5.7536,5.8765,5.9603,6.0951,6.287,6.235,6.1821,6.1471,6.1004,6.0808,6.0808,5.969,5.8791,5.8436,5.6845,5.6045,5.6045,5.5192,5.4822,6.0332,6.2791,6.5317,6.5947,6.6804,6.7843,6.901,6.9054,6.9456,7.1579,7.2181,7.2007,7.11,7.2059,7.2842,7.2268,7.3521,7.4415,7.4112,7.4564,0.0,0.0,0.0,0.0,0.0,0.0,0.0,0.0,0.0,0.0,7.5241,7.5241,7.5241,7.5241,7.5241,7.5241,7.5241,7.5241,7.4323,7.2457,7.2457,7.2457,7.2493,7.2104,7.1932,7.1967,7.2163,7.2292,7.2292,7.2292,7.1886,7.1307,7.0625,7.0381,7.0298,6.9949,6.978,6.9695,6.9298,6.9244,6.9244,6.9244,6.9244,6.9244,6.9244,6.9244,6.9244,6.9244,6.9244,6.8981,6.7896,6.7633,6.7633,6.7633,6.7633,6.7633,6.7633,6.6909,6.6252,6.6252,6.5528,6.4936,6.4936,6.4291,6.3641,6.3091,6.0975,5.921,5.8627,5.7107,5.6015,5.6015,5.6015,5.6566,5.7861,5.8311,5.9128,6.04,5.9341,5.8885,5.9323,5.9754,6.0022,6.0022,5.9242,5.8472,5.7594,5.6124,5.5142,5.47,5.3962,5.3699,6.1581,6.2095,6.2585,6.4164,6.4749,6.5687,6.8593,6.6627,6.5024,6.8037,6.9858,7.0419,6.8934,6.9669,7.036,7.0055,7.1102,7.1975,7.1933,0.0,7.3953,7.4063,0.0,0.0,0.0,0.0,0.0,0.0,7.4943,7.4943,7.4884,7.492,7.492,7.492,7.492,7.492,7.492,7.492,7.3421,7.0567,7.0567,7.0567,7.0603,7.1055,7.1239,7.1344,7.1899,7.2166,7.2166,7.2166,7.2166,7.2094,7.2232,7.2193,7.2047,7.1117,7.0719,7.0457,6.9392,6.9166,6.922,6.9079,6.9079,6.9166,6.9079,6.9079,6.9046,6.8948,6.8915,6.8323,6.5627,6.4936,6.4936,6.4936,6.4936,6.4936,6.4936,6.4871,6.4772,6.4772,6.4706,6.464,6.464,6.4559,6.4066,6.272,6.0519,5.8561,5.7229,5.5018,5.3699,5.3699,5.3699,5.4059,5.5142,5.6274,5.7328,5.8319,5.6443,5.5729,5.685,5.7988,5.8596,5.8596,5.8678,5.7684,5.5638,5.5547,5.4898,5.3718,5.3621,5.365,6.0151,6.214,6.4198,6.4726,6.5827,6.6999,6.7615,6.6117,6.4808,6.5457,6.5862,6.5962,6.5397,6.7618,7.0104,7.1874,7.1471,7.073,7.0254,6.9365,6.9292,7.0578,7.0961,7.1648,7.2889,7.2934,7.2686,7.2272,7.2256,7.2081,7.1694,7.1637,7.1637,7.1637,7.1637,7.1637,7.1637,7.1637,7.1281,7.0567,7.0567,7.0567,7.0567,7.0718,7.0745,7.0745,7.0923,7.0945,7.0945,7.0945,7.0508,6.987,7.1091,7.1066,7.0389,7.0632,7.008,6.8945,6.7922,6.8512,6.9432,6.7972,6.8005,6.8498,6.7788,6.7567,6.7337,6.6252,6.5956,6.5791,6.5101,6.4936,6.4936,6.4936,6.4936,6.4936,6.4936,6.4049,6.326,6.326,6.2372,6.1648,6.1648,6.092,6.0193,5.9838,5.7803,5.6216,5.582,5.451,5.3699,5.3699,5.3699,5.3767,5.4059,5.4318,5.415,5.3304,5.3573,5.3906,5.4153,5.5229,5.5728,5.5728,5.6583,5.7243,5.7743,5.685,5.5881,5.4826,5.3915,5.3,5.9657,6.2197,6.4266,6.2073,6.2795,6.4008,6.3814,6.3071,6.2361,6.2228,6.2834,6.3564,6.4218,6.572,6.7572,6.9703,6.9281,6.8548,6.8211,6.8658,6.9102,0.0,0.0,7.1206,7.139,7.1846,7.1984,7.1749,7.1702,7.1561,7.129,7.129,7.129,7.129,7.1071,7.095,7.095,6.9441,6.8568,6.832,6.832,6.832,6.8355,6.9069,6.9426,6.9461,0.0,7.0567,7.0567,7.0567,7.0234,6.9824,7.0673,7.0649,7.0175,7.0545,6.9888,6.8637,6.7605,6.7873,6.8497,6.7166,6.7042,6.7278,6.6385,6.6054,6.5923,6.5134,6.3983,6.2964,6.2964,6.2964,6.2964,6.2964,6.2964,6.2964,6.2964,6.2339,6.178,6.178,6.1155,6.0629,6.0629,6.0101,5.9289,5.8213,5.6907,5.5461,5.3823,5.2979,5.2362,5.195,5.1827,5.1827,5.1827,5.1827,5.1745,5.1561,5.1642,5.1897,5.2421,5.3506,5.432,5.4841,5.5322,5.5965,5.6703,5.6074,5.499,5.339,5.2819,5.2146,5.9322,6.1495,6.2757,5.8542,5.8809,6.0098,6.011,5.9949,5.9701,5.9612,6.0719,6.2147,6.3537,6.381,6.4307,6.5738,6.6069,6.6175,6.6175,6.8524,6.9884,6.8799,0.0,7.1494,7.0422,7.11,7.1593,7.151,7.151,7.1468,7.1426,7.1383,7.1383,7.1383,7.0975,7.0787,7.0881,6.803,6.6376,6.5951,6.5951,6.5951,6.6023,6.7349,6.789,6.7856,0.0,6.9892,6.9818,6.9818,6.9818,6.9854,7.0068,7.0175,7.0175,7.0027,6.9542,6.884,6.7745,6.7405,6.7371,6.6415,6.6262,6.6188,6.5103,6.4817,6.4751,6.4553,6.2582,6.0629,6.0629,6.0465,6.0366,6.0596,6.03,6.0037,6.0268,6.0136,5.9972,5.9972,5.9972,5.9972,5.9972,5.9863,5.9024,5.691,5.6262,5.4906,5.1848,5.1272,5.069,4.9853,4.9791,4.9791,4.9791,4.9791,5.0009,5.0642,4.9746,4.9568,5.0612,5.1559,5.269,5.3942,5.4092,5.4296,5.452,5.452,5.3491,5.1539,5.137,5.1315,5.7635,5.8086,5.8326,5.7567,5.8726,6.0441,6.1845,6.1047,6.0021,5.9981,6.017,6.0389,6.0416,6.1557,6.2566,6.267,6.39,6.483,6.4821,6.5171,6.5833,6.6904,6.7276,0.0,6.9135,6.9377,6.931,6.8841,6.8843,6.8629,6.8173,6.8173,6.8173,6.8173,6.8093,6.8252,6.8701,6.7775,6.728,6.7197,6.7197,6.7197,6.7197,6.7453,6.7228,6.6738,0.0,0.0,6.6429,6.6429,6.6429,6.6571,6.7927,6.8408,6.8353,6.7716,6.8134,6.8826,6.7406,6.741,6.7703,6.5954,6.6023,6.6319,6.478,6.4302,6.4033,6.2652,6.1538,6.0629,6.0629,5.9741,5.915,6.0366,5.8788,5.7341,5.8591,5.7867,5.7013,5.7013,5.7013,5.7013,5.7013,5.6299,5.5571,5.5195,5.3498,5.211,5.1587,5.0572,4.9943,4.9791,4.9791,4.9791,4.9791,4.9791,4.892,4.6846,4.656,4.656,4.67,4.6923,4.7931,4.9874,5.0714,5.2139,5.4139,5.4139,5.3581,5.2451,5.158,5.1109,5.4857,5.4508,5.4624,5.459,5.5989,5.7784,5.9454,5.9986,6.0062,6.0062,6.0062,6.0327,6.1115,6.1016,6.1124,6.1958,6.192,6.2128,6.3036,6.4684,6.6061,6.6793,6.7601,6.8018,0.0,6.8733,6.9126,6.8886,6.8798,6.8657,6.8416,6.8325,6.8271,6.8271,6.7997,6.7076,6.55,6.5266,6.5463,6.6081,6.6081,6.6557,6.744,6.744,6.732,6.6999,6.6999,6.6864,6.6678,6.6678,6.6678,6.6705,6.7052,6.7192,6.7142,6.65,6.6685,6.7124,6.6472,6.6481,6.6535,6.5307,6.516,6.5282,6.4011,6.3095,6.221,6.0956,5.9552,5.8328,5.8328,5.7835,5.7506,5.8163,5.7308,5.6519,5.7177,5.6815,5.6393,5.6393,5.5899,5.5502,5.5502,5.4658,5.3491,5.2188,5.1617,5.064,4.8698,4.844,4.8299,4.7755,4.7668,4.7668,4.7668,4.6446,4.5166,4.3945,4.3858,4.3858,4.3858,4.3858,4.4306,4.5285,4.7489,4.9631,5.1752,5.2541,5.2397,5.1527,5.0991,5.0771,5.3242,0.0,5.2982,5.3372,5.4546,5.6037,0.0,5.915,6.0062,6.0062,6.0062,6.0441,6.177,6.0774,6.0181,6.1476,6.0517,6.0189,6.1923,6.4384,6.6116,6.6484,6.7536,6.7776,6.6578,6.7549,6.8267,6.8267,6.8536,6.8507,6.813,6.8382,6.8335,6.7888,6.753,6.6141,6.3532,6.3468,6.3903,6.4752,6.4752,6.5419,6.6639,6.6639,6.6567,6.6455,6.686,6.6969,6.689,6.7293,6.744,6.74,6.6914,6.674,6.6651,6.6114,6.5901,6.585,6.5732,6.5715,6.5575,6.4996,6.4792,6.4678,6.3775,6.2212,6.0605,5.995,5.8261,5.664,5.664,5.6167,5.5895,5.6256,5.5796,5.5401,5.573,5.5533,5.5372,5.5372,5.4496,5.3814,5.3814,5.2766,5.1209,4.9341,4.9483,4.8786,4.5852,4.6138,4.6262,4.5103,4.4992,4.4992,4.4992,4.3276,4.2171,4.2171,4.2171,4.2171,4.2171,4.2171,4.2171,4.2171,4.4857,4.6923,4.833,4.9856,5.044,5.0052,5.0052,5.0314,0.0,5.4455,5.5008,5.6568,5.7165,5.7822,5.9492,5.9986,0.0,6.0062,6.0062,6.01,6.0213,6.0137,6.0099,6.0213,6.0099,6.0592,6.2338,6.2756,6.3393,6.4733,6.4883,6.4838,6.4724,6.48,6.4876,6.4876,6.6312,6.6526,6.4925,6.6361,6.6347,6.4572,6.4676,6.4694,6.4429,6.4429,6.4375,6.4191,6.4191,6.4197,6.4196,6.4196,6.3934,0.0,6.5135,6.5566,6.5236,6.6816,6.744,6.744,6.74,6.74,6.7283,6.6651,6.6423,6.6376,6.585,6.5715,6.5715,6.5663,6.5627,6.5468,6.4678,6.2321,5.9955,5.9865,5.8623,5.7288,5.7288,5.5719,5.4579,5.5993,5.4218,5.2574,5.3955,5.3166,5.2212,5.2212,5.1477,5.0854,5.0854,4.9155,4.7809,4.756,4.6864,4.5711,4.4433,4.4288,4.3901,4.2578,4.2433,4.2433,4.2433,4.2258,4.2171,4.2171,4.2171,4.2171,4.2171,4.2171,4.2171,4.2171,4.3246,4.3874,4.4018,4.5902,4.749,4.8744,4.8478,4.9588,5.457,5.5446,5.6293,5.588,5.6672,5.7708,5.8353,5.9302,6.0062,6.0062,6.0062,6.0023,5.9855,5.9813,5.9802,5.9714,5.9707,5.9934,6.0579,6.1572,6.2419,6.2985,6.3919,6.4534,0.0,6.4534,6.4577,6.4653,6.5161,6.527,6.4678,6.519,6.418,6.1337,6.1436,6.1459,6.1372,6.1372,6.1864,6.2799,6.2799,6.3335,6.4307,6.4307,6.4139,6.382,6.4457,6.4581,0.0,6.4988,6.5285,6.5218,6.4926,6.4791,6.472,6.417,6.3803,6.3574,6.3341,6.3096,6.279,6.279,6.279,6.274,6.245,6.1531,6.0295,5.8822,5.6625,5.4661,5.4661,5.3723,5.287,5.3429,5.2705,5.2048,5.2607,5.1227,4.9854,4.9854,4.7837,4.6187,4.6187,4.5075,4.4169,4.4169,4.3884,4.3392,4.2956,4.2898,4.2694,4.2229,4.2171,4.1502,3.9873,3.9728,3.9728,3.9728,3.9728,3.9728,3.9728,3.9728,3.9728,3.9728,4.0538,4.1484,4.246,4.3699,4.5276,4.7232,4.7167,4.7877,5.6061,5.7186,5.7912,5.6777,5.7437,5.8201,5.767,5.877,5.9791,5.9297,5.9554,5.984,5.9676,5.9624,5.9563,5.9504,5.9493,5.9493,5.9493,6.0476,6.1206,6.1206,6.2228,6.2958,0.0,0.0,6.3001,6.3043,6.3478,6.3549,6.3098,6.3516,6.2466,5.9586,5.9606,5.9624,5.9543,5.9631,6.0198,6.1249,6.1249,6.1872,6.2948,6.2948,6.2843,6.2704,6.3231,6.3425,6.3382,6.3908,6.4069,6.3979,6.3622,6.346,6.3354,6.2843,6.2489,6.2182,6.1929,6.1575,6.1256,6.1102,6.1006,6.1006,6.1006,6.0328,5.9199,5.7592,5.5335,5.3338,5.31,5.2458,5.1785,5.1324,5.1226,5.1094,5.0634,4.9333,4.8201,4.794,4.5806,4.3896,4.3608,4.2739,4.2171,4.2171,4.2171,4.2025,4.1618,4.156,4.1415,4.0978,4.0949,4.0222,3.8419,3.8274,3.8274,3.8274,3.8274,3.8274,3.8274,3.8274,3.8274,3.8274,3.8808,3.9594,4.0688,4.1213,4.2603,4.4673,4.515,4.6168,5.9251,5.9858,6.0062,6.0062,6.0062,5.9606,5.7936,5.864,5.9208,5.7653,5.8447,5.9417,5.9417,5.9406,5.9406,5.9443,5.9443,5.9443,5.9481,5.9481,5.9481,5.9481,5.9481,5.9481,5.9443,5.9443,5.9481,5.9481,6.1043,0.0,5.9568,6.117,6.1337,5.9531,5.9616,5.9663,5.9663,5.9941,5.9943,5.9669,5.9669,5.9624,5.9493,5.9493,5.9493,5.9568,6.1258,6.1977,0.0,6.3817,6.4309,6.4103,6.4103,6.3999,6.381,6.3317,6.3129,6.3003,6.2106,6.1765,6.1679,6.1173,6.1019,6.1019,6.1019,5.883,5.6404,5.6359,5.5364,5.4061,5.3312,5.2458,5.1522,5.0075,4.9746,4.9352,4.7965,4.7576,4.7395,4.6589,4.5517,4.4531,4.362,4.271,4.2142,4.2142,4.2142,4.1676,4.0397,4.0251,3.9728,3.839,3.8274,3.8274,3.8274,3.8274,3.8274,3.8274,3.8274,3.8274,3.8274,3.8274,3.8274,3.8274,3.8274,3.8274,3.8274,3.8315,3.9177,4.0834,4.23,4.464,5.9487,6.0022,6.0023,5.9817,5.9806,5.9342,5.766,5.7584,5.7407,5.5758,5.577,5.6013,5.5955,5.5671,5.5854,5.6868,5.6772,5.6993,5.8091,5.8239,5.8239,5.8239,5.8239,5.8346,5.8608,5.8669,5.8847,5.9328,5.9796,5.9893,5.9481,5.9924,5.9907,5.9381,5.9481,5.9556,5.9556,5.963,5.9657,5.9673,5.9673,5.9758,5.9889,5.9889,5.9793,5.9624,6.0155,6.0332,0.0,6.0767,6.0931,6.0879,6.0879,6.0798,6.0623,6.0505,6.0151,5.9729,5.9447,5.9186,5.8866,5.8432,5.8302,5.8302,5.8302,5.7653,5.685,5.6457,5.6059,5.5561,5.4749,5.2903,5.0715,4.8745,4.8234,4.8135,4.7735,4.5905,4.426,4.4035,4.1939,4.0201,3.992,3.9594,3.9408,3.9408,3.9408,3.9292,3.8914,3.8855,3.871,3.8303,3.8274,3.8274,3.8274,3.8274,3.8274,3.8274,3.8274,3.8274,3.8274,3.8274,3.8274,3.8274,3.8274,3.8274,3.8274,3.8876,3.9385,3.9911,4.1488,4.2723,5.9796,5.9983,5.9858,5.9717,5.919,5.8236,5.6526,5.6093,5.5604,5.3867,5.3915,5.423,5.4129,5.383,5.4033,5.5506,5.5558,5.5921,5.7538,5.7724,5.7724,5.7724,5.7724,5.7858,5.8076,0.0,5.8247,5.8659,5.8835,5.8847,5.8797,5.8269,5.7986,5.7986,5.7677,5.748,5.748,5.7503,5.7587,5.7653,5.7653,5.8096,5.8891,5.8891,5.9179,5.968,5.968,5.9699,0.0,5.9714,5.9654,5.9574,5.9574,5.9493,5.9374,5.9374,5.9102,5.8696,5.8535,5.8276,5.7887,5.7516,5.748,5.7551,5.7407,5.7369,5.7294,5.6808,5.6008,5.5129,5.4443,5.2129,4.9468,4.7318,4.6754,4.659,4.6031,4.4174,4.2491,4.2207,4.0327,3.8632,3.8344,3.8274,3.8274,3.8274,3.8274,3.8274,3.8274,3.8274,3.8274,3.8274,3.7579,3.7017,3.7017,3.7017,3.7017,3.7017,3.7407,3.765,3.765,3.8104,3.8274,3.8274,3.8274,3.8274,3.8274,3.874,3.9318,4.001,4.105,4.1866,6.0021,5.9851,5.9613,5.9455,5.8249,5.6645,5.4759,5.4216,5.3628,5.1958,5.256,5.3338,5.3189,5.2956,5.3242,5.4641,5.4943,5.5499,5.7182,5.7476,5.7514,5.7621,5.7621,5.7621,5.7656,5.769,5.769,5.7724,5.8076,5.8033,5.7471,5.6379,5.5692,5.5692,5.4799,5.4305,5.4359,5.4484,5.4576,5.4596,5.4596,5.5429,5.6894,5.6894,5.7832,5.943,5.943,5.9692,0.0,6.0023,5.9905,5.9712,5.9712,5.9624,5.9515,5.9515,5.9406,5.9247,5.891,5.8621,5.8332,5.7914,5.807,5.8332,5.7951,5.7715,5.7471,5.7038,5.5261,5.34,5.2883,5.0649,4.8068,4.6133,4.5454,4.4946,4.3631,4.2625,4.1775,4.0989,4.0075,3.9252,3.8454,3.8274,3.8274,3.8175,3.8175,3.8104,3.8034,3.8034,3.8034,3.8034,3.6253,3.5091,3.5195,3.5195,3.5195,3.5195,3.6104,3.6577,3.6577,3.7579,3.8175,3.8175,3.8175,3.8175,3.8274,3.8245,3.908,4.0678,4.0865,4.1779,5.9612,5.9556,5.9174,5.7769,5.7096,5.6041,5.3039,5.2062,5.1349,4.9651,5.0321,5.0834,4.9612,5.006,5.072,5.1084,5.1399,5.2346,5.4523,5.5361,5.5974,5.6603,5.6682,5.6814,5.7254,5.7256,0.0,5.7724,5.7825,5.7104,5.5405,5.4279,5.368,5.368,5.3483,5.3486,5.3806,5.386,5.4072,5.448,5.448,5.4711,5.5183,5.5183,5.6092,5.7691,5.7691,5.8479,5.9764,5.9764,5.9863,5.9983,5.9983,5.9813,5.9638,5.9638,5.9565,5.9432,5.9355,5.9221,5.9005,5.8645,5.876,5.9005,5.8608,5.7487,5.6201,5.5368,5.3948,5.2455,5.2081,5.0188,4.821,4.7205,4.5388,4.3729,4.3433,4.2625,4.1775,4.0989,4.0075,3.9252,3.8454,3.8274,3.8034,3.719,3.7089,3.6798,3.5954,3.5879,3.5879,3.5879,3.4625,3.4157,3.5091,3.5195,3.5195,3.5195,3.5424,3.5501,3.5501,3.6503,3.7089,3.7089,3.7089,3.7478,3.8274,3.8227,3.872,3.9816,4.1142,4.1893,5.8547,5.8273,5.7766,5.6057,5.4859,5.3578,5.1803,5.0545,4.9479,4.8594,4.881,4.8779,4.7675,4.7815,4.8193,4.8665,4.8886,4.9731,5.1724,5.2365,5.3036,5.4171,5.4324,5.4846,5.6074,5.619,5.6453,5.7025,5.7065,5.5782,5.2889,5.2272,5.1851,5.1571,5.1024,5.0826,5.1056,5.1056,5.1188,5.1473,5.1473,5.1893,5.2686,5.2868,5.3908,5.5582,5.5766,5.6354,5.7229,5.7229,5.7355,5.7623,5.8458,5.8733,5.8757,5.9554,5.9744,5.9592,5.9592,5.9466,5.9087,5.7412,5.6945,5.7006,5.6784,5.606,5.5068,5.437,5.3009,5.1563,5.1055,4.9194,4.7429,4.6908,4.5253,4.3737,4.3737,4.2808,4.1775,4.0989,4.0075,3.9252,3.8454,3.7863,3.7335,3.6798,3.6327,3.5804,3.5271,3.3364,3.2037,3.2037,3.1455,3.1371,3.1954,3.2037,3.2004,3.2121,3.2598,3.2908,3.294,3.3939,3.4539,3.4539,3.4539,3.4751,3.5337,3.5623,3.62,3.7086,3.9405,4.073,5.6888,5.6396,5.5833,5.4183,5.2368,5.0927,5.0668,4.9208,4.7941,4.7941,4.7973,4.7743,4.6903,4.6712,4.7012,4.8028,4.8073,4.8486,4.9924,5.0236,5.0684,5.1614,5.1717,5.2373,5.4099,5.4254,0.0,0.0,5.5243,5.3738,5.0358,5.0137,4.9834,4.9143,4.8157,4.7754,4.7941,4.8036,4.813,4.8215,4.8215,4.8876,5.0123,5.0465,5.1582,5.3291,5.3678,0.0,5.4468,5.4565,5.4651,5.4917,5.6325,5.6963,5.7213,5.8656,5.9033,5.8849,5.8849,5.8797,5.8259,5.5707,5.4758,5.4652,5.4652,5.4358,5.3908,5.3374,5.2041,5.0557,4.9766,4.8209,4.67,4.6184,4.5121,4.4265,4.4165,4.3126,4.1925,4.0989,4.0075,3.9252,3.8454,3.7407,3.6651,3.6503,3.5397,3.4522,3.4366,3.0612,2.7901,2.788,2.7642,2.7467,2.7735,2.7673,2.7699,2.804,2.8854,2.9472,2.971,3.0715,3.1277,3.1277,3.1277,3.1417,3.1555,3.2199,3.3011,3.4048,3.6809,3.861,5.4179,5.4118,5.355,5.1562,5.0845,5.0283,4.8923,4.7707,4.6883,4.6883,4.8197,4.8843,4.7468,4.8249,4.9564,5.0921,5.0672,5.0572,5.1488,5.2177,5.2018,5.0253,5.0044,5.0197,5.047,5.0504,5.0554,5.0652,5.0652,4.9791,4.7952,4.7882,4.7204,4.5782,4.5592,4.5926,4.6847,4.7406,4.7863,4.8215,4.8215,4.8325,4.8509,4.8601,4.9465,5.102,5.1398,5.2464,5.3978,5.4316,5.4534,5.468,5.4908,5.5075,5.521,5.5438,5.5535,5.5618,5.5618,5.5525,5.5366,5.5082,5.4879,5.4785,5.4785,5.3649,5.2308,5.1786,5.0398,4.8944,4.8113,4.7726,4.7238,4.63,4.5514,4.4796,4.4265,4.3632,4.2714,4.1143,4.0075,3.9252,3.8454,3.7407,3.6402,3.5577,3.3629,3.2003,3.1107,2.7727,2.5332,2.5196,2.3797,2.3275,2.4266,2.3943,2.409,2.4992,2.5235,2.5696,2.6592,2.7641,2.8201,2.8201,2.8201,2.8601,2.9553,2.9534,3.0469,3.2237,3.4129,3.5812,5.2173,5.1887,5.149,4.9703,4.9067,4.8633,4.7578,4.681,4.6234,4.5879,4.7089,4.7805,4.6179,4.6528,4.6944,4.6713,4.583,4.5283,4.5634,4.6341,4.6806,4.6587,4.7043,4.788,4.9119,4.924,4.9362,0.0,4.7517,4.6022,4.5578,4.5593,4.5432,4.511,4.5075,4.5312,4.5796,4.6393,4.6844,4.7026,4.7341,4.7548,4.7548,4.777,4.8228,4.8914,4.9327,5.0027,5.0886,5.1088,5.1366,5.1766,5.271,5.3177,5.3387,5.4341,5.4741,5.4813,5.4879,5.3554,5.1884,5.1998,5.196,5.1889,5.2048,5.1419,5.062,5.0471,4.9803,4.8976,4.8431,4.8247,4.7963,4.7132,4.647,4.5837,4.5346,4.4446,4.3407,4.226,4.0616,3.9252,3.8454,3.6944,3.5473,3.4392,3.2391,2.9817,2.6457,2.342,2.1232,2.0455,1.9395,1.8978,1.9579,1.8997,1.8935,1.9769,2.1615,2.2414,2.1644,2.3117,2.4007,2.4007,2.4666,2.4864,2.4728,2.5711,2.6586,2.7471,3.0952,3.3458,5.0121,4.9792,4.9439,4.802,4.7476,4.7062,4.6399,4.5914,4.5426,4.4937,4.5665,4.6112,4.4914,4.4623,4.4431,4.3992,4.2796,0.0,4.1924,4.2396,4.2892,4.3271,4.3852,4.4954,4.6574,4.6933,0.0,0.0,4.4521,4.2984,4.3552,4.3604,4.3913,4.4626,4.4674,4.4688,4.4843,4.5336,4.568,4.5809,4.6295,4.6566,4.653,4.7025,4.7239,4.7238,4.7796,4.8178,4.8372,4.8509,4.8842,4.9323,5.0664,5.1262,5.1557,5.2815,5.33,5.3329,5.3379,5.171,4.9564,4.9673,4.9659,4.9619,4.9819,4.9727,4.9621,4.9721,4.9583,4.9365,4.8931,4.8753,4.8519,4.7926,4.7195,4.659,4.631,4.5132,4.388,4.3114,4.1258,3.9584,3.8769,3.6696,3.4678,3.3258,3.0951,2.7531,2.2399,1.8983,1.6614,1.5625,1.4704,1.4196,1.4196,1.2437,1.1851,1.321,1.5246,1.6208,1.5797,1.7203,1.8566,1.9743,2.0641,2.0508,1.9219,2.0928,2.2122,2.2894,2.715,3.0327,4.7824,4.7788,4.7484,4.646,4.6178,4.5978,4.5302,4.4701,4.4215,4.4165,4.4245,4.4242,4.4181,4.3563,4.3898,4.6596,4.5806,4.4863,4.4863,4.4962,4.3926,4.127,4.1052,4.1145,4.1176,4.1938,0.0,4.13,0.0,4.1295,4.2068,4.2068,4.2536,4.3389,4.3444,4.3698,4.4165,4.4215,4.4558,4.5155,4.5166,4.5166,4.5212,4.5851,4.6137,4.6219,4.7203,4.7679,4.7707,4.8347,4.864,4.8685,4.9126,4.9402,4.9526,4.9601,4.9741,4.9801,4.9667,4.9539,4.9402,4.9516,4.9555,4.9555,4.9602,4.9673,4.9705,4.962,4.9683,4.9642,4.9089,4.8877,4.8678,4.8246,4.7359,4.6629,4.6629,4.5296,4.388,4.3114,4.1797,4.0489,3.9554,3.7048,3.4444,3.2251,2.9012,2.4957,1.9779,1.4806,1.1848,1.1758,0.9745,0.8373,0.8373,0.3835,0.2217,0.5217,0.3728,0.4756,0.9221,0.9473,1.1553,1.5775,1.6047,1.5365,1.3828,1.4936,1.6873,1.9712,2.2582,2.5824,4.5997,4.5997,4.5949,4.5558,4.547,4.5291,4.4654,4.4314,4.3862,4.2963,4.3481,4.3562,4.1743,4.1256,4.1092,4.0763,3.9645,3.8914,3.9624,4.026,4.0414,4.0002,4.0489,4.0803,0.0,0.0,0.0,3.9946,4.0489,4.0927,4.1234,4.1234,4.1387,4.172,4.172,4.1834,4.1972,4.203,4.2622,4.3711,4.4667,4.5075,4.5075,4.5302,4.547,4.547,4.6305,4.6771,4.7025,4.7692,4.8114,4.8394,4.8677,4.8838,4.8902,4.9165,4.9269,4.9317,4.9252,4.9255,4.929,4.9389,4.9413,4.9341,4.9495,4.9564,4.9526,4.956,4.9609,4.9574,4.9427,4.9346,4.9173,4.868,4.8306,4.7884,4.74,4.6476,4.5314,4.3863,4.2832,4.1648,3.9785,3.8111,3.5612,3.1407,2.6306,2.0795,1.4885,1.0663,0.7661,0.6112,0.3166,0.0886,0.0,-0.4752,-0.668,-0.4245,-0.3742,-0.3023,-0.186,0.0232,0.2085,0.3641,0.6342,0.6811,0.4797,0.7236,0.9404,1.1177,1.4828,2.054,4.5957,4.582,4.5635,4.498,4.4749,4.4606,4.398,4.3637,4.3126,4.2184,4.2079,4.1531,3.959,3.8857,3.807,3.6716,3.5756,3.5577,3.6577,3.7249,3.8029,3.8982,3.9584,0.0,0.0,0.0,0.0,3.8514,3.9125,3.972,4.0362,4.0331,4.0489,4.0834,4.0803,4.0803,4.0803,4.0803,4.1324,4.2228,4.3452,4.4048,4.4048,4.4524,4.4749,4.4796,4.547,4.5907,4.6168,4.6954,4.7437,4.7754,4.8268,4.8448,4.8497,4.8848,4.8928,4.8864,4.897,4.8991,4.9032,4.9252,4.9255,4.9222,4.9399,4.944,4.945,4.9527,4.9591,4.9639,4.9601,4.9579,4.947,4.9149,4.8965,4.8699,4.8121,4.7349,4.634,4.5079,4.3979,4.2635,4.0585,3.9211,3.6765,3.1972,2.6674,2.1066,1.4726,0.8217,0.3198,0.0322,-0.3194,-0.5991,-0.7501,-1.2521,-1.482,-1.2973,-1.2897,-1.3138,-1.3686,-1.1855,-0.9743,-0.7315,-0.4549,-0.3532,-0.4309,-0.2118,-0.0227,0.1514,0.5256,1.223,4.7494,4.7117,4.6628,4.4536,4.4015,4.3963,4.3356,4.26,4.2016,4.1893,3.9854,3.807,3.7971,3.6392,3.5118,3.5118,3.5118,3.5501,3.6503,3.6651,3.7017,3.8104,3.8175,3.8175,0.0,3.6327,3.5652,3.6651,3.6724,3.7464,3.9258,3.9325,3.975,4.0615,4.0678,4.0678,4.0678,4.0678,4.0678,4.0803,4.1537,4.1893,4.201,4.336,4.4065,4.4115,4.4796,4.5075,4.5166,4.6168,4.6629,4.6739,4.7754,4.8187,4.8243,4.8448,4.8372,4.8206,4.8473,4.8556,4.864,4.9011,4.9128,4.9165,4.9185,4.9348,4.9544,4.9535,4.9666,4.9697,4.9584,4.9569,4.9583,4.9583,4.9288,4.898,4.8828,4.7793,4.6861,4.6703,4.5245,4.3577,4.2099,4.0213,3.7713,3.4,3.0438,2.5873,1.9536,0.7908,-0.1277,-0.534,-0.9026,-1.1949,-1.3909,-1.9406,-2.2098,-2.0649,-2.3923,-2.5839,-2.574,-2.6327,-2.3415,-1.6537,-1.6316,-1.5264,-1.3263,-1.3263,-1.1837,-0.8988,-0.6123,0.0728,4.3246,4.4162,4.4447,4.2266,4.2444,4.2831,4.179,4.202,4.1889,3.9644,3.8592,3.7478,3.5267,3.4392,3.3812,3.3031,3.2949,3.3249,3.434,3.4497,3.5118,3.6944,3.6503,3.6029,3.6029,3.5501,3.5348,3.5577,3.5652,3.5852,3.6318,3.6346,3.6466,3.673,3.673,3.7121,3.7889,3.7121,3.7802,3.9816,3.9427,3.9885,4.1173,4.1533,4.2062,4.2631,4.388,4.4412,4.4461,4.5188,4.5789,4.631,4.6883,4.7367,4.7739,4.7328,4.7159,4.7195,4.802,4.8315,4.8342,4.842,4.8483,4.8497,4.8588,4.8603,4.8691,4.9166,4.916,4.9108,4.9364,4.9498,4.9553,4.958,4.95,4.932,4.8998,4.8587,4.804,4.7356,4.6489,4.5262,4.3394,4.1254,3.8593,3.4809,3.0582,2.5692,1.9823,1.1514,0.211,-0.8722,-1.3849,-1.7518,-2.0027,-2.4261,-2.7225,-2.83,-3.055,-3.1666,-3.1271,-3.1204,-2.9793,-2.6694,-2.459,-2.3547,-2.3507,-2.3426,-2.3802,-2.4558,-1.9386,-1.3186,4.2898,4.3467,4.3184,4.127,4.1394,4.1734,4.0989,4.0817,4.0293,3.8494,3.7092,3.5694,3.3945,3.3249,3.2811,0.0,3.2115,3.2424,3.3491,3.3652,3.4261,3.5879,3.4809,3.4024,3.4497,3.4104,3.4024,3.4497,3.4575,3.4731,3.5195,3.5195,3.5195,3.5195,3.5195,3.5501,3.6104,3.5501,3.6049,3.7691,3.752,3.7983,3.9072,3.9854,4.0428,4.0955,4.251,4.3234,4.334,4.428,4.4937,4.5302,4.5796,4.6204,4.6509,4.6164,4.6008,4.6168,4.7195,4.7562,4.7625,4.8065,4.8142,4.8059,4.8099,4.8194,4.8261,4.8532,4.8603,4.8713,4.8979,4.9243,4.9495,4.9484,4.9549,4.9583,4.9301,4.9051,4.8698,4.8097,4.7633,4.6668,4.4635,4.2702,3.9868,3.5177,3.0579,2.5381,1.8877,1.1433,0.2825,-0.7568,-1.3658,-1.9235,-2.458,-2.8359,-3.1473,-3.3705,-3.5657,-3.6529,-3.6142,-3.6592,-3.6237,-3.4899,-3.3396,-3.2843,-3.3357,-3.3242,-3.3688,-3.4567,-3.0614,-2.7697,4.4457,4.3766,4.2231,4.0703,4.0454,4.0515,0.0,3.905,3.7934,3.7649,3.5468,3.3572,3.3491,3.2729,3.2115,3.2115,3.2115,3.2424,3.333,3.3411,3.3706,3.4549,3.2899,3.2067,3.2981,3.2209,3.2067,3.2981,3.3062,3.344,3.4366,3.46,3.4627,3.4627,3.4782,3.4886,3.5041,3.4886,3.4964,3.5168,3.5919,3.6309,3.6455,3.8034,3.8946,3.9211,4.0864,4.1716,4.1952,4.3307,4.3964,4.4065,4.4749,4.4937,4.489,4.4937,4.4983,4.5132,4.6129,4.6479,4.6629,4.7562,4.7735,4.7619,4.7605,4.7816,4.8028,4.7865,4.8073,4.8374,4.8556,4.8922,4.9258,4.9356,4.9516,4.964,4.9617,4.9301,4.9022,4.8898,4.8505,4.7608,4.5716,4.4079,4.1121,3.5263,3.0377,2.4797,1.7731,0.9416,0.1554,-0.4842,-1.1352,-1.8739,-2.7408,-3.1734,-3.4965,-3.731,-3.9474,-4.0528,-4.0354,-4.1752,-4.209,-4.0976,-4.1349,-4.1615,-4.1717,-4.1768,-4.1341,-4.0337,-3.9679,-4.0836,0.0,0.0,0.0,0.0,0.0,0.0,0.0,3.6792,3.6767,3.4864,3.4024,3.333,3.2564,3.2174,3.2115,3.2115,3.2115,3.2174,3.2341,3.2424,3.2125,3.1383,3.0104,2.9366,2.9519,2.9366,2.9366,2.9519,2.9606,2.9671,2.9822,3.0767,3.1275,3.1275,3.2184,3.3112,3.3945,3.3112,3.3491,3.5195,3.4549,3.46,3.5446,3.5797,3.6876,3.8358,3.8699,3.969,4.1112,4.2036,4.271,4.3274,4.4032,4.4065,4.3751,4.4149,4.4314,4.4412,4.5177,4.54,4.5444,4.5626,4.6038,4.6328,4.6166,4.6667,4.7345,4.7722,4.7795,4.7875,4.8473,4.8497,4.8593,4.9205,4.9176,4.9111,4.9634,4.9501,4.9318,4.9382,4.8788,4.7742,4.6308,4.4159,4.0992,3.607,2.9322,2.3726,2.0534,0.9997,-0.0715,-1.0247,-1.5046,-2.0442,-2.7631,-3.3713,-3.7888,-3.9562,-4.1894,-4.3256,-4.3297,-4.4412,-4.4345,-4.2998,-4.3455,-4.3688,-4.3588,-4.5024,-4.498,-4.3458,-4.4337,-4.4942,0.0,0.0,0.0,0.0,0.0,0.0,0.0,0.0,0.0,0.0,0.0,3.2729,3.2174,0.0,3.184,3.1286,3.1648,3.184,3.1286,3.1202,3.0752,2.9606,2.8925,2.857,2.857,2.857,2.857,2.857,2.857,2.857,2.857,2.9102,2.9431,2.9431,2.9977,3.0581,3.1107,3.0581,3.0876,3.1896,3.1945,3.2276,3.2824,3.3919,3.491,3.5919,3.6392,3.7732,3.9493,3.9854,4.1016,4.2463,4.2487,4.2325,4.2133,4.2406,4.271,4.3147,4.3795,4.4247,4.4654,4.4983,4.5302,4.5653,4.5802,4.6173,4.6651,4.7269,4.7505,4.7707,4.8028,4.8142,4.8368,4.8862,4.8938,4.9017,4.9552,4.9583,4.9447,4.9285,4.8598,4.7566,4.6016,4.2455,3.815,3.3188,2.7203,2.1429,1.6583,0.7992,-0.1016,-0.9634,-1.4311,-1.9588,-2.6383,-3.1766,-3.6154,-3.9369,-4.2599,-4.4714,-4.5378,-4.6394,-4.6683,-4.617,-4.6665,-4.6887,-4.6847,-4.7776,-4.7654,-4.6566,-4.7143,-4.7293,0.0,0.0,0.0,0.0,0.0,0.0,0.0,0.0,0.0,0.0,0.0,0.0,0.0,0.0,0.0,3.0558,3.1117,3.131,3.0127,2.978,2.9344,2.8303,2.8055,2.7875,2.7875,2.7875,2.7875,2.7875,2.7875,2.7875,2.7875,2.8145,2.8235,2.8235,2.8481,2.857,2.857,2.857,2.857,2.8592,0.0,0.0,3.0041,3.1886,3.2899,3.3305,3.4157,3.5722,3.7549,3.7549,3.9005,4.1171,4.0584,4.0267,4.0331,4.0678,4.1234,4.1893,4.2543,4.3201,4.3862,4.4544,4.483,4.4983,4.5514,4.5766,0.0,4.6683,4.7061,4.7377,4.7581,4.7801,4.8094,4.8497,4.8698,4.898,4.9478,4.9507,4.9317,4.8895,4.8,4.6759,4.4977,3.9959,3.452,2.9322,2.4112,1.8242,1.1086,0.46,-0.2032,-0.9267,-1.3956,-1.9079,-2.55,-3.0184,-3.4813,-3.9458,-4.2901,-4.5075,-4.5845,-4.6867,-4.7547,-4.782,-4.8354,-4.8903,-4.9583,-4.9527,-4.9259,-4.873,-4.7081,-4.6454,0.0,0.0,0.0,0.0,0.0,0.0,0.0,0.0,0.0,0.0,0.0,0.0,0.0,0.0,0.0,0.0,3.0472,3.0127,2.8925,2.7854,2.722,2.7038,2.6086,2.5491,2.5491,2.5491,2.5491,2.5491,2.5491,2.5491,2.5491,0.0,0.0,0.0,0.0,2.857,2.857,2.857,2.857,2.857,2.8659,2.8748,2.8748,2.8992,3.0168,3.211,3.2193,3.3469,3.5549,3.5549,3.6686,3.8524,3.8456,3.8416,3.8622,4.0203,4.0896,4.105,4.1834,0.0,0.0,4.3269,4.3841,4.4265,4.4314,4.4749,4.5336,4.6013,4.6219,4.646,4.7377,4.7415,4.7414,4.8361,4.844,4.8546,4.9398,4.9203,4.8756,4.8373,4.6823,4.4901,4.2741,3.7242,3.1397,2.6277,1.9719,1.3371,0.8074,0.0593,-0.7263,-1.5071,-1.8775,0.0,-2.7001,-3.3568,-3.9062,-4.2586,-4.3671,-4.3853,-4.3069,-4.3924,-4.4431,-4.448,-4.4868,-4.6539,-4.9583,-4.9325,-4.9085,-4.8608,-4.1303,-3.9245,0.0,0.0,0.0,0.0,0.0,0.0,0.0,0.0,0.0,0.0,0.0,0.0,0.0,0.0,0.0,0.0,2.9867,2.9431,2.6896,2.6105,2.5826,2.5826,2.5397,2.4716,2.39,2.3786,2.3499,2.2728,2.2728,2.2728,2.2728,2.3157,2.3809,2.4585,2.5036,2.5297,2.5297,2.5297,2.4923,2.4227,2.5649,2.6427,2.6499,2.7923,2.9431,3.0961,3.0961,3.2193,3.4261,3.4261,3.5141,3.6244,0.0,0.0,0.0,0.0,3.822,3.9295,3.9594,4.0396,4.1356,4.1779,4.2068,4.2341,4.3168,4.3641,4.4098,4.5212,4.5514,4.5688,4.6502,4.677,4.7096,4.8105,4.8529,4.8813,4.9325,4.9143,4.8679,4.7905,4.6162,0.0,3.9532,3.456,2.9482,2.4399,1.7855,1.1766,0.6835,-0.0103,-0.7054,-1.3263,-1.867,-2.4633,-3.1437,-3.6765,0.0,0.0,0.0,-4.5754,-4.564,-4.6339,0.0,0.0,0.0,-4.3767,-4.503,-4.2189,0.0,0.0,-3.6886,-3.5327,0.0,0.0,0.0,0.0,0.0,0.0,0.0,0.0,0.0,0.0,0.0,0.0,0.0,0.0,0.0,0.0,0.0,2.8616,2.4962,2.4508,2.4318,2.4032,2.3936,2.3516,2.2482,2.2386,2.1997,2.1117,2.1019,2.1019,2.1019,2.1019,2.1411,2.2386,2.2386,2.2386,2.2386,2.2386,2.19,2.1019,2.293,2.3962,2.4453,2.6223,2.788,2.9344,2.9344,3.0425,3.2218,3.2218,3.3011,3.4052,3.2144,3.2554,3.4288,3.46,3.5797,3.7407,3.7901,3.8961,4.0139,4.0678,4.0927,4.1324,4.2374,4.2853,4.3287,4.4476,4.4843,4.5029,4.5851,4.6353,4.6918,4.7975,4.8566,4.8994,4.9211,4.89,4.8188,4.6932,4.4844,4.1785,3.6865,3.2125,2.7305,2.2005,1.6485,1.0889,0.5316,-0.2647,-0.919,-1.2875,-1.7754,-2.3971,-3.1792,-3.6096,-3.8223,-3.7747,-4.2679,-4.6176,-4.7367,-4.7362,-4.7556,-4.8073,-4.466,-4.2534,0.0,0.0,0.0,0.0,0.0,0.0,0.0,0.0,0.0,0.0,0.0,0.0,0.0,0.0,0.0,0.0,0.0,0.0,0.0,0.0,0.0,0.0,0.0,0.0,2.3541,2.2965,2.2482,2.1313,2.1117,2.1133,2.1019,2.1019,2.1019,2.1019,2.1019,2.1019,2.1019,2.1019,2.1019,2.1019,2.1019,2.1019,2.1019,2.1019,2.1019,2.1019,2.1117,2.1802,2.2965,2.3061,2.4472,2.6946,2.6946,2.7583,2.8748,2.8748,3.0018,3.1837,3.0673,3.0927,3.2086,3.3097,3.4235,3.5549,3.7407,3.814,3.8456,4.0267,4.1356,4.1952,4.201,4.2625,4.3465,4.3998,4.4165,4.4461,4.5723,4.6353,4.695,4.7941,4.8518,4.8833,4.8964,4.8202,4.6939,4.5115,4.2403,3.9148,3.5323,3.0062,2.4392,1.8653,1.4998,0.0,0.2849,-0.9004,-1.6693,-1.6767,-1.7024,-1.9445,-2.4872,-2.9661,-3.4068,-3.8004,-4.0714,-4.3451,-4.6359,-4.4556,-4.392,-4.4838,-4.472,-4.3751,-4.2006,0.0,0.0,0.0,0.0,0.0,0.0,0.0,0.0,0.0,0.0,0.0,0.0,0.0,0.0,0.0,0.0,0.0,0.0,0.0,0.0,0.0,0.0,0.0,0.0,0.0,2.2772,2.2289,2.1509,2.064,1.9762,1.9762,1.9363,1.85,1.8385,1.8385,1.8385,1.8385,1.8789,1.9663,1.9762,1.9762,1.9762,1.9762,1.9262,1.8399,1.9277,1.9946,2.0344,2.1215,2.3026,2.5503,2.5503,2.6723,2.857,2.857,2.7298,2.5418,2.6335,2.7654,2.926,3.0798,3.2135,3.333,3.4678,3.5114,3.5495,3.7478,3.9095,4.0458,4.105,4.1807,4.2592,4.3399,4.386,4.4314,4.5166,4.6212,4.7244,4.8017,4.8716,4.9136,4.8903,4.81,4.6861,4.4943,4.1332,3.705,3.2226,2.8705,2.4106,1.6976,1.4109,0.9838,0.1663,-0.6574,-1.223,-1.3992,-1.5942,-1.9235,-2.4604,-2.4826,-2.6761,-3.155,-3.6443,-4.0606,-4.3859,-4.5308,-4.6517,-4.7521,-4.7817,-4.4366,-3.708,0.0,0.0,0.0,0.0,0.0,0.0,0.0,0.0,0.0,0.0,0.0,0.0,0.0,0.0,0.0,0.0,0.0,0.0,0.0,0.0,0.0,0.0,0.0,0.0,0.0,0.0,2.1324,2.0302,0.0,1.7881,1.8133,1.7829,1.6543,1.6699,1.6816,1.6816,1.6816,1.7096,1.7546,1.7559,1.7342,1.6819,1.6819,1.664,1.6382,1.7165,1.8067,1.9076,1.9962,2.1493,2.3487,2.3487,2.4435,2.5775,2.4614,2.2679,2.0526,2.1843,2.3551,2.5565,2.7826,2.9661,3.1225,3.2579,3.333,3.3945,3.5652,3.7343,3.873,3.9097,3.9892,4.084,4.1308,4.2503,4.3776,4.4453,4.5947,4.7443,4.7964,4.8618,4.8949,4.8259,4.7425,4.6059,4.3488,3.9532,3.5001,2.9846,2.6422,2.2161,1.5754,1.263,0.8377,0.0959,-0.5155,-1.0151,-1.395,-1.6048,-1.8488,-2.193,-2.2309,-2.4579,-2.9997,-3.4109,-3.8088,-4.1905,-4.4729,-4.595,-4.5458,-4.6111,-4.2457,0.0,0.0,0.0,0.0,0.0,0.0,0.0,0.0,0.0,0.0,0.0,0.0,0.0,0.0,0.0,0.0,0.0,0.0,0.0,0.0,0.0,0.0,0.0,0.0,0.0,0.0,0.0,1.8498,1.7538,0.0,0.0,0.0,0.0,1.545,1.5876,1.6173,1.6134,1.6134,1.5673,1.4818,1.4829,1.4219,1.2768,1.2748,1.35,1.4909,1.4875,1.6204,1.8875,1.8846,1.9518,2.0921,2.0758,2.0841,2.0663,1.7152,1.6342,1.7341,1.7549,1.8954,2.1292,2.4484,2.7149,2.938,3.1249,3.2554,3.3631,3.467,3.588,3.6842,3.622,3.7119,0.0,0.0,4.0244,4.2761,4.337,4.5437,4.7424,4.768,4.8253,4.8406,4.71,4.6162,4.4445,4.0713,3.6982,3.2922,2.8057,0.0,1.8804,1.4664,1.0504,0.5883,0.0632,-0.5147,-1.0814,-1.6272,-1.6973,-1.717,-1.7235,-2.1819,-2.7075,-3.2738,-3.3557,-3.5859,-4.0212,-4.2341,-4.1927,-3.8862,-3.9804,0.0,0.0,0.0,0.0,0.0,0.0,0.0,0.0,0.0,0.0,0.0,0.0,0.0,0.0,0.0,0.0,0.0,0.0,0.0,0.0,0.0,0.0,0.0,0.0,0.0,0.0,2.2404,2.0233,1.8074,1.7411,1.6589,0.0,0.0,0.0,0.0,0.0,0.0,1.3225,1.3108,1.3067,1.2801,1.2811,1.2676,1.2521,1.2391,1.2662,1.3332,1.3191,1.4118,1.6023,1.5621,1.6933,1.9503,1.7826,1.834,1.998,1.4172,1.2158,1.2978,1.5241,1.7675,2.0479,2.4255,2.7089,2.9104,2.9549,3.0313,3.1153,3.2126,3.216,3.2215,3.4098,0.0,0.0,0.0,0.0,4.058,4.0583,4.3566,4.6538,4.6395,4.7235,4.7858,4.7019,4.5369,4.2557,3.7259,3.415,3.0096,2.2783,2.0235,0.0,1.0931,0.878,0.5677,-0.0099,-0.5523,-1.0037,-1.3498,-1.5817,-1.7627,-1.9053,-2.2659,-2.5854,-2.8392,-3.0679,-3.2755,-3.4411,-3.5271,-3.5439,-3.502,0.0,0.0,0.0,0.0,0.0,0.0,0.0,0.0,0.0,0.0,0.0,0.0,0.0,0.0,0.0,0.0,0.0,0.0,0.0,0.0,0.0,0.0,0.0,0.0,0.0,0.0,0.0,2.3315,2.1087,1.9021,1.756,1.6245,0.0,0.0,0.0,0.0,0.0,0.0,0.0,0.0,0.0,1.1122,1.1122,1.0861,1.0411,1.0294,1.0689,1.1527,1.1396,1.2195,1.3632,1.3361,1.4248,1.5939,1.4632,1.4653,1.5074,0.9559,0.8341,1.0285,0.0,0.0,0.0,0.0,2.7186,2.841,2.9435,2.9997,3.0338,3.0291,0.0,0.0,0.0,0.0,0.0,0.0,0.0,3.8164,3.8664,4.242,4.591,4.5117,4.5908,4.6523,4.5419,4.1388,3.6693,3.2137,2.9515,2.5949,1.9678,1.7153,0.0,0.0,0.0,0.5151,0.0,-0.5377,-0.9298,-1.0926,-1.3936,-1.725,-2.0609,-2.2834,-2.4566,-2.5894,-2.7557,-2.8409,-2.8083,-2.8906,-2.8362,0.0,0.0,0.0,0.0,0.0,0.0,0.0,0.0,0.0,0.0,0.0,0.0,0.0,0.0,0.0,0.0,0.0,0.0,0.0,0.0,0.0,0.0,0.0,0.0,0.0,0.0,0.0,0.0,0.0,2.2202,1.9855,0.0,0.0,0.0,0.0,0.0,0.0,0.0,0.0,0.0,0.0,0.0,0.0,0.0,0.9125,0.7753,0.768,0.8236,0.9544,0.959,1.0275,1.1784,1.1664,1.1767,1.2056,1.1408,0.0,0.8474,0.4822,0.0,0.0,0.0,0.0,0.0,0.0,0.0,0.0,0.0,0.0,0.0,0.0,0.0,0.0,0.0,0.0,0.0,0.0,0.0,0.0,0.0,0.0,4.3931,4.2634,4.3335,4.3725,4.1697,3.5538,2.9593,2.6741,2.4312,2.1457,0.0,0.0,0.0,0.0,0.0,0.0,0.0561,-0.5158,-0.8897,-0.9276,-1.2537,-1.6653,-2.1492,-2.2568,-2.3331,-2.434,-2.4228,-2.3653,-2.2393,-2.2569,0.0,0.0,0.0,0.0,0.0,0.0,0.0,0.0,0.0,0.0,0.0,0.0,0.0,0.0,0.0,0.0,0.0,0.0,0.0,0.0,0.0,0.0,0.0,0.0,0.0,0.0,0.0,0.0,0.0,0.0,0.0,0.0,0.0,0.0,0.0,0.0,0.0,0.0,0.0,0.0,0.0,0.0,0.0,0.0,0.0,0.0,0.0,0.0,0.0,0.0,0.7569,0.8515,1.0251,0.9518,1.0204,1.1818,0.7881,0.5532,0.4439,0.2783,0.0,0.0,0.0,0.0,0.0,0.0,0.0,0.0,0.0,0.0,0.0,0.0,0.0,0.0,0.0,0.0,0.0,0.0,0.0,0.0,0.0,0.0,3.5617,3.5049,3.6555,3.7047,3.3212,0.0,0.0,0.0,0.0,0.0,0.0,0.0,0.0,0.0,0.0,0.0,0.0519,-0.5092,-0.9655,-1.1927,-1.4678,-1.7293,-1.9407,-2.1624,-2.2579,-2.1688,-2.0964,-2.0486,0.0,0.0,0.0,0.0,0.0,0.0,0.0,0.0,0.0,0.0,0.0,0.0,0.0,0.0,0.0,0.0,0.0,0.0,0.0,0.0,0.0,0.0,0.0,0.0,0.0,0.0,0.0,0.0,0.0,0.0,0.0,0.0,0.0,0.0,0.0,0.0,0.0,0.0,0.0,0.0,0.0,0.0,0.0,0.0,0.0,0.0,0.0,0.0,0.0,0.0,0.0,0.0,0.0,0.0,0.0,0.0,0.0,0.0,0.0,0.3613,0.0,0.0,0.0,0.0,0.0,0.0,0.0,0.0,0.0,0.0,0.0,0.0,0.0,0.0,0.0,0.0,0.0,0.0,0.0,0.0,0.0,0.0,0.0,0.0,0.0,0.0,0.0,0.0,0.0,0.0,0.0,0.0,0.0,0.0,0.0,0.0,0.0,0.0,0.0,0.0,0.5458,-0.0197,-0.6462,-1.2261,-1.4563,-1.673,-1.8875,-2.0838,-2.1033,-1.8838,-1.7988,0.0,0.0,0.0,0.0,0.0,0.0,0.0,0.0,0.0,0.0,0.0,0.0,0.0,0.0,0.0,0.0,0.0,0.0,0.0,0.0,0.0,0.0,0.0,0.0,0.0,0.0,0.0,0.0,0.0,0.0,0.0,0.0,0.0,0.0,0.0,0.0,0.0,0.0,0.0,0.0,0.0,0.0,0.0,0.0,0.0,0.0,0.0,0.0,0.0,0.0,0.0,0.0,0.0,0.0,0.0,0.0,0.0,0.0,0.0,0.566,0.0,0.0,0.0,0.0,0.0,0.0,0.0,0.0,0.0,0.0,0.0,0.0,0.0,0.0,0.0,0.0,0.0,0.0,0.0,0.0,0.0,0.0,0.0,0.0,0.0,0.0,0.0,0.0,0.0,0.0,0.0,0.0,0.0,0.0,0.0,0.0,0.0,0.0,0.0,0.0,0.0,0.9061,0.3852,-0.3323,-1.1936,-1.3698,-1.563,-1.876,-1.9946,-1.938,-1.6703,-1.5557,0.0,0.0,0.0,0.0,0.0,0.0,0.0,0.0,0.0,0.0,0.0,0.0,0.0,0.0,0.0,0.0,0.0,0.0,0.0,0.0,0.0,0.0,0.0,0.0,0.0,0.0,0.0,0.0,0.0,0.0,0.0,0.0,0.0,0.0,0.0,0.0,0.0,0.0,0.0,0.0,0.0,0.0,0.0,0.0,0.0,0.0,0.0,0.0,0.0,0.0,0.0,0.0,0.0,0.0,0.0,0.0,0.0,0.0,0.0,0.0,0.0,0.0,0.0,0.0,0.0,0.0,0.0,0.0,0.0,0.0,0.0,0.0,0.0,0.0,0.0,0.0,0.0,0.0,0.0,0.0,0.0,0.0,0.0,0.0,0.0,0.0,0.0,0.0,0.0,0.0,0.0,0.0,0.0,0.0,0.0,0.0,0.0,0.0,0.0,0.0,0.0,0.5825,0.2366,-0.3317,-1.1963,-1.2921,-1.4656,-1.8659,-1.9177,-1.8455,-1.6618,0.0,0.0,0.0,0.0,0.0,0.0,0.0,0.0,0.0,0.0,0.0,0.0,0.0,0.0,0.0,0.0,0.0,0.0,0.0,0.0,0.0,0.0,0.0,0.0,0.0,0.0,0.0,0.0,0.0,0.0,0.0,0.0,0.0,0.0,0.0,0.0,0.0,0.0,0.0,0.0,0.0,0.0,0.0,0.0,0.0,0.0,0.0,0.0,0.0,0.0,0.0,0.0,0.0,0.0,0.0,0.0,0.0,0.0,0.0,0.0,0.0,0.0,0.0,0.0,0.0,0.0,0.0,0.0,0.0,0.0,0.0,0.0,0.0,0.0,0.0,0.0,0.0,0.0,0.0,0.0,0.0,0.0,0.0,0.0,0.0,0.0,0.0,0.0,0.0,0.0,0.0,0.0,0.0,0.0,0.0,0.0,0.0,0.0,0.0,0.0,0.0,0.0,0.7802,0.325,-0.3317,-1.1857,-1.2826,-1.4158,-1.7599,-1.7905,-1.683,-1.4448,0.0,0.0,0.0,0.0,0.0,0.0,0.0,0.0,0.0,0.0,0.0,0.0,0.0,0.0,0.0,0.0,0.0,0.0,0.0,0.0,0.0,0.0,0.0,0.0,0.0,0.0,0.0,0.0,0.0,0.0,0.0,0.0,0.0,0.0,0.0,0.0,0.0,0.0,0.0,0.0,0.0,0.0,0.0,0.0,0.0,0.0,0.0,0.0,0.0,0.0,0.0,0.0,0.0,0.0,0.0,0.0,0.0,0.0,0.0,0.0,0.0,0.0,0.0,0.0,0.0,0.0,0.0,0.0,0.0,0.0,0.0,0.0,0.0,0.0,0.0,0.0,0.0,0.0,0.0,0.0,0.0,0.0,0.0,0.0,0.0,0.0,0.0,0.0,0.0,0.0,0.0,0.0,0.0,0.0,0.0,0.0,0.0,0.0,0.0,0.0,0.0,0.0,0.94,0.3941,-0.332,-1.1893,-1.2414,-1.3521,-1.6755,-1.6678,-1.5582,-1.3528,0.0,0.0,0.0,0.0,0.0,0.0,0.0,0.0,0.0,0.0,0.0,0.0,0.0,0.0,0.0,0.0,0.0,0.0,0.0,0.0,0.0,0.0,0.0,0.0,0.0,0.0,0.0,0.0,0.0,0.0,0.0,0.0,0.0,0.0,0.0,0.0,0.0,0.0,0.0,0.0,0.0,0.0,0.0,0.0,0.0,0.0,0.0,0.0,0.0,0.0,0.0,0.0,0.0,0.0,0.0,0.0,0.0,0.0,0.0,0.0,0.0,0.0,0.0,0.0,0.0,0.0,0.0,0.0,0.0,0.0,0.0,0.0,0.0,0.0,0.0,0.0,0.0,0.0,0.0,0.0,0.0,0.0,0.0,0.0,0.0,0.0,0.0,0.0,0.0,0.0,0.0,0.0,0.0,0.0,0.0,0.0,0.0,0.0,0.0,0.0,0.0,0.0,0.9412,0.3951,-0.3328,-1.1877,-1.1593,-1.2434,-1.6564,-1.5702,-1.4888,0.0,0.0,0.0,0.0,0.0,0.0,0.0,0.0,0.0,0.0,0.0,0.0,0.0,0.0,0.0,0.0,0.0,0.0,0.0,0.0,0.0,0.0,0.0,0.0,0.0,0.0,0.0,0.0,0.0,0.0,0.0,0.0,0.0,0.0,0.0,0.0,0.0,0.0,0.0,0.0,0.0,0.0,0.0,0.0,0.0,0.0,0.0,0.0,0.0,0.0,0.0,0.0,0.0,0.0,0.0,0.0,0.0,0.0,0.0,0.0,0.0,0.0,0.0,0.0,0.0,0.0,0.0,0.0,0.0,0.0,0.0,0.0,0.0,0.0,0.0,0.0,0.0,0.0,0.0,0.0,0.0,0.0,0.0,0.0,0.0,0.0,0.0,0.0,0.0,0.0,0.0,0.0,0.0,0.0,0.0,0.0,0.0,0.0,0.0,0.0,0.0,0.0,0.0,0.9523,0.3581,-0.2654,-0.7379,-0.9923,-1.2395,-1.5289,-1.5209,-1.4466,-1.3274,0.0,0.0,0.0,0.0,0.0,0.0,0.0,0.0,0.0,0.0,0.0,0.0,0.0,0.0,0.0,0.0,0.0,0.0,0.0,0.0,0.0,0.0,0.0,0.0,0.0,0.0,0.0,0.0,0.0,0.0,0.0,0.0,0.0,0.0,0.0,0.0,0.0,0.0,0.0,0.0,0.0,0.0,0.0,0.0,0.0,0.0,0.0,0.0,0.0,0.0,0.0,0.0,0.0,0.0,0.0,0.0,0.0,0.0,0.0,0.0,0.0,0.0,0.0,0.0,0.0,0.0,0.0,0.0,0.0,0.0,0.0,0.0,0.0,0.0,0.0,0.0,0.0,0.0,0.0,0.0,0.0,0.0,0.0,0.0,0.0,0.0,0.0,0.0,0.0,0.0,0.0,0.0,0.0,0.0,0.0,0.0,0.0,0.0,0.0,0.0,0.0,0.0,0.0,0.3981,-0.0616,-0.3198,-0.765,-1.1248,-1.3207,-1.3311,-1.2846,-1.1693,0.0,0.0,0.0,0.0,0.0,0.0,0.0,0.0,0.0,0.0,0.0,0.0,0.0,0.0,0.0,0.0,0.0,0.0,0.0,0.0,0.0,0.0,0.0,0.0,0.0,0.0,0.0,0.0,0.0,0.0,0.0,0.0,0.0,0.0,0.0,0.0,0.0,0.0,0.0,0.0,0.0,0.0,0.0,0.0,0.0,0.0,0.0,0.0,0.0,0.0,0.0,0.0,0.0,0.0,0.0,0.0,0.0,0.0,0.0,0.0,0.0,0.0,0.0,0.0,0.0,0.0,0.0,0.0,0.0,0.0,0.0,0.0,0.0,0.0,0.0,0.0,0.0,0.0,0.0,0.0,0.0,0.0,0.0,0.0,0.0,0.0,0.0,0.0,0.0,0.0,0.0,0.0,0.0,0.0,0.0,0.0,0.0,0.0,0.0,0.0,0.0,0.0,0.0,0.5239,0.2466,0.0215,-0.5299,-0.9333,-1.0675,-1.0667,-1.0556,-1.0161,-0.7795,0.0,0.0,0.0,0.0,0.0,0.0,0.0,0.0,0.0,0.0,0.0,0.0,0.0,0.0,0.0,0.0,0.0,0.0,0.0,0.0,0.0,0.0,0.0,0.0,0.0,0.0,0.0,0.0,0.0,0.0,0.0,0.0,0.0,0.0,0.0,0.0,0.0,0.0,0.0,0.0,0.0,0.0,0.0,0.0,0.0,0.0,0.0,0.0,0.0,0.0,0.0,0.0,0.0,0.0,0.0,0.0,0.0,0.0,0.0,0.0,0.0,0.0,0.0,0.0,0.0,0.0,0.0,0.0,0.0,0.0,0.0,0.0,0.0,0.0,0.0,0.0,0.0,0.0,0.0,0.0,0.0,0.0,0.0,0.0,0.0,0.0,0.0,0.0,0.0,0.0,0.0,0.0,0.0,0.0,0.0,0.0,0.0,0.0,0.0,0.0,0.0,0.0,0.7962,0.5427,0.0536,-0.5199,-0.9476,-1.115,-1.0895,-0.9948,-0.8336,-0.7393,0.0,0.0,0.0,0.0,0.0,0.0,0.0,0.0,0.0,0.0,0.0,0.0,0.0,0.0,0.0,0.0,0.0,0.0,0.0,0.0,0.0,0.0,0.0,0.0,0.0,0.0,0.0,0.0,0.0,0.0,0.0,0.0,0.0,0.0,0.0,0.0,0.0,0.0,0.0,0.0,0.0,0.0,0.0,0.0,0.0,0.0,0.0,0.0,0.0,0.0,0.0,0.0,0.0,0.0,0.0,0.0,0.0,0.0,0.0,0.0,0.0,0.0,0.0,0.0,0.0,0.0,0.0,0.0,0.0,0.0,0.0,0.0,0.0,0.0,0.0,0.0,0.0,0.0,0.0,0.0,0.0,0.0,0.0,0.0,0.0,0.0,0.0,0.0,0.0,0.0,0.0,0.0,0.0,0.0,0.0,0.0,0.0,0.0,0.0,0.0,0.0,0.0,0.8389,0.6015,0.0534,-0.4004,-0.7612,-0.9984,-0.9961,-0.9128,-0.763,-0.5239,0.0,0.0,0.0,0.0,0.0,0.0,0.0,0.0,0.0,0.0,0.0,0.0,0.0,0.0,0.0,0.0,0.0,0.0,0.0,0.0,0.0,0.0,0.0,0.0,0.0,0.0,0.0,0.0,0.0,0.0,0.0,0.0,0.0,0.0,0.0,0.0,0.0,0.0,0.0,0.0,0.0,0.0,0.0,0.0,0.0,0.0,0.0,0.0,0.0,0.0,0.0,0.0,0.0,0.0,0.0,0.0,0.0,0.0,0.0,0.0,0.0,0.0,0.0,0.0,0.0,0.0,0.0,0.0,0.0,0.0,0.0,0.0,0.0,0.0,0.0,0.0,0.0,0.0,0.0,0.0,0.0,0.0,0.0,0.0,0.0,0.0,0.0,0.0,0.0,0.0,0.0,0.0,0.0,0.0,0.0,0.0,0.0,0.0,0.0,0.0,0.0,0.0,0.0,0.5919,0.159,-0.2479,-0.5976,-0.85,-0.8696,-0.8423,-0.7753,0.0,0.0,0.0,0.0,0.0,0.0,0.0,0.0,0.0,0.0,0.0,0.0,0.0,0.0,0.0,0.0,0.0,0.0,0.0,0.0,0.0,0.0,0.0,0.0,0.0,0.0,0.0,0.0,0.0,0.0,0.0,0.0,0.0,0.0,0.0,0.0,0.0,0.0,0.0,0.0,0.0,0.0,0.0,0.0,0.0,0.0,0.0,0.0,0.0,0.0,0.0,0.0,0.0,0.0,0.0,0.0,0.0,0.0,0.0,0.0,0.0,0.0,0.0,0.0,0.0,0.0,0.0,0.0,0.0,0.0,0.0,0.0,0.0,0.0,0.0,0.0,0.0,0.0,0.0,0.0,0.0,0.0,0.0,0.0,0.0,0.0,0.0,0.0,0.0,0.0,0.0,0.0,0.0,0.0,0.0,0.0,0.0,0.0,0.0,0.0,0.0,0.0,0.0,0.0,0.7669,0.6668,-0.224,-0.8213,-0.8762,-0.8742,-0.869,-0.8574,0.0,0.0,0.0,0.0,0.0,0.0,0.0,0.0,0.0,0.0,0.0,0.0,0.0,0.0]}]]]